Eleven Point River (Missouri), Ravenden Springs (07072000)

StateMissouriLatestLow (939 cfs)
RiverEleven Point RiverRatingObservedEstimated
Updated2021-01-20 0:45 (21 minutes ago)Flood - The river is flooding. Obstacles can be treacherous or deadly. The river should be avoided at this stage for casual trips and definitely for the inexperienced. Trips should be attempted only with protective gear and equipment.Flood(none)3301
Discharge939 cfs (median: 996 cfs)High - The river is high and potentially dangerous, especially for the young and / or inexperienced. Normal stream obstacles are sometimes difficult to navigate. Extended distances can be attempted, but canoe travel may not be advisable.High(none)1442
Height3.58 feetGood - Conditions are ideal for a canoe or kayak. Boats typically will drag on fewer than one-quarter of riffles, if at all, and portages are unnecessary or rare. Normal float lengths can be attempted without a problem.Good(none)1037
TrendSteady (falling over 24 hours)Low - River is low but can still be floated. Some riffles are okay but most come with significant dragging and might need a portage. Float lengths should be reduced to accommodate low flow, dragging, and portages.Low(none)785
USGSExternal icon USGS Site (External icon Google Maps)Poor - River is too low to float comfortably. Most or all riffles will drag or must be portaged and some obstacles (such as slick shelf rock) cause undue problems. Avoid the river at this stage for casual paddling trips.Poor(none)418

Trending Data

Plot Image

Trips for Eleven Point River (Missouri), Ravenden Springs (07072000)

DateStartEndDistanceConditionDischargeHeightFishingDetails

A total of 0 rows are displayed.

Condition Descriptions

Fishing Conditions

Fish Species

Notes

Classic Trip List

The classic River Trips application is still available for use. It is updated with the new system using a data retrofit. It is no longer maintained. The original River Trips application is no longer updated (as of 1 Dec 2016) but can be checked for errors or for the condition of the data before it was converted to the new system.

Gauge Data Table

ObservationHeightDischargeMaximum
Discharge
Minimum
Discharge
Mean
Discharge
P05P10P20P25P50
(Median)
P75P80P90P95
2021-01-20 00:45 3.58 939 4640 (1949) 258 (1957) 1120 338 399 477 520 996 1500 1650 2060 2560
2021-01-19 23:45 3.58 939 8250 (1949) 246 (1957) 1150 336 394 467 510 874 1470 1700 2030 2830
2021-01-19 22:45 3.59 945 8250 (1949) 246 (1957) 1150 336 394 467 510 874 1470 1700 2030 2830
2021-01-19 21:45 3.59 945 8250 (1949) 246 (1957) 1150 336 394 467 510 874 1470 1700 2030 2830
2021-01-19 20:45 3.59 945 8250 (1949) 246 (1957) 1150 336 394 467 510 874 1470 1700 2030 2830
2021-01-19 19:45 3.59 945 8250 (1949) 246 (1957) 1150 336 394 467 510 874 1470 1700 2030 2830
2021-01-19 18:45 3.59 945 8250 (1949) 246 (1957) 1150 336 394 467 510 874 1470 1700 2030 2830
2021-01-19 17:45 3.59 945 8250 (1949) 246 (1957) 1150 336 394 467 510 874 1470 1700 2030 2830
2021-01-19 16:45 3.59 945 8250 (1949) 246 (1957) 1150 336 394 467 510 874 1470 1700 2030 2830
2021-01-19 15:45 3.60 952 8250 (1949) 246 (1957) 1150 336 394 467 510 874 1470 1700 2030 2830
2021-01-19 14:45 3.60 952 8250 (1949) 246 (1957) 1150 336 394 467 510 874 1470 1700 2030 2830
2021-01-19 13:45 3.60 952 8250 (1949) 246 (1957) 1150 336 394 467 510 874 1470 1700 2030 2830
2021-01-19 12:45 3.60 952 8250 (1949) 246 (1957) 1150 336 394 467 510 874 1470 1700 2030 2830
2021-01-19 11:45 3.59 945 8250 (1949) 246 (1957) 1150 336 394 467 510 874 1470 1700 2030 2830
2021-01-19 10:45 3.60 952 8250 (1949) 246 (1957) 1150 336 394 467 510 874 1470 1700 2030 2830
2021-01-19 09:45 3.60 952 8250 (1949) 246 (1957) 1150 336 394 467 510 874 1470 1700 2030 2830
2021-01-19 08:45 3.59 945 8250 (1949) 246 (1957) 1150 336 394 467 510 874 1470 1700 2030 2830
2021-01-19 07:45 3.60 952 8250 (1949) 246 (1957) 1150 336 394 467 510 874 1470 1700 2030 2830
2021-01-19 06:45 3.60 952 8250 (1949) 246 (1957) 1150 336 394 467 510 874 1470 1700 2030 2830
2021-01-19 05:45 3.61 959 8250 (1949) 246 (1957) 1150 336 394 467 510 874 1470 1700 2030 2830
2021-01-19 04:45 3.61 959 8250 (1949) 246 (1957) 1150 336 394 467 510 874 1470 1700 2030 2830
2021-01-19 03:45 3.61 959 8250 (1949) 246 (1957) 1150 336 394 467 510 874 1470 1700 2030 2830
2021-01-19 02:45 3.61 959 8250 (1949) 246 (1957) 1150 336 394 467 510 874 1470 1700 2030 2830
2021-01-19 01:45 3.61 959 8250 (1949) 246 (1957) 1150 336 394 467 510 874 1470 1700 2030 2830
2021-01-19 00:45 3.61 959 8250 (1949) 246 (1957) 1150 336 394 467 510 874 1470 1700 2030 2830
2021-01-18 23:45 3.61 959 4880 (1949) 246 (1957) 1140 330 400 463 504 858 1500 1640 2250 3140
2021-01-18 22:45 3.62 965 4880 (1949) 246 (1957) 1140 330 400 463 504 858 1500 1640 2250 3140
2021-01-18 21:45 3.61 959 4880 (1949) 246 (1957) 1140 330 400 463 504 858 1500 1640 2250 3140
2021-01-18 20:45 3.61 959 4880 (1949) 246 (1957) 1140 330 400 463 504 858 1500 1640 2250 3140
2021-01-18 19:45 3.62 965 4880 (1949) 246 (1957) 1140 330 400 463 504 858 1500 1640 2250 3140
2021-01-18 18:45 3.62 965 4880 (1949) 246 (1957) 1140 330 400 463 504 858 1500 1640 2250 3140
2021-01-18 17:45 3.62 965 4880 (1949) 246 (1957) 1140 330 400 463 504 858 1500 1640 2250 3140
2021-01-18 16:45 3.62 965 4880 (1949) 246 (1957) 1140 330 400 463 504 858 1500 1640 2250 3140
2021-01-18 15:45 3.62 965 4880 (1949) 246 (1957) 1140 330 400 463 504 858 1500 1640 2250 3140
2021-01-18 14:45 3.62 965 4880 (1949) 246 (1957) 1140 330 400 463 504 858 1500 1640 2250 3140
2021-01-18 13:45 3.61 959 4880 (1949) 246 (1957) 1140 330 400 463 504 858 1500 1640 2250 3140
2021-01-18 12:45 3.63 972 4880 (1949) 246 (1957) 1140 330 400 463 504 858 1500 1640 2250 3140
2021-01-18 11:45 3.62 965 4880 (1949) 246 (1957) 1140 330 400 463 504 858 1500 1640 2250 3140
2021-01-18 10:45 3.62 965 4880 (1949) 246 (1957) 1140 330 400 463 504 858 1500 1640 2250 3140
2021-01-18 09:45 3.62 965 4880 (1949) 246 (1957) 1140 330 400 463 504 858 1500 1640 2250 3140
2021-01-18 08:45 3.62 965 4880 (1949) 246 (1957) 1140 330 400 463 504 858 1500 1640 2250 3140
2021-01-18 07:45 3.63 972 4880 (1949) 246 (1957) 1140 330 400 463 504 858 1500 1640 2250 3140
2021-01-18 06:45 3.63 972 4880 (1949) 246 (1957) 1140 330 400 463 504 858 1500 1640 2250 3140
2021-01-18 05:45 3.63 972 4880 (1949) 246 (1957) 1140 330 400 463 504 858 1500 1640 2250 3140
2021-01-18 04:45 3.63 972 4880 (1949) 246 (1957) 1140 330 400 463 504 858 1500 1640 2250 3140
2021-01-18 03:45 3.63 972 4880 (1949) 246 (1957) 1140 330 400 463 504 858 1500 1640 2250 3140
2021-01-18 02:45 3.63 972 4880 (1949) 246 (1957) 1140 330 400 463 504 858 1500 1640 2250 3140
2021-01-18 01:45 3.64 978 4880 (1949) 246 (1957) 1140 330 400 463 504 858 1500 1640 2250 3140
2021-01-18 00:45 3.64 978 4880 (1949) 246 (1957) 1140 330 400 463 504 858 1500 1640 2250 3140
2021-01-17 23:45 3.64 978 5670 (1932) 246 (1957) 1200 331 402 464 494 845 1570 1680 2260 3650
2021-01-17 22:45 3.64 978 5670 (1932) 246 (1957) 1200 331 402 464 494 845 1570 1680 2260 3650
2021-01-17 21:45 3.64 978 5670 (1932) 246 (1957) 1200 331 402 464 494 845 1570 1680 2260 3650
2021-01-17 20:45 3.64 978 5670 (1932) 246 (1957) 1200 331 402 464 494 845 1570 1680 2260 3650
2021-01-17 19:45 3.64 978 5670 (1932) 246 (1957) 1200 331 402 464 494 845 1570 1680 2260 3650
2021-01-17 18:45 3.64 978 5670 (1932) 246 (1957) 1200 331 402 464 494 845 1570 1680 2260 3650
2021-01-17 17:45 3.64 978 5670 (1932) 246 (1957) 1200 331 402 464 494 845 1570 1680 2260 3650
2021-01-17 16:45 3.65 985 5670 (1932) 246 (1957) 1200 331 402 464 494 845 1570 1680 2260 3650
2021-01-17 15:45 3.64 978 5670 (1932) 246 (1957) 1200 331 402 464 494 845 1570 1680 2260 3650
2021-01-17 14:45 3.64 978 5670 (1932) 246 (1957) 1200 331 402 464 494 845 1570 1680 2260 3650
2021-01-17 13:45 3.64 978 5670 (1932) 246 (1957) 1200 331 402 464 494 845 1570 1680 2260 3650
2021-01-17 12:45 3.65 985 5670 (1932) 246 (1957) 1200 331 402 464 494 845 1570 1680 2260 3650
2021-01-17 11:45 3.62 965 5670 (1932) 246 (1957) 1200 331 402 464 494 845 1570 1680 2260 3650
2021-01-17 10:45 3.65 985 5670 (1932) 246 (1957) 1200 331 402 464 494 845 1570 1680 2260 3650
2021-01-17 09:45 3.65 985 5670 (1932) 246 (1957) 1200 331 402 464 494 845 1570 1680 2260 3650
2021-01-17 08:45 3.66 992 5670 (1932) 246 (1957) 1200 331 402 464 494 845 1570 1680 2260 3650
2021-01-17 07:45 3.65 985 5670 (1932) 246 (1957) 1200 331 402 464 494 845 1570 1680 2260 3650
2021-01-17 06:45 3.66 992 5670 (1932) 246 (1957) 1200 331 402 464 494 845 1570 1680 2260 3650
2021-01-17 05:45 3.66 992 5670 (1932) 246 (1957) 1200 331 402 464 494 845 1570 1680 2260 3650
2021-01-17 04:45 3.66 992 5670 (1932) 246 (1957) 1200 331 402 464 494 845 1570 1680 2260 3650
2021-01-17 03:45 3.67 998 5670 (1932) 246 (1957) 1200 331 402 464 494 845 1570 1680 2260 3650
2021-01-17 02:45 3.67 998 5670 (1932) 246 (1957) 1200 331 402 464 494 845 1570 1680 2260 3650
2021-01-17 01:45 3.67 998 5670 (1932) 246 (1957) 1200 331 402 464 494 845 1570 1680 2260 3650
2021-01-17 00:45 3.67 998 5670 (1932) 246 (1957) 1200 331 402 464 494 845 1570 1680 2260 3650
2021-01-16 22:45 3.67 998 10800 (1937) 250 (1957) 1310 335 408 471 494 852 1590 1660 2450 4320
2021-01-16 21:45 3.67 998 10800 (1937) 250 (1957) 1310 335 408 471 494 852 1590 1660 2450 4320
2021-01-16 20:45 3.67 998 10800 (1937) 250 (1957) 1310 335 408 471 494 852 1590 1660 2450 4320
2021-01-16 19:45 3.67 998 10800 (1937) 250 (1957) 1310 335 408 471 494 852 1590 1660 2450 4320
2021-01-16 18:45 3.68 1010 10800 (1937) 250 (1957) 1310 335 408 471 494 852 1590 1660 2450 4320
2021-01-16 17:45 3.67 998 10800 (1937) 250 (1957) 1310 335 408 471 494 852 1590 1660 2450 4320
2021-01-16 16:45 3.68 1010 10800 (1937) 250 (1957) 1310 335 408 471 494 852 1590 1660 2450 4320
2021-01-16 15:45 3.64 978 10800 (1937) 250 (1957) 1310 335 408 471 494 852 1590 1660 2450 4320
2021-01-16 14:45 3.65 985 10800 (1937) 250 (1957) 1310 335 408 471 494 852 1590 1660 2450 4320
2021-01-16 13:45 3.64 978 10800 (1937) 250 (1957) 1310 335 408 471 494 852 1590 1660 2450 4320
2021-01-16 12:45 3.69 1010 10800 (1937) 250 (1957) 1310 335 408 471 494 852 1590 1660 2450 4320
2021-01-16 11:45 3.63 972 10800 (1937) 250 (1957) 1310 335 408 471 494 852 1590 1660 2450 4320
2021-01-16 10:45 3.62 965 10800 (1937) 250 (1957) 1310 335 408 471 494 852 1590 1660 2450 4320
2021-01-16 09:45 3.69 1010 10800 (1937) 250 (1957) 1310 335 408 471 494 852 1590 1660 2450 4320
2021-01-16 08:45 3.68 1010 10800 (1937) 250 (1957) 1310 335 408 471 494 852 1590 1660 2450 4320
2021-01-16 07:45 3.68 1010 10800 (1937) 250 (1957) 1310 335 408 471 494 852 1590 1660 2450 4320
2021-01-16 06:45 3.68 1010 10800 (1937) 250 (1957) 1310 335 408 471 494 852 1590 1660 2450 4320
2021-01-16 05:45 3.68 1010 10800 (1937) 250 (1957) 1310 335 408 471 494 852 1590 1660 2450 4320
2021-01-16 04:45 3.69 1010 10800 (1937) 250 (1957) 1310 335 408 471 494 852 1590 1660 2450 4320
2021-01-16 03:45 3.69 1010 10800 (1937) 250 (1957) 1310 335 408 471 494 852 1590 1660 2450 4320
2021-01-16 02:45 3.69 1010 10800 (1937) 250 (1957) 1310 335 408 471 494 852 1590 1660 2450 4320
2021-01-16 01:45 3.69 1010 10800 (1937) 250 (1957) 1310 335 408 471 494 852 1590 1660 2450 4320
2021-01-16 00:45 3.69 1010 10800 (1937) 250 (1957) 1310 335 408 471 494 852 1590 1660 2450 4320
2021-01-15 23:45 3.69 1010 14300 (1937) 254 (1957) 1430 335 390 464 498 859 1490 1760 2730 5450
2021-01-15 22:45 3.68 1010 14300 (1937) 254 (1957) 1430 335 390 464 498 859 1490 1760 2730 5450
2021-01-15 21:45 3.68 1010 14300 (1937) 254 (1957) 1430 335 390 464 498 859 1490 1760 2730 5450
2021-01-15 20:45 3.69 1010 14300 (1937) 254 (1957) 1430 335 390 464 498 859 1490 1760 2730 5450
2021-01-15 19:45 3.69 1010 14300 (1937) 254 (1957) 1430 335 390 464 498 859 1490 1760 2730 5450
2021-01-15 18:45 3.70 1020 14300 (1937) 254 (1957) 1430 335 390 464 498 859 1490 1760 2730 5450
2021-01-15 17:45 3.69 1010 14300 (1937) 254 (1957) 1430 335 390 464 498 859 1490 1760 2730 5450
2021-01-15 16:45 3.69 1010 14300 (1937) 254 (1957) 1430 335 390 464 498 859 1490 1760 2730 5450
2021-01-15 15:45 3.70 1020 14300 (1937) 254 (1957) 1430 335 390 464 498 859 1490 1760 2730 5450
2021-01-15 14:45 3.68 1010 14300 (1937) 254 (1957) 1430 335 390 464 498 859 1490 1760 2730 5450
2021-01-15 13:45 3.69 1010 14300 (1937) 254 (1957) 1430 335 390 464 498 859 1490 1760 2730 5450
2021-01-15 12:45 3.70 1020 14300 (1937) 254 (1957) 1430 335 390 464 498 859 1490 1760 2730 5450
2021-01-15 11:45 3.68 1010 14300 (1937) 254 (1957) 1430 335 390 464 498 859 1490 1760 2730 5450
2021-01-15 10:45 3.68 1010 14300 (1937) 254 (1957) 1430 335 390 464 498 859 1490 1760 2730 5450
2021-01-15 09:45 3.68 1010 14300 (1937) 254 (1957) 1430 335 390 464 498 859 1490 1760 2730 5450
2021-01-15 08:45 3.69 1010 14300 (1937) 254 (1957) 1430 335 390 464 498 859 1490 1760 2730 5450
2021-01-15 07:45 3.70 1020 14300 (1937) 254 (1957) 1430 335 390 464 498 859 1490 1760 2730 5450
2021-01-15 06:45 3.70 1020 14300 (1937) 254 (1957) 1430 335 390 464 498 859 1490 1760 2730 5450
2021-01-15 05:45 3.70 1020 14300 (1937) 254 (1957) 1430 335 390 464 498 859 1490 1760 2730 5450
2021-01-15 04:45 3.70 1020 14300 (1937) 254 (1957) 1430 335 390 464 498 859 1490 1760 2730 5450
2021-01-15 03:45 3.70 1020 14300 (1937) 254 (1957) 1430 335 390 464 498 859 1490 1760 2730 5450
2021-01-15 02:45 3.70 1020 14300 (1937) 254 (1957) 1430 335 390 464 498 859 1490 1760 2730 5450
2021-01-15 01:45 3.71 1030 14300 (1937) 254 (1957) 1430 335 390 464 498 859 1490 1760 2730 5450
2021-01-15 00:45 3.70 1020 14300 (1937) 254 (1957) 1430 335 390 464 498 859 1490 1760 2730 5450
2021-01-14 23:45 3.70 1020 8850 (1930) 254 (1957) 1430 336 368 480 509 863 1500 1870 3120 5980
2021-01-14 22:45 3.71 1030 8850 (1930) 254 (1957) 1430 336 368 480 509 863 1500 1870 3120 5980
2021-01-14 21:45 3.70 1020 8850 (1930) 254 (1957) 1430 336 368 480 509 863 1500 1870 3120 5980
2021-01-14 20:45 3.70 1020 8850 (1930) 254 (1957) 1430 336 368 480 509 863 1500 1870 3120 5980
2021-01-14 19:45 3.70 1020 8850 (1930) 254 (1957) 1430 336 368 480 509 863 1500 1870 3120 5980
2021-01-14 18:45 3.71 1030 8850 (1930) 254 (1957) 1430 336 368 480 509 863 1500 1870 3120 5980
2021-01-14 17:45 3.70 1020 8850 (1930) 254 (1957) 1430 336 368 480 509 863 1500 1870 3120 5980
2021-01-14 16:45 3.66 992 8850 (1930) 254 (1957) 1430 336 368 480 509 863 1500 1870 3120 5980
2021-01-14 15:45 3.66 992 8850 (1930) 254 (1957) 1430 336 368 480 509 863 1500 1870 3120 5980
2021-01-14 14:45 3.70 1020 8850 (1930) 254 (1957) 1430 336 368 480 509 863 1500 1870 3120 5980
2021-01-14 13:45 3.70 1020 8850 (1930) 254 (1957) 1430 336 368 480 509 863 1500 1870 3120 5980
2021-01-14 12:45 3.66 992 8850 (1930) 254 (1957) 1430 336 368 480 509 863 1500 1870 3120 5980
2021-01-14 11:45 3.70 1020 8850 (1930) 254 (1957) 1430 336 368 480 509 863 1500 1870 3120 5980
2021-01-14 10:45 3.70 1020 8850 (1930) 254 (1957) 1430 336 368 480 509 863 1500 1870 3120 5980
2021-01-14 09:45 3.70 1020 8850 (1930) 254 (1957) 1430 336 368 480 509 863 1500 1870 3120 5980
2021-01-14 08:45 3.68 1010 8850 (1930) 254 (1957) 1430 336 368 480 509 863 1500 1870 3120 5980
2021-01-14 07:45 3.71 1030 8850 (1930) 254 (1957) 1430 336 368 480 509 863 1500 1870 3120 5980
2021-01-14 06:45 3.71 1030 8850 (1930) 254 (1957) 1430 336 368 480 509 863 1500 1870 3120 5980
2021-01-14 05:45 3.71 1030 8850 (1930) 254 (1957) 1430 336 368 480 509 863 1500 1870 3120 5980
2021-01-14 04:45 3.71 1030 8850 (1930) 254 (1957) 1430 336 368 480 509 863 1500 1870 3120 5980
2021-01-14 03:45 3.71 1030 8850 (1930) 254 (1957) 1430 336 368 480 509 863 1500 1870 3120 5980
2021-01-14 02:45 3.71 1030 8850 (1930) 254 (1957) 1430 336 368 480 509 863 1500 1870 3120 5980
2021-01-14 01:45 3.71 1030 8850 (1930) 254 (1957) 1430 336 368 480 509 863 1500 1870 3120 5980
2021-01-14 00:45 3.71 1030 8850 (1930) 254 (1957) 1430 336 368 480 509 863 1500 1870 3120 5980
2021-01-13 23:45 3.71 1030 7540 (1930) 254 (1957) 1260 336 366 487 508 874 1440 1830 2260 4190
2021-01-13 22:45 3.71 1030 7540 (1930) 254 (1957) 1260 336 366 487 508 874 1440 1830 2260 4190
2021-01-13 21:45 3.71 1030 7540 (1930) 254 (1957) 1260 336 366 487 508 874 1440 1830 2260 4190
2021-01-13 20:45 3.71 1030 7540 (1930) 254 (1957) 1260 336 366 487 508 874 1440 1830 2260 4190
2021-01-13 19:45 3.71 1030 7540 (1930) 254 (1957) 1260 336 366 487 508 874 1440 1830 2260 4190
2021-01-13 18:45 3.70 1020 7540 (1930) 254 (1957) 1260 336 366 487 508 874 1440 1830 2260 4190
2021-01-13 17:45 3.71 1030 7540 (1930) 254 (1957) 1260 336 366 487 508 874 1440 1830 2260 4190
2021-01-13 16:45 3.71 1030 7540 (1930) 254 (1957) 1260 336 366 487 508 874 1440 1830 2260 4190
2021-01-13 15:45 3.71 1030 7540 (1930) 254 (1957) 1260 336 366 487 508 874 1440 1830 2260 4190
2021-01-13 14:45 3.72 1030 7540 (1930) 254 (1957) 1260 336 366 487 508 874 1440 1830 2260 4190
2021-01-13 13:45 3.71 1030 7540 (1930) 254 (1957) 1260 336 366 487 508 874 1440 1830 2260 4190
2021-01-13 12:45 3.72 1030 7540 (1930) 254 (1957) 1260 336 366 487 508 874 1440 1830 2260 4190
2021-01-13 11:45 3.71 1030 7540 (1930) 254 (1957) 1260 336 366 487 508 874 1440 1830 2260 4190
2021-01-13 10:45 3.70 1020 7540 (1930) 254 (1957) 1260 336 366 487 508 874 1440 1830 2260 4190
2021-01-13 09:45 3.72 1030 7540 (1930) 254 (1957) 1260 336 366 487 508 874 1440 1830 2260 4190
2021-01-13 08:45 3.71 1030 7540 (1930) 254 (1957) 1260 336 366 487 508 874 1440 1830 2260 4190
2021-01-13 07:45 3.72 1030 7540 (1930) 254 (1957) 1260 336 366 487 508 874 1440 1830 2260 4190
2021-01-13 06:45 3.72 1030 7540 (1930) 254 (1957) 1260 336 366 487 508 874 1440 1830 2260 4190
2021-01-13 05:45 3.72 1030 7540 (1930) 254 (1957) 1260 336 366 487 508 874 1440 1830 2260 4190
2021-01-13 04:45 3.73 1040 7540 (1930) 254 (1957) 1260 336 366 487 508 874 1440 1830 2260 4190
2021-01-13 03:45 3.73 1040 7540 (1930) 254 (1957) 1260 336 366 487 508 874 1440 1830 2260 4190
2021-01-13 02:45 3.73 1040 7540 (1930) 254 (1957) 1260 336 366 487 508 874 1440 1830 2260 4190
2021-01-13 01:45 3.72 1030 7540 (1930) 254 (1957) 1260 336 366 487 508 874 1440 1830 2260 4190
2021-01-13 00:45 3.73 1040 7540 (1930) 254 (1957) 1260 336 366 487 508 874 1440 1830 2260 4190
2021-01-12 23:45 3.73 1040 9150 (2020) 258 (1956) 1160 336 370 499 520 872 1450 1580 2320 3120
2021-01-12 22:45 3.73 1040 9150 (2020) 258 (1956) 1160 336 370 499 520 872 1450 1580 2320 3120
2021-01-12 21:45 3.73 1040 9150 (2020) 258 (1956) 1160 336 370 499 520 872 1450 1580 2320 3120
2021-01-12 20:45 3.73 1040 9150 (2020) 258 (1956) 1160 336 370 499 520 872 1450 1580 2320 3120
2021-01-12 19:45 3.72 1030 9150 (2020) 258 (1956) 1160 336 370 499 520 872 1450 1580 2320 3120
2021-01-12 18:45 3.73 1040 9150 (2020) 258 (1956) 1160 336 370 499 520 872 1450 1580 2320 3120
2021-01-12 17:45 3.73 1040 9150 (2020) 258 (1956) 1160 336 370 499 520 872 1450 1580 2320 3120
2021-01-12 16:45 3.73 1040 9150 (2020) 258 (1956) 1160 336 370 499 520 872 1450 1580 2320 3120
2021-01-12 15:45 3.74 1050 9150 (2020) 258 (1956) 1160 336 370 499 520 872 1450 1580 2320 3120
2021-01-12 14:45 3.73 1040 9150 (2020) 258 (1956) 1160 336 370 499 520 872 1450 1580 2320 3120
2021-01-12 13:45 3.73 1040 9150 (2020) 258 (1956) 1160 336 370 499 520 872 1450 1580 2320 3120
2021-01-12 12:45 3.74 1050 9150 (2020) 258 (1956) 1160 336 370 499 520 872 1450 1580 2320 3120
2021-01-12 11:45 3.73 1040 9150 (2020) 258 (1956) 1160 336 370 499 520 872 1450 1580 2320 3120
2021-01-12 10:45 3.73 1040 9150 (2020) 258 (1956) 1160 336 370 499 520 872 1450 1580 2320 3120
2021-01-12 09:45 3.73 1040 9150 (2020) 258 (1956) 1160 336 370 499 520 872 1450 1580 2320 3120
2021-01-12 08:45 3.74 1050 9150 (2020) 258 (1956) 1160 336 370 499 520 872 1450 1580 2320 3120
2021-01-12 07:45 3.74 1050 9150 (2020) 258 (1956) 1160 336 370 499 520 872 1450 1580 2320 3120
2021-01-12 06:45 3.74 1050 9150 (2020) 258 (1956) 1160 336 370 499 520 872 1450 1580 2320 3120
2021-01-12 05:45 3.75 1050 9150 (2020) 258 (1956) 1160 336 370 499 520 872 1450 1580 2320 3120
2021-01-12 04:45 3.75 1050 9150 (2020) 258 (1956) 1160 336 370 499 520 872 1450 1580 2320 3120
2021-01-12 03:45 3.75 1050 9150 (2020) 258 (1956) 1160 336 370 499 520 872 1450 1580 2320 3120
2021-01-12 02:45 3.75 1050 9150 (2020) 258 (1956) 1160 336 370 499 520 872 1450 1580 2320 3120
2021-01-12 01:45 3.75 1050 9150 (2020) 258 (1956) 1160 336 370 499 520 872 1450 1580 2320 3120
2021-01-12 00:45 3.75 1050 9150 (2020) 258 (1956) 1160 336 370 499 520 872 1450 1580 2320 3120
2021-01-11 23:45 3.75 1050 10200 (2020) 258 (1956) 1210 335 366 493 515 900 1480 1650 2330 3400
2021-01-11 22:45 3.75 1050 10200 (2020) 258 (1956) 1210 335 366 493 515 900 1480 1650 2330 3400
2021-01-11 21:45 3.75 1050 10200 (2020) 258 (1956) 1210 335 366 493 515 900 1480 1650 2330 3400
2021-01-11 20:45 3.75 1050 10200 (2020) 258 (1956) 1210 335 366 493 515 900 1480 1650 2330 3400
2021-01-11 19:45 3.75 1050 10200 (2020) 258 (1956) 1210 335 366 493 515 900 1480 1650 2330 3400
2021-01-11 18:45 3.76 1060 10200 (2020) 258 (1956) 1210 335 366 493 515 900 1480 1650 2330 3400
2021-01-11 17:45 3.76 1060 10200 (2020) 258 (1956) 1210 335 366 493 515 900 1480 1650 2330 3400
2021-01-11 16:45 3.76 1060 10200 (2020) 258 (1956) 1210 335 366 493 515 900 1480 1650 2330 3400
2021-01-11 15:45 3.76 1060 10200 (2020) 258 (1956) 1210 335 366 493 515 900 1480 1650 2330 3400
2021-01-11 14:45 3.76 1060 10200 (2020) 258 (1956) 1210 335 366 493 515 900 1480 1650 2330 3400
2021-01-11 13:45 3.76 1060 10200 (2020) 258 (1956) 1210 335 366 493 515 900 1480 1650 2330 3400
2021-01-11 12:45 3.77 1070 10200 (2020) 258 (1956) 1210 335 366 493 515 900 1480 1650 2330 3400
2021-01-11 11:45 3.77 1070 10200 (2020) 258 (1956) 1210 335 366 493 515 900 1480 1650 2330 3400
2021-01-11 10:45 3.77 1070 10200 (2020) 258 (1956) 1210 335 366 493 515 900 1480 1650 2330 3400
2021-01-11 09:45 3.77 1070 10200 (2020) 258 (1956) 1210 335 366 493 515 900 1480 1650 2330 3400
2021-01-11 08:45 3.77 1070 10200 (2020) 258 (1956) 1210 335 366 493 515 900 1480 1650 2330 3400
2021-01-11 07:45 3.77 1070 10200 (2020) 258 (1956) 1210 335 366 493 515 900 1480 1650 2330 3400
2021-01-11 06:45 3.78 1070 10200 (2020) 258 (1956) 1210 335 366 493 515 900 1480 1650 2330 3400
2021-01-11 05:45 3.78 1070 10200 (2020) 258 (1956) 1210 335 366 493 515 900 1480 1650 2330 3400
2021-01-11 04:45 3.78 1070 10200 (2020) 258 (1956) 1210 335 366 493 515 900 1480 1650 2330 3400
2021-01-11 03:45 3.78 1070 10200 (2020) 258 (1956) 1210 335 366 493 515 900 1480 1650 2330 3400
2021-01-11 02:45 3.78 1070 10200 (2020) 258 (1956) 1210 335 366 493 515 900 1480 1650 2330 3400
2021-01-11 01:45 3.79 1080 10200 (2020) 258 (1956) 1210 335 366 493 515 900 1480 1650 2330 3400
2021-01-11 00:45 3.78 1070 10200 (2020) 258 (1956) 1210 335 366 493 515 900 1480 1650 2330 3400
2021-01-10 23:45 3.78 1070 5790 (1950) 258 (1956) 1130 338 377 507 520 921 1470 1570 2400 2820
2021-01-10 22:45 3.78 1070 5790 (1950) 258 (1956) 1130 338 377 507 520 921 1470 1570 2400 2820
2021-01-10 21:45 3.79 1080 5790 (1950) 258 (1956) 1130 338 377 507 520 921 1470 1570 2400 2820
2021-01-10 20:45 3.79 1080 5790 (1950) 258 (1956) 1130 338 377 507 520 921 1470 1570 2400 2820
2021-01-10 19:45 3.79 1080 5790 (1950) 258 (1956) 1130 338 377 507 520 921 1470 1570 2400 2820
2021-01-10 18:45 3.79 1080 5790 (1950) 258 (1956) 1130 338 377 507 520 921 1470 1570 2400 2820
2021-01-10 17:45 3.80 1090 5790 (1950) 258 (1956) 1130 338 377 507 520 921 1470 1570 2400 2820
2021-01-10 16:45 3.80 1090 5790 (1950) 258 (1956) 1130 338 377 507 520 921 1470 1570 2400 2820
2021-01-10 15:45 3.80 1090 5790 (1950) 258 (1956) 1130 338 377 507 520 921 1470 1570 2400 2820
2021-01-10 14:45 3.80 1090 5790 (1950) 258 (1956) 1130 338 377 507 520 921 1470 1570 2400 2820
2021-01-10 13:45 3.81 1090 5790 (1950) 258 (1956) 1130 338 377 507 520 921 1470 1570 2400 2820
2021-01-10 12:45 3.80 1090 5790 (1950) 258 (1956) 1130 338 377 507 520 921 1470 1570 2400 2820
2021-01-10 11:45 3.81 1090 5790 (1950) 258 (1956) 1130 338 377 507 520 921 1470 1570 2400 2820
2021-01-10 10:45 3.81 1090 5790 (1950) 258 (1956) 1130 338 377 507 520 921 1470 1570 2400 2820
2021-01-10 09:45 3.81 1090 5790 (1950) 258 (1956) 1130 338 377 507 520 921 1470 1570 2400 2820
2021-01-10 08:45 3.81 1090 5790 (1950) 258 (1956) 1130 338 377 507 520 921 1470 1570 2400 2820
2021-01-10 07:45 3.81 1090 5790 (1950) 258 (1956) 1130 338 377 507 520 921 1470 1570 2400 2820
2021-01-10 06:45 3.81 1090 5790 (1950) 258 (1956) 1130 338 377 507 520 921 1470 1570 2400 2820
2021-01-10 05:45 3.81 1090 5790 (1950) 258 (1956) 1130 338 377 507 520 921 1470 1570 2400 2820
2021-01-10 04:45 3.81 1090 5790 (1950) 258 (1956) 1130 338 377 507 520 921 1470 1570 2400 2820
2021-01-10 03:45 3.82 1100 5790 (1950) 258 (1956) 1130 338 377 507 520 921 1470 1570 2400 2820
2021-01-10 02:45 3.82 1100 5790 (1950) 258 (1956) 1130 338 377 507 520 921 1470 1570 2400 2820
2021-01-10 01:45 3.82 1100 5790 (1950) 258 (1956) 1130 338 377 507 520 921 1470 1570 2400 2820
2021-01-10 00:45 3.82 1100 5790 (1950) 258 (1956) 1130 338 377 507 520 921 1470 1570 2400 2820
2021-01-09 23:45 3.83 1110 7410 (1946) 258 (1956) 1140 340 362 509 515 983 1300 1660 2370 2750
2021-01-09 22:45 3.83 1110 7410 (1946) 258 (1956) 1140 340 362 509 515 983 1300 1660 2370 2750
2021-01-09 20:45 3.83 1110 7410 (1946) 258 (1956) 1140 340 362 509 515 983 1300 1660 2370 2750
2021-01-09 19:45 3.84 1110 7410 (1946) 258 (1956) 1140 340 362 509 515 983 1300 1660 2370 2750
2021-01-09 18:45 3.84 1110 7410 (1946) 258 (1956) 1140 340 362 509 515 983 1300 1660 2370 2750
2021-01-09 17:45 3.84 1110 7410 (1946) 258 (1956) 1140 340 362 509 515 983 1300 1660 2370 2750
2021-01-09 16:45 3.84 1110 7410 (1946) 258 (1956) 1140 340 362 509 515 983 1300 1660 2370 2750
2021-01-09 15:45 3.85 1120 7410 (1946) 258 (1956) 1140 340 362 509 515 983 1300 1660 2370 2750
2021-01-09 14:45 3.85 1120 7410 (1946) 258 (1956) 1140 340 362 509 515 983 1300 1660 2370 2750
2021-01-09 13:45 3.85 1120 7410 (1946) 258 (1956) 1140 340 362 509 515 983 1300 1660 2370 2750
2021-01-09 12:45 3.85 1120 7410 (1946) 258 (1956) 1140 340 362 509 515 983 1300 1660 2370 2750
2021-01-09 11:45 3.85 1120 7410 (1946) 258 (1956) 1140 340 362 509 515 983 1300 1660 2370 2750
2021-01-09 10:45 3.86 1130 7410 (1946) 258 (1956) 1140 340 362 509 515 983 1300 1660 2370 2750
2021-01-09 09:45 3.86 1130 7410 (1946) 258 (1956) 1140 340 362 509 515 983 1300 1660 2370 2750
2021-01-09 08:45 3.86 1130 7410 (1946) 258 (1956) 1140 340 362 509 515 983 1300 1660 2370 2750
2021-01-09 07:45 3.86 1130 7410 (1946) 258 (1956) 1140 340 362 509 515 983 1300 1660 2370 2750
2021-01-09 06:45 3.86 1130 7410 (1946) 258 (1956) 1140 340 362 509 515 983 1300 1660 2370 2750
2021-01-09 05:45 3.87 1130 7410 (1946) 258 (1956) 1140 340 362 509 515 983 1300 1660 2370 2750
2021-01-09 04:45 3.87 1130 7410 (1946) 258 (1956) 1140 340 362 509 515 983 1300 1660 2370 2750
2021-01-09 03:45 3.88 1140 7410 (1946) 258 (1956) 1140 340 362 509 515 983 1300 1660 2370 2750
2021-01-09 02:45 3.88 1140 7410 (1946) 258 (1956) 1140 340 362 509 515 983 1300 1660 2370 2750
2021-01-09 01:45 3.88 1140 7410 (1946) 258 (1956) 1140 340 362 509 515 983 1300 1660 2370 2750
2021-01-09 00:45 3.88 1140 7410 (1946) 258 (1956) 1140 340 362 509 515 983 1300 1660 2370 2750
2021-01-08 23:45 3.88 1140 3690 (1950) 262 (1956) 1100 332 353 508 525 983 1400 1720 2220 2850
2021-01-08 22:45 3.89 1150 3690 (1950) 262 (1956) 1100 332 353 508 525 983 1400 1720 2220 2850
2021-01-08 21:45 3.89 1150 3690 (1950) 262 (1956) 1100 332 353 508 525 983 1400 1720 2220 2850
2021-01-08 20:45 3.89 1150 3690 (1950) 262 (1956) 1100 332 353 508 525 983 1400 1720 2220 2850
2021-01-08 19:45 3.89 1150 3690 (1950) 262 (1956) 1100 332 353 508 525 983 1400 1720 2220 2850
2021-01-08 18:45 3.89 1150 3690 (1950) 262 (1956) 1100 332 353 508 525 983 1400 1720 2220 2850
2021-01-08 17:45 3.90 1160 3690 (1950) 262 (1956) 1100 332 353 508 525 983 1400 1720 2220 2850
2021-01-08 16:45 3.91 1160 3690 (1950) 262 (1956) 1100 332 353 508 525 983 1400 1720 2220 2850
2021-01-08 15:45 3.91 1160 3690 (1950) 262 (1956) 1100 332 353 508 525 983 1400 1720 2220 2850
2021-01-08 14:45 3.91 1160 3690 (1950) 262 (1956) 1100 332 353 508 525 983 1400 1720 2220 2850
2021-01-08 13:45 3.90 1160 3690 (1950) 262 (1956) 1100 332 353 508 525 983 1400 1720 2220 2850
2021-01-08 12:45 3.91 1160 3690 (1950) 262 (1956) 1100 332 353 508 525 983 1400 1720 2220 2850
2021-01-08 11:45 3.91 1160 3690 (1950) 262 (1956) 1100 332 353 508 525 983 1400 1720 2220 2850
2021-01-08 10:45 3.91 1160 3690 (1950) 262 (1956) 1100 332 353 508 525 983 1400 1720 2220 2850
2021-01-08 09:45 3.91 1160 3690 (1950) 262 (1956) 1100 332 353 508 525 983 1400 1720 2220 2850
2021-01-08 08:45 3.92 1170 3690 (1950) 262 (1956) 1100 332 353 508 525 983 1400 1720 2220 2850
2021-01-08 07:45 3.92 1170 3690 (1950) 262 (1956) 1100 332 353 508 525 983 1400 1720 2220 2850
2021-01-08 06:45 3.92 1170 3690 (1950) 262 (1956) 1100 332 353 508 525 983 1400 1720 2220 2850
2021-01-08 05:45 3.93 1180 3690 (1950) 262 (1956) 1100 332 353 508 525 983 1400 1720 2220 2850
2021-01-08 04:45 3.93 1180 3690 (1950) 262 (1956) 1100 332 353 508 525 983 1400 1720 2220 2850
2021-01-08 03:45 3.94 1180 3690 (1950) 262 (1956) 1100 332 353 508 525 983 1400 1720 2220 2850
2021-01-08 02:45 3.94 1180 3690 (1950) 262 (1956) 1100 332 353 508 525 983 1400 1720 2220 2850
2021-01-08 01:45 3.94 1180 3690 (1950) 262 (1956) 1100 332 353 508 525 983 1400 1720 2220 2850
2021-01-08 00:45 3.94 1180 3690 (1950) 262 (1956) 1100 332 353 508 525 983 1400 1720 2220 2850
2021-01-07 23:45 3.95 1190 4800 (1930) 262 (1956) 1190 331 356 501 520 917 1430 1710 2460 3270
2021-01-07 22:45 3.95 1190 4800 (1930) 262 (1956) 1190 331 356 501 520 917 1430 1710 2460 3270
2021-01-07 21:45 3.95 1190 4800 (1930) 262 (1956) 1190 331 356 501 520 917 1430 1710 2460 3270
2021-01-07 20:45 3.95 1190 4800 (1930) 262 (1956) 1190 331 356 501 520 917 1430 1710 2460 3270
2021-01-07 19:45 3.95 1190 4800 (1930) 262 (1956) 1190 331 356 501 520 917 1430 1710 2460 3270
2021-01-07 18:45 3.95 1190 4800 (1930) 262 (1956) 1190 331 356 501 520 917 1430 1710 2460 3270
2021-01-07 17:45 3.95 1190 4800 (1930) 262 (1956) 1190 331 356 501 520 917 1430 1710 2460 3270
2021-01-07 16:45 3.96 1200 4800 (1930) 262 (1956) 1190 331 356 501 520 917 1430 1710 2460 3270
2021-01-07 15:45 3.96 1200 4800 (1930) 262 (1956) 1190 331 356 501 520 917 1430 1710 2460 3270
2021-01-07 14:45 3.96 1200 4800 (1930) 262 (1956) 1190 331 356 501 520 917 1430 1710 2460 3270
2021-01-07 13:45 3.96 1200 4800 (1930) 262 (1956) 1190 331 356 501 520 917 1430 1710 2460 3270
2021-01-07 12:45 3.96 1200 4800 (1930) 262 (1956) 1190 331 356 501 520 917 1430 1710 2460 3270
2021-01-07 11:45 3.96 1200 4800 (1930) 262 (1956) 1190 331 356 501 520 917 1430 1710 2460 3270
2021-01-07 10:45 3.96 1200 4800 (1930) 262 (1956) 1190 331 356 501 520 917 1430 1710 2460 3270
2021-01-07 09:45 3.97 1200 4800 (1930) 262 (1956) 1190 331 356 501 520 917 1430 1710 2460 3270
2021-01-07 08:45 3.96 1200 4800 (1930) 262 (1956) 1190 331 356 501 520 917 1430 1710 2460 3270
2021-01-07 07:45 3.97 1200 4800 (1930) 262 (1956) 1190 331 356 501 520 917 1430 1710 2460 3270
2021-01-07 06:45 3.97 1200 4800 (1930) 262 (1956) 1190 331 356 501 520 917 1430 1710 2460 3270
2021-01-07 05:45 3.98 1210 4800 (1930) 262 (1956) 1190 331 356 501 520 917 1430 1710 2460 3270
2021-01-07 04:45 3.97 1200 4800 (1930) 262 (1956) 1190 331 356 501 520 917 1430 1710 2460 3270
2021-01-07 03:45 3.98 1210 4800 (1930) 262 (1956) 1190 331 356 501 520 917 1430 1710 2460 3270
2021-01-07 02:45 3.97 1200 4800 (1930) 262 (1956) 1190 331 356 501 520 917 1430 1710 2460 3270
2021-01-07 01:45 3.98 1210 4800 (1930) 262 (1956) 1190 331 356 501 520 917 1430 1710 2460 3270
2021-01-07 00:45 3.98 1210 4800 (1930) 262 (1956) 1190 331 356 501 520 917 1430 1710 2460 3270
2021-01-06 23:45 3.98 1210 10700 (1950) 262 (1956) 1310 335 359 500 542 926 1380 1720 2610 3390
2021-01-06 22:45 3.99 1220 10700 (1950) 262 (1956) 1310 335 359 500 542 926 1380 1720 2610 3390
2021-01-06 21:45 3.99 1220 10700 (1950) 262 (1956) 1310 335 359 500 542 926 1380 1720 2610 3390
2021-01-06 20:45 3.99 1220 10700 (1950) 262 (1956) 1310 335 359 500 542 926 1380 1720 2610 3390
2021-01-06 19:45 3.99 1220 10700 (1950) 262 (1956) 1310 335 359 500 542 926 1380 1720 2610 3390
2021-01-06 18:45 3.99 1220 10700 (1950) 262 (1956) 1310 335 359 500 542 926 1380 1720 2610 3390
2021-01-06 17:45 4.00 1230 10700 (1950) 262 (1956) 1310 335 359 500 542 926 1380 1720 2610 3390
2021-01-06 16:45 4.00 1230 10700 (1950) 262 (1956) 1310 335 359 500 542 926 1380 1720 2610 3390
2021-01-06 15:45 4.00 1230 10700 (1950) 262 (1956) 1310 335 359 500 542 926 1380 1720 2610 3390
2021-01-06 14:45 4.01 1230 10700 (1950) 262 (1956) 1310 335 359 500 542 926 1380 1720 2610 3390
2021-01-06 13:45 4.02 1240 10700 (1950) 262 (1956) 1310 335 359 500 542 926 1380 1720 2610 3390
2021-01-06 12:45 3.98 1210 10700 (1950) 262 (1956) 1310 335 359 500 542 926 1380 1720 2610 3390
2021-01-06 11:45 4.00 1230 10700 (1950) 262 (1956) 1310 335 359 500 542 926 1380 1720 2610 3390
2021-01-06 10:45 4.02 1240 10700 (1950) 262 (1956) 1310 335 359 500 542 926 1380 1720 2610 3390
2021-01-06 09:45 4.02 1240 10700 (1950) 262 (1956) 1310 335 359 500 542 926 1380 1720 2610 3390
2021-01-06 08:45 4.02 1240 10700 (1950) 262 (1956) 1310 335 359 500 542 926 1380 1720 2610 3390
2021-01-06 07:45 4.03 1250 10700 (1950) 262 (1956) 1310 335 359 500 542 926 1380 1720 2610 3390
2021-01-06 06:45 4.04 1250 10700 (1950) 262 (1956) 1310 335 359 500 542 926 1380 1720 2610 3390
2021-01-06 05:45 4.05 1260 10700 (1950) 262 (1956) 1310 335 359 500 542 926 1380 1720 2610 3390
2021-01-06 04:45 4.05 1260 10700 (1950) 262 (1956) 1310 335 359 500 542 926 1380 1720 2610 3390
2021-01-06 03:45 4.05 1260 10700 (1950) 262 (1956) 1310 335 359 500 542 926 1380 1720 2610 3390
2021-01-06 02:45 4.05 1260 10700 (1950) 262 (1956) 1310 335 359 500 542 926 1380 1720 2610 3390
2021-01-06 01:45 4.07 1280 10700 (1950) 262 (1956) 1310 335 359 500 542 926 1380 1720 2610 3390
2021-01-06 00:45 4.07 1280 10700 (1950) 262 (1956) 1310 335 359 500 542 926 1380 1720 2610 3390
2021-01-05 23:45 4.08 1280 18100 (1950) 266 (1956) 1540 336 359 504 553 970 1470 1810 2700 4160
2021-01-05 22:45 4.07 1280 18100 (1950) 266 (1956) 1540 336 359 504 553 970 1470 1810 2700 4160
2021-01-05 21:45 4.07 1280 18100 (1950) 266 (1956) 1540 336 359 504 553 970 1470 1810 2700 4160
2021-01-05 20:45 4.08 1280 18100 (1950) 266 (1956) 1540 336 359 504 553 970 1470 1810 2700 4160
2021-01-05 19:45 4.08 1280 18100 (1950) 266 (1956) 1540 336 359 504 553 970 1470 1810 2700 4160
2021-01-05 18:45 4.08 1280 18100 (1950) 266 (1956) 1540 336 359 504 553 970 1470 1810 2700 4160
2021-01-05 17:45 4.09 1290 18100 (1950) 266 (1956) 1540 336 359 504 553 970 1470 1810 2700 4160
2021-01-05 16:45 4.09 1290 18100 (1950) 266 (1956) 1540 336 359 504 553 970 1470 1810 2700 4160
2021-01-05 15:45 4.10 1300 18100 (1950) 266 (1956) 1540 336 359 504 553 970 1470 1810 2700 4160
2021-01-05 14:45 4.07 1280 18100 (1950) 266 (1956) 1540 336 359 504 553 970 1470 1810 2700 4160
2021-01-05 13:45 4.10 1300 18100 (1950) 266 (1956) 1540 336 359 504 553 970 1470 1810 2700 4160
2021-01-05 12:45 4.11 1300 18100 (1950) 266 (1956) 1540 336 359 504 553 970 1470 1810 2700 4160
2021-01-05 11:45 4.11 1300 18100 (1950) 266 (1956) 1540 336 359 504 553 970 1470 1810 2700 4160
2021-01-05 10:45 4.12 1310 18100 (1950) 266 (1956) 1540 336 359 504 553 970 1470 1810 2700 4160
2021-01-05 09:45 4.11 1300 18100 (1950) 266 (1956) 1540 336 359 504 553 970 1470 1810 2700 4160
2021-01-05 08:45 4.11 1300 18100 (1950) 266 (1956) 1540 336 359 504 553 970 1470 1810 2700 4160
2021-01-05 07:45 4.14 1330 18100 (1950) 266 (1956) 1540 336 359 504 553 970 1470 1810 2700 4160
2021-01-05 06:45 4.14 1330 18100 (1950) 266 (1956) 1540 336 359 504 553 970 1470 1810 2700 4160
2021-01-05 05:45 4.14 1330 18100 (1950) 266 (1956) 1540 336 359 504 553 970 1470 1810 2700 4160
2021-01-05 04:45 4.14 1330 18100 (1950) 266 (1956) 1540 336 359 504 553 970 1470 1810 2700 4160
2021-01-05 03:45 4.16 1340 18100 (1950) 266 (1956) 1540 336 359 504 553 970 1470 1810 2700 4160
2021-01-05 02:45 4.16 1340 18100 (1950) 266 (1956) 1540 336 359 504 553 970 1470 1810 2700 4160
2021-01-05 01:45 4.16 1340 18100 (1950) 266 (1956) 1540 336 359 504 553 970 1470 1810 2700 4160
2021-01-05 00:45 4.17 1350 18100 (1950) 266 (1956) 1540 336 359 504 553 970 1470 1810 2700 4160
2021-01-04 23:45 4.17 1350 13800 (1950) 266 (1956) 1440 341 367 512 541 1020 1620 1850 2580 5520
2021-01-04 22:45 4.17 1350 13800 (1950) 266 (1956) 1440 341 367 512 541 1020 1620 1850 2580 5520
2021-01-04 21:45 4.18 1360 13800 (1950) 266 (1956) 1440 341 367 512 541 1020 1620 1850 2580 5520
2021-01-04 20:45 4.18 1360 13800 (1950) 266 (1956) 1440 341 367 512 541 1020 1620 1850 2580 5520
2021-01-04 19:45 4.19 1360 13800 (1950) 266 (1956) 1440 341 367 512 541 1020 1620 1850 2580 5520
2021-01-04 18:45 4.18 1360 13800 (1950) 266 (1956) 1440 341 367 512 541 1020 1620 1850 2580 5520
2021-01-04 17:45 4.19 1360 13800 (1950) 266 (1956) 1440 341 367 512 541 1020 1620 1850 2580 5520
2021-01-04 16:45 4.20 1370 13800 (1950) 266 (1956) 1440 341 367 512 541 1020 1620 1850 2580 5520
2021-01-04 15:45 4.20 1370 13800 (1950) 266 (1956) 1440 341 367 512 541 1020 1620 1850 2580 5520
2021-01-04 14:45 4.19 1360 13800 (1950) 266 (1956) 1440 341 367 512 541 1020 1620 1850 2580 5520
2021-01-04 13:45 4.19 1360 13800 (1950) 266 (1956) 1440 341 367 512 541 1020 1620 1850 2580 5520
2021-01-04 12:45 4.22 1380 13800 (1950) 266 (1956) 1440 341 367 512 541 1020 1620 1850 2580 5520
2021-01-04 11:45 4.22 1380 13800 (1950) 266 (1956) 1440 341 367 512 541 1020 1620 1850 2580 5520
2021-01-04 10:45 4.23 1390 13800 (1950) 266 (1956) 1440 341 367 512 541 1020 1620 1850 2580 5520
2021-01-04 09:45 4.23 1390 13800 (1950) 266 (1956) 1440 341 367 512 541 1020 1620 1850 2580 5520
2021-01-04 08:45 4.24 1400 13800 (1950) 266 (1956) 1440 341 367 512 541 1020 1620 1850 2580 5520
2021-01-04 07:45 4.24 1400 13800 (1950) 266 (1956) 1440 341 367 512 541 1020 1620 1850 2580 5520
2021-01-04 06:45 4.24 1400 13800 (1950) 266 (1956) 1440 341 367 512 541 1020 1620 1850 2580 5520
2021-01-04 05:45 4.25 1410 13800 (1950) 266 (1956) 1440 341 367 512 541 1020 1620 1850 2580 5520
2021-01-04 04:45 4.25 1410 13800 (1950) 266 (1956) 1440 341 367 512 541 1020 1620 1850 2580 5520
2021-01-04 03:45 4.26 1410 13800 (1950) 266 (1956) 1440 341 367 512 541 1020 1620 1850 2580 5520
2021-01-04 02:45 4.26 1410 13800 (1950) 266 (1956) 1440 341 367 512 541 1020 1620 1850 2580 5520
2021-01-04 01:45 4.27 1420 13800 (1950) 266 (1956) 1440 341 367 512 541 1020 1620 1850 2580 5520
2021-01-04 00:45 4.28 1430 13800 (1950) 266 (1956) 1440 341 367 512 541 1020 1620 1850 2580 5520
2021-01-03 23:45 4.28 1430 6820 (1966) 266 (1956) 1280 342 376 509 538 1020 1540 1890 2420 3040
2021-01-03 22:45 4.29 1440 6820 (1966) 266 (1956) 1280 342 376 509 538 1020 1540 1890 2420 3040
2021-01-03 21:45 4.29 1440 6820 (1966) 266 (1956) 1280 342 376 509 538 1020 1540 1890 2420 3040
2021-01-03 20:45 4.30 1440 6820 (1966) 266 (1956) 1280 342 376 509 538 1020 1540 1890 2420 3040
2021-01-03 19:45 4.30 1440 6820 (1966) 266 (1956) 1280 342 376 509 538 1020 1540 1890 2420 3040
2021-01-03 18:45 4.31 1450 6820 (1966) 266 (1956) 1280 342 376 509 538 1020 1540 1890 2420 3040
2021-01-03 17:45 4.31 1450 6820 (1966) 266 (1956) 1280 342 376 509 538 1020 1540 1890 2420 3040
2021-01-03 16:45 4.31 1450 6820 (1966) 266 (1956) 1280 342 376 509 538 1020 1540 1890 2420 3040
2021-01-03 15:45 4.30 1440 6820 (1966) 266 (1956) 1280 342 376 509 538 1020 1540 1890 2420 3040
2021-01-03 14:45 4.33 1470 6820 (1966) 266 (1956) 1280 342 376 509 538 1020 1540 1890 2420 3040
2021-01-03 13:45 4.33 1470 6820 (1966) 266 (1956) 1280 342 376 509 538 1020 1540 1890 2420 3040
2021-01-03 12:45 4.33 1470 6820 (1966) 266 (1956) 1280 342 376 509 538 1020 1540 1890 2420 3040
2021-01-03 11:45 4.33 1470 6820 (1966) 266 (1956) 1280 342 376 509 538 1020 1540 1890 2420 3040
2021-01-03 10:45 4.35 1480 6820 (1966) 266 (1956) 1280 342 376 509 538 1020 1540 1890 2420 3040
2021-01-03 09:45 4.36 1490 6820 (1966) 266 (1956) 1280 342 376 509 538 1020 1540 1890 2420 3040
2021-01-03 08:45 4.36 1490 6820 (1966) 266 (1956) 1280 342 376 509 538 1020 1540 1890 2420 3040
2021-01-03 07:45 4.36 1490 6820 (1966) 266 (1956) 1280 342 376 509 538 1020 1540 1890 2420 3040
2021-01-03 06:45 4.37 1500 6820 (1966) 266 (1956) 1280 342 376 509 538 1020 1540 1890 2420 3040
2021-01-03 05:45 4.38 1500 6820 (1966) 266 (1956) 1280 342 376 509 538 1020 1540 1890 2420 3040
2021-01-03 04:45 4.38 1500 6820 (1966) 266 (1956) 1280 342 376 509 538 1020 1540 1890 2420 3040
2021-01-03 03:45 4.39 1510 6820 (1966) 266 (1956) 1280 342 376 509 538 1020 1540 1890 2420 3040
2021-01-03 02:45 4.39 1510 6820 (1966) 266 (1956) 1280 342 376 509 538 1020 1540 1890 2420 3040
2021-01-03 01:45 4.40 1520 6820 (1966) 266 (1956) 1280 342 376 509 538 1020 1540 1890 2420 3040
2021-01-03 00:45 4.41 1530 6820 (1966) 266 (1956) 1280 342 376 509 538 1020 1540 1890 2420 3040
2021-01-02 23:45 4.42 1530 15500 (1966) 270 (1956) 1380 345 368 484 542 917 1450 1720 2450 3280
2021-01-02 22:45 4.42 1530 15500 (1966) 270 (1956) 1380 345 368 484 542 917 1450 1720 2450 3280
2021-01-02 21:45 4.43 1540 15500 (1966) 270 (1956) 1380 345 368 484 542 917 1450 1720 2450 3280
2021-01-02 20:45 4.44 1550 15500 (1966) 270 (1956) 1380 345 368 484 542 917 1450 1720 2450 3280
2021-01-02 19:45 4.44 1550 15500 (1966) 270 (1956) 1380 345 368 484 542 917 1450 1720 2450 3280
2021-01-02 18:45 4.44 1550 15500 (1966) 270 (1956) 1380 345 368 484 542 917 1450 1720 2450 3280
2021-01-02 17:45 4.45 1560 15500 (1966) 270 (1956) 1380 345 368 484 542 917 1450 1720 2450 3280
2021-01-02 16:45 4.44 1550 15500 (1966) 270 (1956) 1380 345 368 484 542 917 1450 1720 2450 3280
2021-01-02 15:45 4.44 1550 15500 (1966) 270 (1956) 1380 345 368 484 542 917 1450 1720 2450 3280
2021-01-02 14:45 4.43 1540 15500 (1966) 270 (1956) 1380 345 368 484 542 917 1450 1720 2450 3280
2021-01-02 13:45 4.42 1530 15500 (1966) 270 (1956) 1380 345 368 484 542 917 1450 1720 2450 3280
2021-01-02 12:45 4.40 1520 15500 (1966) 270 (1956) 1380 345 368 484 542 917 1450 1720 2450 3280
2021-01-02 11:45 4.39 1510 15500 (1966) 270 (1956) 1380 345 368 484 542 917 1450 1720 2450 3280
2021-01-02 10:45 4.38 1500 15500 (1966) 270 (1956) 1380 345 368 484 542 917 1450 1720 2450 3280
2021-01-02 09:45 4.36 1490 15500 (1966) 270 (1956) 1380 345 368 484 542 917 1450 1720 2450 3280
2021-01-02 08:45 4.35 1480 15500 (1966) 270 (1956) 1380 345 368 484 542 917 1450 1720 2450 3280
2021-01-02 07:45 4.36 1490 15500 (1966) 270 (1956) 1380 345 368 484 542 917 1450 1720 2450 3280
2021-01-02 06:45 4.35 1480 15500 (1966) 270 (1956) 1380 345 368 484 542 917 1450 1720 2450 3280
2021-01-02 05:45 4.35 1480 15500 (1966) 270 (1956) 1380 345 368 484 542 917 1450 1720 2450 3280
2021-01-02 04:45 4.35 1480 15500 (1966) 270 (1956) 1380 345 368 484 542 917 1450 1720 2450 3280
2021-01-02 03:45 4.35 1480 15500 (1966) 270 (1956) 1380 345 368 484 542 917 1450 1720 2450 3280
2021-01-02 02:45 4.36 1490 15500 (1966) 270 (1956) 1380 345 368 484 542 917 1450 1720 2450 3280
2021-01-02 01:45 4.36 1490 15500 (1966) 270 (1956) 1380 345 368 484 542 917 1450 1720 2450 3280
2021-01-02 00:45 4.37 1500 15500 (1966) 270 (1956) 1380 345 368 484 542 917 1450 1720 2450 3280
2021-01-01 23:45 4.38 1500 10200 (1966) 266 (1956) 1420 333 354 490 533 936 1520 2080 2880 4510
2021-01-01 22:45 4.40 1520 10200 (1966) 266 (1956) 1420 333 354 490 533 936 1520 2080 2880 4510
2021-01-01 21:45 4.41 1530 10200 (1966) 266 (1956) 1420 333 354 490 533 936 1520 2080 2880 4510
2021-01-01 20:45 4.42 1530 10200 (1966) 266 (1956) 1420 333 354 490 533 936 1520 2080 2880 4510
2021-01-01 19:45 4.44 1550 10200 (1966) 266 (1956) 1420 333 354 490 533 936 1520 2080 2880 4510
2021-01-01 18:45 4.45 1560 10200 (1966) 266 (1956) 1420 333 354 490 533 936 1520 2080 2880 4510
2021-01-01 17:45 4.46 1560 10200 (1966) 266 (1956) 1420 333 354 490 533 936 1520 2080 2880 4510
2021-01-01 16:45 4.51 1600 10200 (1966) 266 (1956) 1420 333 354 490 533 936 1520 2080 2880 4510
2021-01-01 15:45 4.54 1620 10200 (1966) 266 (1956) 1420 333 354 490 533 936 1520 2080 2880 4510
2021-01-01 14:45 4.54 1620 10200 (1966) 266 (1956) 1420 333 354 490 533 936 1520 2080 2880 4510
2021-01-01 13:45 4.49 1590 10200 (1966) 266 (1956) 1420 333 354 490 533 936 1520 2080 2880 4510
2021-01-01 12:45 4.38 1500 10200 (1966) 266 (1956) 1420 333 354 490 533 936 1520 2080 2880 4510
2021-01-01 11:45 4.24 1400 10200 (1966) 266 (1956) 1420 333 354 490 533 936 1520 2080 2880 4510
2021-01-01 10:45 4.09 1290 10200 (1966) 266 (1956) 1420 333 354 490 533 936 1520 2080 2880 4510
2021-01-01 09:45 3.96 1200 10200 (1966) 266 (1956) 1420 333 354 490 533 936 1520 2080 2880 4510
2021-01-01 08:45 3.89 1150 10200 (1966) 266 (1956) 1420 333 354 490 533 936 1520 2080 2880 4510
2021-01-01 07:45 3.84 1110 10200 (1966) 266 (1956) 1420 333 354 490 533 936 1520 2080 2880 4510
2021-01-01 06:45 3.78 1070 10200 (1966) 266 (1956) 1420 333 354 490 533 936 1520 2080 2880 4510
2021-01-01 05:45 3.75 1050 10200 (1966) 266 (1956) 1420 333 354 490 533 936 1520 2080 2880 4510
2021-01-01 04:45 3.72 1030 10200 (1966) 266 (1956) 1420 333 354 490 533 936 1520 2080 2880 4510
2021-01-01 03:45 3.68 1010 10200 (1966) 266 (1956) 1420 333 354 490 533 936 1520 2080 2880 4510
2021-01-01 02:45 3.67 998 10200 (1966) 266 (1956) 1420 333 354 490 533 936 1520 2080 2880 4510
2021-01-01 01:45 3.66 992 10200 (1966) 266 (1956) 1420 333 354 490 533 936 1520 2080 2880 4510
2021-01-01 00:45 3.66 992 10200 (1966) 266 (1956) 1420 333 354 490 533 936 1520 2080 2880 4510
2020-12-31 23:45 3.65 985 6230 (1933) 266 (1956) 1350 333 354 480 513 896 1440 2080 3420 4860
2020-12-31 22:45 3.64 978 6230 (1933) 266 (1956) 1350 333 354 480 513 896 1440 2080 3420 4860
2020-12-31 21:45 3.64 978 6230 (1933) 266 (1956) 1350 333 354 480 513 896 1440 2080 3420 4860
2020-12-31 20:45 3.64 978 6230 (1933) 266 (1956) 1350 333 354 480 513 896 1440 2080 3420 4860
2020-12-31 19:45 3.64 978 6230 (1933) 266 (1956) 1350 333 354 480 513 896 1440 2080 3420 4860
2020-12-31 18:45 3.64 978 6230 (1933) 266 (1956) 1350 333 354 480 513 896 1440 2080 3420 4860
2020-12-31 17:45 3.64 978 6230 (1933) 266 (1956) 1350 333 354 480 513 896 1440 2080 3420 4860
2020-12-31 16:45 3.61 959 6230 (1933) 266 (1956) 1350 333 354 480 513 896 1440 2080 3420 4860
2020-12-31 15:45 3.64 978 6230 (1933) 266 (1956) 1350 333 354 480 513 896 1440 2080 3420 4860
2020-12-31 14:45 3.64 978 6230 (1933) 266 (1956) 1350 333 354 480 513 896 1440 2080 3420 4860
2020-12-31 13:45 3.64 978 6230 (1933) 266 (1956) 1350 333 354 480 513 896 1440 2080 3420 4860
2020-12-31 12:45 3.63 972 6230 (1933) 266 (1956) 1350 333 354 480 513 896 1440 2080 3420 4860
2020-12-31 11:45 3.63 972 6230 (1933) 266 (1956) 1350 333 354 480 513 896 1440 2080 3420 4860
2020-12-31 10:45 3.62 965 6230 (1933) 266 (1956) 1350 333 354 480 513 896 1440 2080 3420 4860
2020-12-31 09:45 3.62 965 6230 (1933) 266 (1956) 1350 333 354 480 513 896 1440 2080 3420 4860
2020-12-31 08:45 3.62 965 6230 (1933) 266 (1956) 1350 333 354 480 513 896 1440 2080 3420 4860
2020-12-31 07:45 3.61 959 6230 (1933) 266 (1956) 1350 333 354 480 513 896 1440 2080 3420 4860
2020-12-31 06:45 3.61 959 6230 (1933) 266 (1956) 1350 333 354 480 513 896 1440 2080 3420 4860
2020-12-31 05:45 3.61 959 6230 (1933) 266 (1956) 1350 333 354 480 513 896 1440 2080 3420 4860
2020-12-31 04:45 3.60 952 6230 (1933) 266 (1956) 1350 333 354 480 513 896 1440 2080 3420 4860
2020-12-31 03:45 3.60 952 6230 (1933) 266 (1956) 1350 333 354 480 513 896 1440 2080 3420 4860
2020-12-31 02:45 3.59 945 6230 (1933) 266 (1956) 1350 333 354 480 513 896 1440 2080 3420 4860
2020-12-31 01:45 3.59 945 6230 (1933) 266 (1956) 1350 333 354 480 513 896 1440 2080 3420 4860
2020-12-31 00:45 3.59 945 6230 (1933) 266 (1956) 1350 333 354 480 513 896 1440 2080 3420 4860
2020-12-30 23:45 3.59 945 12400 (2016) 266 (1956) 1320 334 352 456 493 830 1490 1690 2470 4780
2020-12-30 22:45 3.55 919 12400 (2016) 266 (1956) 1320 334 352 456 493 830 1490 1690 2470 4780
2020-12-30 21:45 3.57 932 12400 (2016) 266 (1956) 1320 334 352 456 493 830 1490 1690 2470 4780
2020-12-30 20:45 3.55 919 12400 (2016) 266 (1956) 1320 334 352 456 493 830 1490 1690 2470 4780
2020-12-30 19:45 3.56 926 12400 (2016) 266 (1956) 1320 334 352 456 493 830 1490 1690 2470 4780
2020-12-30 18:45 3.55 919 12400 (2016) 266 (1956) 1320 334 352 456 493 830 1490 1690 2470 4780
2020-12-30 17:45 3.54 913 12400 (2016) 266 (1956) 1320 334 352 456 493 830 1490 1690 2470 4780
2020-12-30 16:45 3.55 919 12400 (2016) 266 (1956) 1320 334 352 456 493 830 1490 1690 2470 4780
2020-12-30 15:45 3.54 913 12400 (2016) 266 (1956) 1320 334 352 456 493 830 1490 1690 2470 4780
2020-12-30 14:45 3.54 913 12400 (2016) 266 (1956) 1320 334 352 456 493 830 1490 1690 2470 4780
2020-12-30 13:45 3.54 913 12400 (2016) 266 (1956) 1320 334 352 456 493 830 1490 1690 2470 4780
2020-12-30 12:45 3.54 913 12400 (2016) 266 (1956) 1320 334 352 456 493 830 1490 1690 2470 4780
2020-12-30 11:45 3.53 906 12400 (2016) 266 (1956) 1320 334 352 456 493 830 1490 1690 2470 4780
2020-12-30 10:45 3.53 906 12400 (2016) 266 (1956) 1320 334 352 456 493 830 1490 1690 2470 4780
2020-12-30 09:45 3.52 900 12400 (2016) 266 (1956) 1320 334 352 456 493 830 1490 1690 2470 4780
2020-12-30 08:45 3.52 900 12400 (2016) 266 (1956) 1320 334 352 456 493 830 1490 1690 2470 4780
2020-12-30 07:45 3.48 874 12400 (2016) 266 (1956) 1320 334 352 456 493 830 1490 1690 2470 4780
2020-12-30 06:45 3.48 874 12400 (2016) 266 (1956) 1320 334 352 456 493 830 1490 1690 2470 4780
2020-12-30 05:45 3.48 874 12400 (2016) 266 (1956) 1320 334 352 456 493 830 1490 1690 2470 4780
2020-12-30 04:45 3.48 874 12400 (2016) 266 (1956) 1320 334 352 456 493 830 1490 1690 2470 4780
2020-12-30 03:45 3.47 867 12400 (2016) 266 (1956) 1320 334 352 456 493 830 1490 1690 2470 4780
2020-12-30 02:45 3.48 874 12400 (2016) 266 (1956) 1320 334 352 456 493 830 1490 1690 2470 4780
2020-12-30 01:45 3.48 874 12400 (2016) 266 (1956) 1320 334 352 456 493 830 1490 1690 2470 4780
2020-12-30 00:45 3.48 874 12400 (2016) 266 (1956) 1320 334 352 456 493 830 1490 1690 2470 4780
2020-12-29 23:45 3.48 874 26400 (2016) 262 (1956) 1510 340 357 448 471 778 1290 1560 2710 4130
2020-12-29 22:45 3.48 874 26400 (2016) 262 (1956) 1510 340 357 448 471 778 1290 1560 2710 4130
2020-12-29 21:45 3.48 874 26400 (2016) 262 (1956) 1510 340 357 448 471 778 1290 1560 2710 4130
2020-12-29 20:45 3.47 867 26400 (2016) 262 (1956) 1510 340 357 448 471 778 1290 1560 2710 4130
2020-12-29 19:45 3.48 874 26400 (2016) 262 (1956) 1510 340 357 448 471 778 1290 1560 2710 4130
2020-12-29 18:45 3.48 874 26400 (2016) 262 (1956) 1510 340 357 448 471 778 1290 1560 2710 4130
2020-12-29 17:45 3.48 874 26400 (2016) 262 (1956) 1510 340 357 448 471 778 1290 1560 2710 4130
2020-12-29 16:45 3.48 874 26400 (2016) 262 (1956) 1510 340 357 448 471 778 1290 1560 2710 4130
2020-12-29 15:45 3.48 874 26400 (2016) 262 (1956) 1510 340 357 448 471 778 1290 1560 2710 4130
2020-12-29 14:45 3.49 880 26400 (2016) 262 (1956) 1510 340 357 448 471 778 1290 1560 2710 4130
2020-12-29 13:45 3.45 854 26400 (2016) 262 (1956) 1510 340 357 448 471 778 1290 1560 2710 4130
2020-12-29 12:45 3.49 880 26400 (2016) 262 (1956) 1510 340 357 448 471 778 1290 1560 2710 4130
2020-12-29 11:45 3.47 867 26400 (2016) 262 (1956) 1510 340 357 448 471 778 1290 1560 2710 4130
2020-12-29 10:45 3.49 880 26400 (2016) 262 (1956) 1510 340 357 448 471 778 1290 1560 2710 4130
2020-12-29 09:45 3.49 880 26400 (2016) 262 (1956) 1510 340 357 448 471 778 1290 1560 2710 4130
2020-12-29 08:45 3.47 867 26400 (2016) 262 (1956) 1510 340 357 448 471 778 1290 1560 2710 4130
2020-12-29 07:45 3.46 861 26400 (2016) 262 (1956) 1510 340 357 448 471 778 1290 1560 2710 4130
2020-12-29 06:45 3.49 880 26400 (2016) 262 (1956) 1510 340 357 448 471 778 1290 1560 2710 4130
2020-12-29 05:45 3.49 880 26400 (2016) 262 (1956) 1510 340 357 448 471 778 1290 1560 2710 4130
2020-12-29 04:45 3.49 880 26400 (2016) 262 (1956) 1510 340 357 448 471 778 1290 1560 2710 4130
2020-12-29 03:45 3.49 880 26400 (2016) 262 (1956) 1510 340 357 448 471 778 1290 1560 2710 4130
2020-12-29 02:45 3.49 880 26400 (2016) 262 (1956) 1510 340 357 448 471 778 1290 1560 2710 4130
2020-12-29 01:45 3.49 880 26400 (2016) 262 (1956) 1510 340 357 448 471 778 1290 1560 2710 4130
2020-12-29 00:45 3.49 880 26400 (2016) 262 (1956) 1510 340 357 448 471 778 1290 1560 2710 4130
2020-12-28 23:45 3.49 880 18800 (1943) 262 (1956) 1500 343 358 434 468 783 1240 1350 2380 5720
2020-12-28 22:45 3.49 880 18800 (1943) 262 (1956) 1500 343 358 434 468 783 1240 1350 2380 5720
2020-12-28 21:45 3.50 887 18800 (1943) 262 (1956) 1500 343 358 434 468 783 1240 1350 2380 5720
2020-12-28 20:45 3.50 887 18800 (1943) 262 (1956) 1500 343 358 434 468 783 1240 1350 2380 5720
2020-12-28 19:45 3.50 887 18800 (1943) 262 (1956) 1500 343 358 434 468 783 1240 1350 2380 5720
2020-12-28 18:45 3.50 887 18800 (1943) 262 (1956) 1500 343 358 434 468 783 1240 1350 2380 5720
2020-12-28 17:45 3.50 887 18800 (1943) 262 (1956) 1500 343 358 434 468 783 1240 1350 2380 5720
2020-12-28 16:45 3.51 893 18800 (1943) 262 (1956) 1500 343 358 434 468 783 1240 1350 2380 5720
2020-12-28 15:45 3.51 893 18800 (1943) 262 (1956) 1500 343 358 434 468 783 1240 1350 2380 5720
2020-12-28 14:45 3.51 893 18800 (1943) 262 (1956) 1500 343 358 434 468 783 1240 1350 2380 5720
2020-12-28 13:45 3.51 893 18800 (1943) 262 (1956) 1500 343 358 434 468 783 1240 1350 2380 5720
2020-12-28 12:45 3.51 893 18800 (1943) 262 (1956) 1500 343 358 434 468 783 1240 1350 2380 5720
2020-12-28 11:45 3.51 893 18800 (1943) 262 (1956) 1500 343 358 434 468 783 1240 1350 2380 5720
2020-12-28 10:45 3.47 867 18800 (1943) 262 (1956) 1500 343 358 434 468 783 1240 1350 2380 5720
2020-12-28 09:45 3.52 900 18800 (1943) 262 (1956) 1500 343 358 434 468 783 1240 1350 2380 5720
2020-12-28 08:45 3.51 893 18800 (1943) 262 (1956) 1500 343 358 434 468 783 1240 1350 2380 5720
2020-12-28 07:45 3.51 893 18800 (1943) 262 (1956) 1500 343 358 434 468 783 1240 1350 2380 5720
2020-12-28 06:45 3.51 893 18800 (1943) 262 (1956) 1500 343 358 434 468 783 1240 1350 2380 5720
2020-12-28 05:45 3.51 893 18800 (1943) 262 (1956) 1500 343 358 434 468 783 1240 1350 2380 5720
2020-12-28 04:45 3.52 900 18800 (1943) 262 (1956) 1500 343 358 434 468 783 1240 1350 2380 5720
2020-12-28 03:45 3.52 900 18800 (1943) 262 (1956) 1500 343 358 434 468 783 1240 1350 2380 5720
2020-12-28 02:45 3.52 900 18800 (1943) 262 (1956) 1500 343 358 434 468 783 1240 1350 2380 5720
2020-12-28 01:45 3.52 900 18800 (1943) 262 (1956) 1500 343 358 434 468 783 1240 1350 2380 5720
2020-12-28 00:45 3.52 900 18800 (1943) 262 (1956) 1500 343 358 434 468 783 1240 1350 2380 5720
2020-12-27 23:45 3.52 900 8430 (1943) 262 (1956) 1240 347 358 422 463 784 1300 1400 2520 5190
2020-12-27 22:45 3.51 893 8430 (1943) 262 (1956) 1240 347 358 422 463 784 1300 1400 2520 5190
2020-12-27 21:45 3.52 900 8430 (1943) 262 (1956) 1240 347 358 422 463 784 1300 1400 2520 5190
2020-12-27 20:45 3.52 900 8430 (1943) 262 (1956) 1240 347 358 422 463 784 1300 1400 2520 5190
2020-12-27 19:45 3.51 893 8430 (1943) 262 (1956) 1240 347 358 422 463 784 1300 1400 2520 5190
2020-12-27 18:45 3.52 900 8430 (1943) 262 (1956) 1240 347 358 422 463 784 1300 1400 2520 5190
2020-12-27 17:45 3.52 900 8430 (1943) 262 (1956) 1240 347 358 422 463 784 1300 1400 2520 5190
2020-12-27 16:45 3.52 900 8430 (1943) 262 (1956) 1240 347 358 422 463 784 1300 1400 2520 5190
2020-12-27 15:45 3.52 900 8430 (1943) 262 (1956) 1240 347 358 422 463 784 1300 1400 2520 5190
2020-12-27 14:45 3.50 887 8430 (1943) 262 (1956) 1240 347 358 422 463 784 1300 1400 2520 5190
2020-12-27 13:45 3.48 874 8430 (1943) 262 (1956) 1240 347 358 422 463 784 1300 1400 2520 5190
2020-12-27 12:45 3.48 874 8430 (1943) 262 (1956) 1240 347 358 422 463 784 1300 1400 2520 5190
2020-12-27 11:45 3.48 874 8430 (1943) 262 (1956) 1240 347 358 422 463 784 1300 1400 2520 5190
2020-12-27 10:45 3.48 874 8430 (1943) 262 (1956) 1240 347 358 422 463 784 1300 1400 2520 5190
2020-12-27 09:45 3.49 880 8430 (1943) 262 (1956) 1240 347 358 422 463 784 1300 1400 2520 5190
2020-12-27 08:45 3.50 887 8430 (1943) 262 (1956) 1240 347 358 422 463 784 1300 1400 2520 5190
2020-12-27 07:45 3.52 900 8430 (1943) 262 (1956) 1240 347 358 422 463 784 1300 1400 2520 5190
2020-12-27 06:45 3.53 906 8430 (1943) 262 (1956) 1240 347 358 422 463 784 1300 1400 2520 5190
2020-12-27 05:45 3.53 906 8430 (1943) 262 (1956) 1240 347 358 422 463 784 1300 1400 2520 5190
2020-12-27 04:45 3.53 906 8430 (1943) 262 (1956) 1240 347 358 422 463 784 1300 1400 2520 5190
2020-12-27 03:45 3.53 906 8430 (1943) 262 (1956) 1240 347 358 422 463 784 1300 1400 2520 5190
2020-12-27 02:45 3.53 906 8430 (1943) 262 (1956) 1240 347 358 422 463 784 1300 1400 2520 5190
2020-12-27 01:45 3.53 906 8430 (1943) 262 (1956) 1240 347 358 422 463 784 1300 1400 2520 5190
2020-12-27 00:45 3.52 900 8430 (1943) 262 (1956) 1240 347 358 422 463 784 1300 1400 2520 5190
2020-12-26 23:45 3.53 906 8170 (1983) 262 (1956) 1150 323 353 423 456 767 1260 1430 1880 4030
2020-12-26 22:45 3.52 900 8170 (1983) 262 (1956) 1150 323 353 423 456 767 1260 1430 1880 4030
2020-12-26 21:45 3.53 906 8170 (1983) 262 (1956) 1150 323 353 423 456 767 1260 1430 1880 4030
2020-12-26 20:45 3.53 906 8170 (1983) 262 (1956) 1150 323 353 423 456 767 1260 1430 1880 4030
2020-12-26 19:45 3.53 906 8170 (1983) 262 (1956) 1150 323 353 423 456 767 1260 1430 1880 4030
2020-12-26 18:45 3.53 906 8170 (1983) 262 (1956) 1150 323 353 423 456 767 1260 1430 1880 4030
2020-12-26 17:45 3.53 906 8170 (1983) 262 (1956) 1150 323 353 423 456 767 1260 1430 1880 4030
2020-12-26 16:45 3.53 906 8170 (1983) 262 (1956) 1150 323 353 423 456 767 1260 1430 1880 4030
2020-12-26 15:45 3.53 906 8170 (1983) 262 (1956) 1150 323 353 423 456 767 1260 1430 1880 4030
2020-12-26 14:45 3.53 906 8170 (1983) 262 (1956) 1150 323 353 423 456 767 1260 1430 1880 4030
2020-12-26 13:45 3.50 887 8170 (1983) 262 (1956) 1150 323 353 423 456 767 1260 1430 1880 4030
2020-12-26 12:45 3.52 900 8170 (1983) 262 (1956) 1150 323 353 423 456 767 1260 1430 1880 4030
2020-12-26 11:45 3.49 880 8170 (1983) 262 (1956) 1150 323 353 423 456 767 1260 1430 1880 4030
2020-12-26 10:45 3.53 906 8170 (1983) 262 (1956) 1150 323 353 423 456 767 1260 1430 1880 4030
2020-12-26 09:45 3.53 906 8170 (1983) 262 (1956) 1150 323 353 423 456 767 1260 1430 1880 4030
2020-12-26 08:45 3.53 906 8170 (1983) 262 (1956) 1150 323 353 423 456 767 1260 1430 1880 4030
2020-12-26 07:45 3.53 906 8170 (1983) 262 (1956) 1150 323 353 423 456 767 1260 1430 1880 4030
2020-12-26 06:45 3.54 913 8170 (1983) 262 (1956) 1150 323 353 423 456 767 1260 1430 1880 4030
2020-12-26 05:45 3.53 906 8170 (1983) 262 (1956) 1150 323 353 423 456 767 1260 1430 1880 4030
2020-12-26 04:45 3.54 913 8170 (1983) 262 (1956) 1150 323 353 423 456 767 1260 1430 1880 4030
2020-12-26 03:45 3.54 913 8170 (1983) 262 (1956) 1150 323 353 423 456 767 1260 1430 1880 4030
2020-12-26 02:45 3.54 913 8170 (1983) 262 (1956) 1150 323 353 423 456 767 1260 1430 1880 4030
2020-12-26 01:45 3.54 913 8170 (1983) 262 (1956) 1150 323 353 423 456 767 1260 1430 1880 4030
2020-12-26 00:45 3.54 913 8170 (1983) 262 (1956) 1150 323 353 423 456 767 1260 1430 1880 4030
2020-12-25 23:45 3.54 913 19300 (1983) 266 (1956) 1320 319 351 428 457 774 1320 1490 2320 3490
2020-12-25 22:45 3.54 913 19300 (1983) 266 (1956) 1320 319 351 428 457 774 1320 1490 2320 3490
2020-12-25 21:45 3.54 913 19300 (1983) 266 (1956) 1320 319 351 428 457 774 1320 1490 2320 3490
2020-12-25 20:45 3.54 913 19300 (1983) 266 (1956) 1320 319 351 428 457 774 1320 1490 2320 3490
2020-12-25 19:45 3.55 919 19300 (1983) 266 (1956) 1320 319 351 428 457 774 1320 1490 2320 3490
2020-12-25 18:45 3.55 919 19300 (1983) 266 (1956) 1320 319 351 428 457 774 1320 1490 2320 3490
2020-12-25 17:45 3.55 919 19300 (1983) 266 (1956) 1320 319 351 428 457 774 1320 1490 2320 3490
2020-12-25 16:45 3.54 913 19300 (1983) 266 (1956) 1320 319 351 428 457 774 1320 1490 2320 3490
2020-12-25 15:45 3.56 926 19300 (1983) 266 (1956) 1320 319 351 428 457 774 1320 1490 2320 3490
2020-12-25 14:45 3.54 913 19300 (1983) 266 (1956) 1320 319 351 428 457 774 1320 1490 2320 3490
2020-12-25 13:45 3.55 919 19300 (1983) 266 (1956) 1320 319 351 428 457 774 1320 1490 2320 3490
2020-12-25 12:45 3.55 919 19300 (1983) 266 (1956) 1320 319 351 428 457 774 1320 1490 2320 3490
2020-12-25 11:45 3.55 919 19300 (1983) 266 (1956) 1320 319 351 428 457 774 1320 1490 2320 3490
2020-12-25 10:45 3.50 887 19300 (1983) 266 (1956) 1320 319 351 428 457 774 1320 1490 2320 3490
2020-12-25 09:45 3.55 919 19300 (1983) 266 (1956) 1320 319 351 428 457 774 1320 1490 2320 3490
2020-12-25 08:45 3.52 900 19300 (1983) 266 (1956) 1320 319 351 428 457 774 1320 1490 2320 3490
2020-12-25 07:45 3.56 926 19300 (1983) 266 (1956) 1320 319 351 428 457 774 1320 1490 2320 3490
2020-12-25 06:45 3.56 926 19300 (1983) 266 (1956) 1320 319 351 428 457 774 1320 1490 2320 3490
2020-12-25 05:45 3.56 926 19300 (1983) 266 (1956) 1320 319 351 428 457 774 1320 1490 2320 3490
2020-12-25 04:45 3.57 932 19300 (1983) 266 (1956) 1320 319 351 428 457 774 1320 1490 2320 3490
2020-12-25 03:45 3.57 932 19300 (1983) 266 (1956) 1320 319 351 428 457 774 1320 1490 2320 3490
2020-12-25 02:45 3.53 906 19300 (1983) 266 (1956) 1320 319 351 428 457 774 1320 1490 2320 3490
2020-12-25 01:45 3.57 932 19300 (1983) 266 (1956) 1320 319 351 428 457 774 1320 1490 2320 3490
2020-12-25 00:45 3.57 932 19300 (1983) 266 (1956) 1320 319 351 428 457 774 1320 1490 2320 3490
2020-12-24 23:45 3.57 932 13900 (1983) 270 (1956) 1300 331 350 423 463 806 1280 1440 2730 4960
2020-12-24 22:45 3.57 932 13900 (1983) 270 (1956) 1300 331 350 423 463 806 1280 1440 2730 4960
2020-12-24 21:45 3.57 932 13900 (1983) 270 (1956) 1300 331 350 423 463 806 1280 1440 2730 4960
2020-12-24 20:45 3.57 932 13900 (1983) 270 (1956) 1300 331 350 423 463 806 1280 1440 2730 4960
2020-12-24 19:45 3.57 932 13900 (1983) 270 (1956) 1300 331 350 423 463 806 1280 1440 2730 4960
2020-12-24 18:45 3.58 939 13900 (1983) 270 (1956) 1300 331 350 423 463 806 1280 1440 2730 4960
2020-12-24 17:45 3.58 939 13900 (1983) 270 (1956) 1300 331 350 423 463 806 1280 1440 2730 4960
2020-12-24 16:45 3.57 932 13900 (1983) 270 (1956) 1300 331 350 423 463 806 1280 1440 2730 4960
2020-12-24 15:45 3.54 913 13900 (1983) 270 (1956) 1300 331 350 423 463 806 1280 1440 2730 4960
2020-12-24 14:45 3.57 932 13900 (1983) 270 (1956) 1300 331 350 423 463 806 1280 1440 2730 4960
2020-12-24 13:45 3.53 906 13900 (1983) 270 (1956) 1300 331 350 423 463 806 1280 1440 2730 4960
2020-12-24 12:45 3.54 913 13900 (1983) 270 (1956) 1300 331 350 423 463 806 1280 1440 2730 4960
2020-12-24 11:45 3.55 919 13900 (1983) 270 (1956) 1300 331 350 423 463 806 1280 1440 2730 4960
2020-12-24 10:45 3.55 919 13900 (1983) 270 (1956) 1300 331 350 423 463 806 1280 1440 2730 4960
2020-12-24 09:45 3.55 919 13900 (1983) 270 (1956) 1300 331 350 423 463 806 1280 1440 2730 4960
2020-12-24 08:45 3.58 939 13900 (1983) 270 (1956) 1300 331 350 423 463 806 1280 1440 2730 4960
2020-12-24 07:45 3.60 952 13900 (1983) 270 (1956) 1300 331 350 423 463 806 1280 1440 2730 4960
2020-12-24 06:45 3.60 952 13900 (1983) 270 (1956) 1300 331 350 423 463 806 1280 1440 2730 4960
2020-12-24 05:45 3.60 952 13900 (1983) 270 (1956) 1300 331 350 423 463 806 1280 1440 2730 4960
2020-12-24 04:45 3.60 952 13900 (1983) 270 (1956) 1300 331 350 423 463 806 1280 1440 2730 4960
2020-12-24 03:45 3.60 952 13900 (1983) 270 (1956) 1300 331 350 423 463 806 1280 1440 2730 4960
2020-12-24 02:45 3.56 926 13900 (1983) 270 (1956) 1300 331 350 423 463 806 1280 1440 2730 4960
2020-12-24 01:45 3.59 945 13900 (1983) 270 (1956) 1300 331 350 423 463 806 1280 1440 2730 4960
2020-12-24 00:45 3.61 959 13900 (1983) 270 (1956) 1300 331 350 423 463 806 1280 1440 2730 4960
2020-12-23 23:45 3.55 919 10000 (1985) 270 (1956) 1070 330 352 428 460 782 1250 1440 1650 2650
2020-12-23 22:45 3.56 926 10000 (1985) 270 (1956) 1070 330 352 428 460 782 1250 1440 1650 2650
2020-12-23 21:45 3.55 919 10000 (1985) 270 (1956) 1070 330 352 428 460 782 1250 1440 1650 2650
2020-12-23 20:45 3.60 952 10000 (1985) 270 (1956) 1070 330 352 428 460 782 1250 1440 1650 2650
2020-12-23 19:45 3.56 926 10000 (1985) 270 (1956) 1070 330 352 428 460 782 1250 1440 1650 2650
2020-12-23 18:45 3.61 959 10000 (1985) 270 (1956) 1070 330 352 428 460 782 1250 1440 1650 2650
2020-12-23 17:45 3.59 945 10000 (1985) 270 (1956) 1070 330 352 428 460 782 1250 1440 1650 2650
2020-12-23 16:45 3.58 939 10000 (1985) 270 (1956) 1070 330 352 428 460 782 1250 1440 1650 2650
2020-12-23 15:45 3.54 913 10000 (1985) 270 (1956) 1070 330 352 428 460 782 1250 1440 1650 2650
2020-12-23 14:45 3.58 939 10000 (1985) 270 (1956) 1070 330 352 428 460 782 1250 1440 1650 2650
2020-12-23 13:45 3.59 945 10000 (1985) 270 (1956) 1070 330 352 428 460 782 1250 1440 1650 2650
2020-12-23 12:45 3.57 932 10000 (1985) 270 (1956) 1070 330 352 428 460 782 1250 1440 1650 2650
2020-12-23 11:45 3.56 926 10000 (1985) 270 (1956) 1070 330 352 428 460 782 1250 1440 1650 2650
2020-12-23 10:45 3.55 919 10000 (1985) 270 (1956) 1070 330 352 428 460 782 1250 1440 1650 2650
2020-12-23 09:45 3.56 926 10000 (1985) 270 (1956) 1070 330 352 428 460 782 1250 1440 1650 2650
2020-12-23 08:45 3.56 926 10000 (1985) 270 (1956) 1070 330 352 428 460 782 1250 1440 1650 2650
2020-12-23 07:45 3.57 932 10000 (1985) 270 (1956) 1070 330 352 428 460 782 1250 1440 1650 2650
2020-12-23 06:45 3.57 932 10000 (1985) 270 (1956) 1070 330 352 428 460 782 1250 1440 1650 2650
2020-12-23 05:45 3.55 919 10000 (1985) 270 (1956) 1070 330 352 428 460 782 1250 1440 1650 2650
2020-12-23 04:45 3.59 945 10000 (1985) 270 (1956) 1070 330 352 428 460 782 1250 1440 1650 2650
2020-12-23 03:45 3.59 945 10000 (1985) 270 (1956) 1070 330 352 428 460 782 1250 1440 1650 2650
2020-12-23 02:45 3.59 945 10000 (1985) 270 (1956) 1070 330 352 428 460 782 1250 1440 1650 2650
2020-12-23 01:45 3.59 945 10000 (1985) 270 (1956) 1070 330 352 428 460 782 1250 1440 1650 2650
2020-12-23 00:45 3.59 945 10000 (1985) 270 (1956) 1070 330 352 428 460 782 1250 1440 1650 2650
2020-12-22 23:45 3.59 945 12500 (1985) 270 (1956) 1180 333 351 419 452 779 1360 1430 1590 3330
2020-12-22 22:45 3.60 952 12500 (1985) 270 (1956) 1180 333 351 419 452 779 1360 1430 1590 3330
2020-12-22 21:45 3.60 952 12500 (1985) 270 (1956) 1180 333 351 419 452 779 1360 1430 1590 3330
2020-12-22 20:45 3.60 952 12500 (1985) 270 (1956) 1180 333 351 419 452 779 1360 1430 1590 3330
2020-12-22 19:45 3.60 952 12500 (1985) 270 (1956) 1180 333 351 419 452 779 1360 1430 1590 3330
2020-12-22 18:45 3.60 952 12500 (1985) 270 (1956) 1180 333 351 419 452 779 1360 1430 1590 3330
2020-12-22 17:45 3.60 952 12500 (1985) 270 (1956) 1180 333 351 419 452 779 1360 1430 1590 3330
2020-12-22 16:45 3.59 945 12500 (1985) 270 (1956) 1180 333 351 419 452 779 1360 1430 1590 3330
2020-12-22 15:45 3.55 919 12500 (1985) 270 (1956) 1180 333 351 419 452 779 1360 1430 1590 3330
2020-12-22 14:45 3.55 919 12500 (1985) 270 (1956) 1180 333 351 419 452 779 1360 1430 1590 3330
2020-12-22 13:45 3.57 932 12500 (1985) 270 (1956) 1180 333 351 419 452 779 1360 1430 1590 3330
2020-12-22 12:45 3.59 945 12500 (1985) 270 (1956) 1180 333 351 419 452 779 1360 1430 1590 3330
2020-12-22 11:45 3.60 952 12500 (1985) 270 (1956) 1180 333 351 419 452 779 1360 1430 1590 3330
2020-12-22 10:45 3.61 959 12500 (1985) 270 (1956) 1180 333 351 419 452 779 1360 1430 1590 3330
2020-12-22 09:45 3.60 952 12500 (1985) 270 (1956) 1180 333 351 419 452 779 1360 1430 1590 3330
2020-12-22 08:45 3.61 959 12500 (1985) 270 (1956) 1180 333 351 419 452 779 1360 1430 1590 3330
2020-12-22 07:45 3.61 959 12500 (1985) 270 (1956) 1180 333 351 419 452 779 1360 1430 1590 3330
2020-12-22 06:45 3.62 965 12500 (1985) 270 (1956) 1180 333 351 419 452 779 1360 1430 1590 3330
2020-12-22 05:45 3.62 965 12500 (1985) 270 (1956) 1180 333 351 419 452 779 1360 1430 1590 3330
2020-12-22 04:45 3.62 965 12500 (1985) 270 (1956) 1180 333 351 419 452 779 1360 1430 1590 3330
2020-12-22 03:45 3.62 965 12500 (1985) 270 (1956) 1180 333 351 419 452 779 1360 1430 1590 3330
2020-12-22 02:45 3.62 965 12500 (1985) 270 (1956) 1180 333 351 419 452 779 1360 1430 1590 3330
2020-12-22 01:45 3.62 965 12500 (1985) 270 (1956) 1180 333 351 419 452 779 1360 1430 1590 3330
2020-12-22 00:45 3.62 965 12500 (1985) 270 (1956) 1180 333 351 419 452 779 1360 1430 1590 3330
2020-12-21 23:45 3.62 965 9010 (2014) 274 (1956) 1110 328 350 420 462 772 1310 1440 1640 3160
2020-12-21 22:45 3.62 965 9010 (2014) 274 (1956) 1110 328 350 420 462 772 1310 1440 1640 3160
2020-12-21 21:45 3.63 972 9010 (2014) 274 (1956) 1110 328 350 420 462 772 1310 1440 1640 3160
2020-12-21 20:45 3.63 972 9010 (2014) 274 (1956) 1110 328 350 420 462 772 1310 1440 1640 3160
2020-12-21 19:45 3.63 972 9010 (2014) 274 (1956) 1110 328 350 420 462 772 1310 1440 1640 3160
2020-12-21 18:45 3.63 972 9010 (2014) 274 (1956) 1110 328 350 420 462 772 1310 1440 1640 3160
2020-12-21 17:45 3.63 972 9010 (2014) 274 (1956) 1110 328 350 420 462 772 1310 1440 1640 3160
2020-12-21 16:45 3.63 972 9010 (2014) 274 (1956) 1110 328 350 420 462 772 1310 1440 1640 3160
2020-12-21 15:45 3.63 972 9010 (2014) 274 (1956) 1110 328 350 420 462 772 1310 1440 1640 3160
2020-12-21 14:45 3.64 978 9010 (2014) 274 (1956) 1110 328 350 420 462 772 1310 1440 1640 3160
2020-12-21 13:45 3.63 972 9010 (2014) 274 (1956) 1110 328 350 420 462 772 1310 1440 1640 3160
2020-12-21 12:45 3.59 945 9010 (2014) 274 (1956) 1110 328 350 420 462 772 1310 1440 1640 3160
2020-12-21 11:45 3.63 972 9010 (2014) 274 (1956) 1110 328 350 420 462 772 1310 1440 1640 3160
2020-12-21 10:45 3.63 972 9010 (2014) 274 (1956) 1110 328 350 420 462 772 1310 1440 1640 3160
2020-12-21 09:45 3.61 959 9010 (2014) 274 (1956) 1110 328 350 420 462 772 1310 1440 1640 3160
2020-12-21 08:45 3.63 972 9010 (2014) 274 (1956) 1110 328 350 420 462 772 1310 1440 1640 3160
2020-12-21 07:45 3.64 978 9010 (2014) 274 (1956) 1110 328 350 420 462 772 1310 1440 1640 3160
2020-12-21 06:45 3.64 978 9010 (2014) 274 (1956) 1110 328 350 420 462 772 1310 1440 1640 3160
2020-12-21 05:45 3.64 978 9010 (2014) 274 (1956) 1110 328 350 420 462 772 1310 1440 1640 3160
2020-12-21 04:45 3.64 978 9010 (2014) 274 (1956) 1110 328 350 420 462 772 1310 1440 1640 3160
2020-12-21 03:45 3.65 985 9010 (2014) 274 (1956) 1110 328 350 420 462 772 1310 1440 1640 3160
2020-12-21 02:45 3.65 985 9010 (2014) 274 (1956) 1110 328 350 420 462 772 1310 1440 1640 3160
2020-12-21 01:45 3.65 985 9010 (2014) 274 (1956) 1110 328 350 420 462 772 1310 1440 1640 3160
2020-12-21 00:45 3.65 985 9010 (2014) 274 (1956) 1110 328 350 420 462 772 1310 1440 1640 3160
2020-12-20 23:45 3.65 985 2630 (1974) 279 (1956) 902 330 350 424 450 785 1240 1410 1600 1740
2020-12-20 22:45 3.65 985 2630 (1974) 279 (1956) 902 330 350 424 450 785 1240 1410 1600 1740
2020-12-20 21:45 3.65 985 2630 (1974) 279 (1956) 902 330 350 424 450 785 1240 1410 1600 1740
2020-12-20 20:45 3.65 985 2630 (1974) 279 (1956) 902 330 350 424 450 785 1240 1410 1600 1740
2020-12-20 19:45 3.65 985 2630 (1974) 279 (1956) 902 330 350 424 450 785 1240 1410 1600 1740
2020-12-20 18:45 3.65 985 2630 (1974) 279 (1956) 902 330 350 424 450 785 1240 1410 1600 1740
2020-12-20 17:45 3.65 985 2630 (1974) 279 (1956) 902 330 350 424 450 785 1240 1410 1600 1740
2020-12-20 16:45 3.66 992 2630 (1974) 279 (1956) 902 330 350 424 450 785 1240 1410 1600 1740
2020-12-20 15:45 3.64 978 2630 (1974) 279 (1956) 902 330 350 424 450 785 1240 1410 1600 1740
2020-12-20 14:45 3.66 992 2630 (1974) 279 (1956) 902 330 350 424 450 785 1240 1410 1600 1740
2020-12-20 13:45 3.65 985 2630 (1974) 279 (1956) 902 330 350 424 450 785 1240 1410 1600 1740
2020-12-20 12:45 3.66 992 2630 (1974) 279 (1956) 902 330 350 424 450 785 1240 1410 1600 1740
2020-12-20 11:45 3.66 992 2630 (1974) 279 (1956) 902 330 350 424 450 785 1240 1410 1600 1740
2020-12-20 10:45 3.66 992 2630 (1974) 279 (1956) 902 330 350 424 450 785 1240 1410 1600 1740
2020-12-20 09:45 3.66 992 2630 (1974) 279 (1956) 902 330 350 424 450 785 1240 1410 1600 1740
2020-12-20 08:45 3.67 998 2630 (1974) 279 (1956) 902 330 350 424 450 785 1240 1410 1600 1740
2020-12-20 07:45 3.67 998 2630 (1974) 279 (1956) 902 330 350 424 450 785 1240 1410 1600 1740
2020-12-20 06:45 3.66 992 2630 (1974) 279 (1956) 902 330 350 424 450 785 1240 1410 1600 1740
2020-12-20 05:45 3.67 998 2630 (1974) 279 (1956) 902 330 350 424 450 785 1240 1410 1600 1740
2020-12-20 04:45 3.68 1010 2630 (1974) 279 (1956) 902 330 350 424 450 785 1240 1410 1600 1740
2020-12-20 03:45 3.67 998 2630 (1974) 279 (1956) 902 330 350 424 450 785 1240 1410 1600 1740
2020-12-20 02:45 3.67 998 2630 (1974) 279 (1956) 902 330 350 424 450 785 1240 1410 1600 1740
2020-12-20 01:45 3.67 998 2630 (1974) 279 (1956) 902 330 350 424 450 785 1240 1410 1600 1740
2020-12-20 00:45 3.67 998 2630 (1974) 279 (1956) 902 330 350 424 450 785 1240 1410 1600 1740
2020-12-19 23:45 3.67 998 2500 (1985) 279 (1956) 938 331 350 428 455 827 1390 1530 1720 1980
2020-12-19 22:45 3.67 998 2500 (1985) 279 (1956) 938 331 350 428 455 827 1390 1530 1720 1980
2020-12-19 21:45 3.67 998 2500 (1985) 279 (1956) 938 331 350 428 455 827 1390 1530 1720 1980
2020-12-19 20:45 3.67 998 2500 (1985) 279 (1956) 938 331 350 428 455 827 1390 1530 1720 1980
2020-12-19 19:45 3.68 1010 2500 (1985) 279 (1956) 938 331 350 428 455 827 1390 1530 1720 1980
2020-12-19 18:45 3.68 1010 2500 (1985) 279 (1956) 938 331 350 428 455 827 1390 1530 1720 1980
2020-12-19 17:45 3.68 1010 2500 (1985) 279 (1956) 938 331 350 428 455 827 1390 1530 1720 1980
2020-12-19 16:45 3.68 1010 2500 (1985) 279 (1956) 938 331 350 428 455 827 1390 1530 1720 1980
2020-12-19 15:45 3.68 1010 2500 (1985) 279 (1956) 938 331 350 428 455 827 1390 1530 1720 1980
2020-12-19 14:45 3.68 1010 2500 (1985) 279 (1956) 938 331 350 428 455 827 1390 1530 1720 1980
2020-12-19 13:45 3.68 1010 2500 (1985) 279 (1956) 938 331 350 428 455 827 1390 1530 1720 1980
2020-12-19 12:45 3.69 1010 2500 (1985) 279 (1956) 938 331 350 428 455 827 1390 1530 1720 1980
2020-12-19 11:45 3.69 1010 2500 (1985) 279 (1956) 938 331 350 428 455 827 1390 1530 1720 1980
2020-12-19 10:45 3.68 1010 2500 (1985) 279 (1956) 938 331 350 428 455 827 1390 1530 1720 1980
2020-12-19 09:45 3.68 1010 2500 (1985) 279 (1956) 938 331 350 428 455 827 1390 1530 1720 1980
2020-12-19 08:45 3.68 1010 2500 (1985) 279 (1956) 938 331 350 428 455 827 1390 1530 1720 1980
2020-12-19 07:45 3.69 1010 2500 (1985) 279 (1956) 938 331 350 428 455 827 1390 1530 1720 1980
2020-12-19 06:45 3.69 1010 2500 (1985) 279 (1956) 938 331 350 428 455 827 1390 1530 1720 1980
2020-12-19 05:45 3.69 1010 2500 (1985) 279 (1956) 938 331 350 428 455 827 1390 1530 1720 1980
2020-12-19 04:45 3.69 1010 2500 (1985) 279 (1956) 938 331 350 428 455 827 1390 1530 1720 1980
2020-12-19 03:45 3.69 1010 2500 (1985) 279 (1956) 938 331 350 428 455 827 1390 1530 1720 1980
2020-12-19 02:45 3.69 1010 2500 (1985) 279 (1956) 938 331 350 428 455 827 1390 1530 1720 1980
2020-12-19 01:45 3.69 1010 2500 (1985) 279 (1956) 938 331 350 428 455 827 1390 1530 1720 1980
2020-12-19 00:45 3.70 1020 2500 (1985) 279 (1956) 938 331 350 428 455 827 1390 1530 1720 1980
2020-12-18 23:45 3.70 1020 3290 (1930) 279 (1956) 988 327 353 428 461 793 1290 1570 1830 2400
2020-12-18 22:45 3.70 1020 3290 (1930) 279 (1956) 988 327 353 428 461 793 1290 1570 1830 2400
2020-12-18 21:45 3.70 1020 3290 (1930) 279 (1956) 988 327 353 428 461 793 1290 1570 1830 2400
2020-12-18 20:45 3.70 1020 3290 (1930) 279 (1956) 988 327 353 428 461 793 1290 1570 1830 2400
2020-12-18 19:45 3.70 1020 3290 (1930) 279 (1956) 988 327 353 428 461 793 1290 1570 1830 2400
2020-12-18 18:45 3.70 1020 3290 (1930) 279 (1956) 988 327 353 428 461 793 1290 1570 1830 2400
2020-12-18 17:45 3.70 1020 3290 (1930) 279 (1956) 988 327 353 428 461 793 1290 1570 1830 2400
2020-12-18 16:45 3.70 1020 3290 (1930) 279 (1956) 988 327 353 428 461 793 1290 1570 1830 2400
2020-12-18 15:45 3.66 992 3290 (1930) 279 (1956) 988 327 353 428 461 793 1290 1570 1830 2400
2020-12-18 14:45 3.68 1010 3290 (1930) 279 (1956) 988 327 353 428 461 793 1290 1570 1830 2400
2020-12-18 13:45 3.66 992 3290 (1930) 279 (1956) 988 327 353 428 461 793 1290 1570 1830 2400
2020-12-18 12:45 3.64 978 3290 (1930) 279 (1956) 988 327 353 428 461 793 1290 1570 1830 2400
2020-12-18 11:45 3.67 998 3290 (1930) 279 (1956) 988 327 353 428 461 793 1290 1570 1830 2400
2020-12-18 10:45 3.71 1030 3290 (1930) 279 (1956) 988 327 353 428 461 793 1290 1570 1830 2400
2020-12-18 09:45 3.71 1030 3290 (1930) 279 (1956) 988 327 353 428 461 793 1290 1570 1830 2400
2020-12-18 08:45 3.71 1030 3290 (1930) 279 (1956) 988 327 353 428 461 793 1290 1570 1830 2400
2020-12-18 07:45 3.72 1030 3290 (1930) 279 (1956) 988 327 353 428 461 793 1290 1570 1830 2400
2020-12-18 06:45 3.72 1030 3290 (1930) 279 (1956) 988 327 353 428 461 793 1290 1570 1830 2400
2020-12-18 05:45 3.72 1030 3290 (1930) 279 (1956) 988 327 353 428 461 793 1290 1570 1830 2400
2020-12-18 04:45 3.73 1040 3290 (1930) 279 (1956) 988 327 353 428 461 793 1290 1570 1830 2400
2020-12-18 03:45 3.73 1040 3290 (1930) 279 (1956) 988 327 353 428 461 793 1290 1570 1830 2400
2020-12-18 02:45 3.73 1040 3290 (1930) 279 (1956) 988 327 353 428 461 793 1290 1570 1830 2400
2020-12-18 01:45 3.73 1040 3290 (1930) 279 (1956) 988 327 353 428 461 793 1290 1570 1830 2400
2020-12-18 00:45 3.73 1040 3290 (1930) 279 (1956) 988 327 353 428 461 793 1290 1570 1830 2400
2020-12-17 23:45 3.73 1040 7100 (2002) 274 (1956) 1040 337 357 429 451 772 1320 1610 1800 2150
2020-12-17 22:45 3.74 1050 7100 (2002) 274 (1956) 1040 337 357 429 451 772 1320 1610 1800 2150
2020-12-17 21:45 3.74 1050 7100 (2002) 274 (1956) 1040 337 357 429 451 772 1320 1610 1800 2150
2020-12-17 20:45 3.74 1050 7100 (2002) 274 (1956) 1040 337 357 429 451 772 1320 1610 1800 2150
2020-12-17 19:45 3.74 1050 7100 (2002) 274 (1956) 1040 337 357 429 451 772 1320 1610 1800 2150
2020-12-17 18:45 3.74 1050 7100 (2002) 274 (1956) 1040 337 357 429 451 772 1320 1610 1800 2150
2020-12-17 17:45 3.74 1050 7100 (2002) 274 (1956) 1040 337 357 429 451 772 1320 1610 1800 2150
2020-12-17 16:45 3.75 1050 7100 (2002) 274 (1956) 1040 337 357 429 451 772 1320 1610 1800 2150
2020-12-17 15:45 3.73 1040 7100 (2002) 274 (1956) 1040 337 357 429 451 772 1320 1610 1800 2150
2020-12-17 14:45 3.74 1050 7100 (2002) 274 (1956) 1040 337 357 429 451 772 1320 1610 1800 2150
2020-12-17 13:45 3.74 1050 7100 (2002) 274 (1956) 1040 337 357 429 451 772 1320 1610 1800 2150
2020-12-17 12:45 3.75 1050 7100 (2002) 274 (1956) 1040 337 357 429 451 772 1320 1610 1800 2150
2020-12-17 11:45 3.75 1050 7100 (2002) 274 (1956) 1040 337 357 429 451 772 1320 1610 1800 2150
2020-12-17 10:45 3.75 1050 7100 (2002) 274 (1956) 1040 337 357 429 451 772 1320 1610 1800 2150
2020-12-17 09:45 3.75 1050 7100 (2002) 274 (1956) 1040 337 357 429 451 772 1320 1610 1800 2150
2020-12-17 08:45 3.76 1060 7100 (2002) 274 (1956) 1040 337 357 429 451 772 1320 1610 1800 2150
2020-12-17 07:45 3.76 1060 7100 (2002) 274 (1956) 1040 337 357 429 451 772 1320 1610 1800 2150
2020-12-17 06:45 3.76 1060 7100 (2002) 274 (1956) 1040 337 357 429 451 772 1320 1610 1800 2150
2020-12-17 05:45 3.76 1060 7100 (2002) 274 (1956) 1040 337 357 429 451 772 1320 1610 1800 2150
2020-12-17 04:45 3.76 1060 7100 (2002) 274 (1956) 1040 337 357 429 451 772 1320 1610 1800 2150
2020-12-17 03:45 3.76 1060 7100 (2002) 274 (1956) 1040 337 357 429 451 772 1320 1610 1800 2150
2020-12-17 02:45 3.76 1060 7100 (2002) 274 (1956) 1040 337 357 429 451 772 1320 1610 1800 2150
2020-12-17 01:45 3.76 1060 7100 (2002) 274 (1956) 1040 337 357 429 451 772 1320 1610 1800 2150
2020-12-17 00:45 3.76 1060 7100 (2002) 274 (1956) 1040 337 357 429 451 772 1320 1610 1800 2150
2020-12-16 23:45 3.77 1070 5630 (1993) 279 (1956) 1020 333 364 427 448 785 1370 1600 1910 2520
2020-12-16 22:45 3.77 1070 5630 (1993) 279 (1956) 1020 333 364 427 448 785 1370 1600 1910 2520
2020-12-16 21:45 3.77 1070 5630 (1993) 279 (1956) 1020 333 364 427 448 785 1370 1600 1910 2520
2020-12-16 20:45 3.77 1070 5630 (1993) 279 (1956) 1020 333 364 427 448 785 1370 1600 1910 2520
2020-12-16 19:45 3.78 1070 5630 (1993) 279 (1956) 1020 333 364 427 448 785 1370 1600 1910 2520
2020-12-16 18:45 3.77 1070 5630 (1993) 279 (1956) 1020 333 364 427 448 785 1370 1600 1910 2520
2020-12-16 17:45 3.77 1070 5630 (1993) 279 (1956) 1020 333 364 427 448 785 1370 1600 1910 2520
2020-12-16 16:45 3.78 1070 5630 (1993) 279 (1956) 1020 333 364 427 448 785 1370 1600 1910 2520
2020-12-16 15:45 3.78 1070 5630 (1993) 279 (1956) 1020 333 364 427 448 785 1370 1600 1910 2520
2020-12-16 14:45 3.77 1070 5630 (1993) 279 (1956) 1020 333 364 427 448 785 1370 1600 1910 2520
2020-12-16 13:45 3.76 1060 5630 (1993) 279 (1956) 1020 333 364 427 448 785 1370 1600 1910 2520
2020-12-16 12:45 3.77 1070 5630 (1993) 279 (1956) 1020 333 364 427 448 785 1370 1600 1910 2520
2020-12-16 11:45 3.78 1070 5630 (1993) 279 (1956) 1020 333 364 427 448 785 1370 1600 1910 2520
2020-12-16 10:45 3.76 1060 5630 (1993) 279 (1956) 1020 333 364 427 448 785 1370 1600 1910 2520
2020-12-16 09:45 3.77 1070 5630 (1993) 279 (1956) 1020 333 364 427 448 785 1370 1600 1910 2520
2020-12-16 08:45 3.78 1070 5630 (1993) 279 (1956) 1020 333 364 427 448 785 1370 1600 1910 2520
2020-12-16 07:45 3.77 1070 5630 (1993) 279 (1956) 1020 333 364 427 448 785 1370 1600 1910 2520
2020-12-16 06:45 3.78 1070 5630 (1993) 279 (1956) 1020 333 364 427 448 785 1370 1600 1910 2520
2020-12-16 05:45 3.78 1070 5630 (1993) 279 (1956) 1020 333 364 427 448 785 1370 1600 1910 2520
2020-12-16 04:45 3.78 1070 5630 (1993) 279 (1956) 1020 333 364 427 448 785 1370 1600 1910 2520
2020-12-16 03:45 3.78 1070 5630 (1993) 279 (1956) 1020 333 364 427 448 785 1370 1600 1910 2520
2020-12-16 02:45 3.77 1070 5630 (1993) 279 (1956) 1020 333 364 427 448 785 1370 1600 1910 2520
2020-12-16 01:45 3.78 1070 5630 (1993) 279 (1956) 1020 333 364 427 448 785 1370 1600 1910 2520
2020-12-16 00:45 3.78 1070 5630 (1993) 279 (1956) 1020 333 364 427 448 785 1370 1600 1910 2520
2020-12-15 23:45 3.77 1070 5250 (1968) 274 (1956) 1040 344 366 427 449 737 1370 1560 2150 2550
2020-12-15 22:45 3.78 1070 5250 (1968) 274 (1956) 1040 344 366 427 449 737 1370 1560 2150 2550
2020-12-15 21:45 3.78 1070 5250 (1968) 274 (1956) 1040 344 366 427 449 737 1370 1560 2150 2550
2020-12-15 20:45 3.77 1070 5250 (1968) 274 (1956) 1040 344 366 427 449 737 1370 1560 2150 2550
2020-12-15 19:45 3.77 1070 5250 (1968) 274 (1956) 1040 344 366 427 449 737 1370 1560 2150 2550
2020-12-15 18:45 3.77 1070 5250 (1968) 274 (1956) 1040 344 366 427 449 737 1370 1560 2150 2550
2020-12-15 17:45 3.78 1070 5250 (1968) 274 (1956) 1040 344 366 427 449 737 1370 1560 2150 2550
2020-12-15 16:45 3.77 1070 5250 (1968) 274 (1956) 1040 344 366 427 449 737 1370 1560 2150 2550
2020-12-15 15:45 3.78 1070 5250 (1968) 274 (1956) 1040 344 366 427 449 737 1370 1560 2150 2550
2020-12-15 14:45 3.78 1070 5250 (1968) 274 (1956) 1040 344 366 427 449 737 1370 1560 2150 2550
2020-12-15 13:45 3.78 1070 5250 (1968) 274 (1956) 1040 344 366 427 449 737 1370 1560 2150 2550
2020-12-15 12:45 3.78 1070 5250 (1968) 274 (1956) 1040 344 366 427 449 737 1370 1560 2150 2550
2020-12-15 11:45 3.78 1070 5250 (1968) 274 (1956) 1040 344 366 427 449 737 1370 1560 2150 2550
2020-12-15 10:45 3.78 1070 5250 (1968) 274 (1956) 1040 344 366 427 449 737 1370 1560 2150 2550
2020-12-15 09:45 3.78 1070 5250 (1968) 274 (1956) 1040 344 366 427 449 737 1370 1560 2150 2550
2020-12-15 08:45 3.78 1070 5250 (1968) 274 (1956) 1040 344 366 427 449 737 1370 1560 2150 2550
2020-12-15 07:45 3.78 1070 5250 (1968) 274 (1956) 1040 344 366 427 449 737 1370 1560 2150 2550
2020-12-15 06:45 3.78 1070 5250 (1968) 274 (1956) 1040 344 366 427 449 737 1370 1560 2150 2550
2020-12-15 05:45 3.78 1070 5250 (1968) 274 (1956) 1040 344 366 427 449 737 1370 1560 2150 2550
2020-12-15 04:45 3.78 1070 5250 (1968) 274 (1956) 1040 344 366 427 449 737 1370 1560 2150 2550
2020-12-15 03:45 3.78 1070 5250 (1968) 274 (1956) 1040 344 366 427 449 737 1370 1560 2150 2550
2020-12-15 02:45 3.78 1070 5250 (1968) 274 (1956) 1040 344 366 427 449 737 1370 1560 2150 2550
2020-12-15 01:45 3.78 1070 5250 (1968) 274 (1956) 1040 344 366 427 449 737 1370 1560 2150 2550
2020-12-15 00:45 3.78 1070 5250 (1968) 274 (1956) 1040 344 366 427 449 737 1370 1560 2150 2550
2020-12-14 23:45 3.78 1070 2960 (1947) 274 (1956) 919 353 370 430 443 701 1240 1410 1880 2160
2020-12-14 22:45 3.78 1070 2960 (1947) 274 (1956) 919 353 370 430 443 701 1240 1410 1880 2160
2020-12-14 21:45 3.78 1070 2960 (1947) 274 (1956) 919 353 370 430 443 701 1240 1410 1880 2160
2020-12-14 20:45 3.78 1070 2960 (1947) 274 (1956) 919 353 370 430 443 701 1240 1410 1880 2160
2020-12-14 19:45 3.78 1070 2960 (1947) 274 (1956) 919 353 370 430 443 701 1240 1410 1880 2160
2020-12-14 18:45 3.78 1070 2960 (1947) 274 (1956) 919 353 370 430 443 701 1240 1410 1880 2160
2020-12-14 17:45 3.78 1070 2960 (1947) 274 (1956) 919 353 370 430 443 701 1240 1410 1880 2160
2020-12-14 16:45 3.78 1070 2960 (1947) 274 (1956) 919 353 370 430 443 701 1240 1410 1880 2160
2020-12-14 15:45 3.78 1070 2960 (1947) 274 (1956) 919 353 370 430 443 701 1240 1410 1880 2160
2020-12-14 14:45 3.78 1070 2960 (1947) 274 (1956) 919 353 370 430 443 701 1240 1410 1880 2160
2020-12-14 13:45 3.78 1070 2960 (1947) 274 (1956) 919 353 370 430 443 701 1240 1410 1880 2160
2020-12-14 12:45 3.77 1070 2960 (1947) 274 (1956) 919 353 370 430 443 701 1240 1410 1880 2160
2020-12-14 11:45 3.77 1070 2960 (1947) 274 (1956) 919 353 370 430 443 701 1240 1410 1880 2160
2020-12-14 10:45 3.76 1060 2960 (1947) 274 (1956) 919 353 370 430 443 701 1240 1410 1880 2160
2020-12-14 09:45 3.75 1050 2960 (1947) 274 (1956) 919 353 370 430 443 701 1240 1410 1880 2160
2020-12-14 08:45 3.76 1060 2960 (1947) 274 (1956) 919 353 370 430 443 701 1240 1410 1880 2160
2020-12-14 07:45 3.75 1050 2960 (1947) 274 (1956) 919 353 370 430 443 701 1240 1410 1880 2160
2020-12-14 06:45 3.74 1050 2960 (1947) 274 (1956) 919 353 370 430 443 701 1240 1410 1880 2160
2020-12-14 05:45 3.74 1050 2960 (1947) 274 (1956) 919 353 370 430 443 701 1240 1410 1880 2160
2020-12-14 04:45 3.73 1040 2960 (1947) 274 (1956) 919 353 370 430 443 701 1240 1410 1880 2160
2020-12-14 03:45 3.73 1040 2960 (1947) 274 (1956) 919 353 370 430 443 701 1240 1410 1880 2160
2020-12-14 02:45 3.73 1040 2960 (1947) 274 (1956) 919 353 370 430 443 701 1240 1410 1880 2160
2020-12-14 01:45 3.73 1040 2960 (1947) 274 (1956) 919 353 370 430 443 701 1240 1410 1880 2160
2020-12-14 00:45 3.72 1030 2960 (1947) 274 (1956) 919 353 370 430 443 701 1240 1410 1880 2160
2020-12-13 23:45 3.72 1030 3600 (1947) 274 (1956) 914 352 375 435 443 698 1200 1320 1840 2240
2020-12-13 22:45 3.71 1030 3600 (1947) 274 (1956) 914 352 375 435 443 698 1200 1320 1840 2240
2020-12-13 21:45 3.70 1020 3600 (1947) 274 (1956) 914 352 375 435 443 698 1200 1320 1840 2240
2020-12-13 20:45 3.68 1010 3600 (1947) 274 (1956) 914 352 375 435 443 698 1200 1320 1840 2240
2020-12-13 19:45 3.69 1010 3600 (1947) 274 (1956) 914 352 375 435 443 698 1200 1320 1840 2240
2020-12-13 18:45 3.69 1010 3600 (1947) 274 (1956) 914 352 375 435 443 698 1200 1320 1840 2240
2020-12-13 17:45 3.68 1010 3600 (1947) 274 (1956) 914 352 375 435 443 698 1200 1320 1840 2240
2020-12-13 16:45 3.67 998 3600 (1947) 274 (1956) 914 352 375 435 443 698 1200 1320 1840 2240
2020-12-13 15:45 3.65 985 3600 (1947) 274 (1956) 914 352 375 435 443 698 1200 1320 1840 2240
2020-12-13 14:45 3.63 972 3600 (1947) 274 (1956) 914 352 375 435 443 698 1200 1320 1840 2240
2020-12-13 13:45 3.65 985 3600 (1947) 274 (1956) 914 352 375 435 443 698 1200 1320 1840 2240
2020-12-13 12:45 3.65 985 3600 (1947) 274 (1956) 914 352 375 435 443 698 1200 1320 1840 2240
2020-12-13 11:45 3.65 985 3600 (1947) 274 (1956) 914 352 375 435 443 698 1200 1320 1840 2240
2020-12-13 10:45 3.65 985 3600 (1947) 274 (1956) 914 352 375 435 443 698 1200 1320 1840 2240
2020-12-13 09:45 3.65 985 3600 (1947) 274 (1956) 914 352 375 435 443 698 1200 1320 1840 2240
2020-12-13 08:45 3.65 985 3600 (1947) 274 (1956) 914 352 375 435 443 698 1200 1320 1840 2240
2020-12-13 07:45 3.64 978 3600 (1947) 274 (1956) 914 352 375 435 443 698 1200 1320 1840 2240
2020-12-13 06:45 3.65 985 3600 (1947) 274 (1956) 914 352 375 435 443 698 1200 1320 1840 2240
2020-12-13 05:45 3.65 985 3600 (1947) 274 (1956) 914 352 375 435 443 698 1200 1320 1840 2240
2020-12-13 04:45 3.66 992 3600 (1947) 274 (1956) 914 352 375 435 443 698 1200 1320 1840 2240
2020-12-13 03:45 3.66 992 3600 (1947) 274 (1956) 914 352 375 435 443 698 1200 1320 1840 2240
2020-12-13 02:45 3.65 985 3600 (1947) 274 (1956) 914 352 375 435 443 698 1200 1320 1840 2240
2020-12-13 01:45 3.66 992 3600 (1947) 274 (1956) 914 352 375 435 443 698 1200 1320 1840 2240
2020-12-13 00:45 3.66 992 3600 (1947) 274 (1956) 914 352 375 435 443 698 1200 1320 1840 2240
2020-12-12 23:45 3.66 992 4980 (1972) 274 (1956) 975 343 381 429 448 694 1280 1420 2180 2470
2020-12-12 22:45 3.66 992 4980 (1972) 274 (1956) 975 343 381 429 448 694 1280 1420 2180 2470
2020-12-12 21:45 3.66 992 4980 (1972) 274 (1956) 975 343 381 429 448 694 1280 1420 2180 2470
2020-12-12 20:45 3.66 992 4980 (1972) 274 (1956) 975 343 381 429 448 694 1280 1420 2180 2470
2020-12-12 19:45 3.67 998 4980 (1972) 274 (1956) 975 343 381 429 448 694 1280 1420 2180 2470
2020-12-12 18:45 3.67 998 4980 (1972) 274 (1956) 975 343 381 429 448 694 1280 1420 2180 2470
2020-12-12 17:45 3.68 1010 4980 (1972) 274 (1956) 975 343 381 429 448 694 1280 1420 2180 2470
2020-12-12 16:45 3.68 1010 4980 (1972) 274 (1956) 975 343 381 429 448 694 1280 1420 2180 2470
2020-12-12 15:45 3.68 1010 4980 (1972) 274 (1956) 975 343 381 429 448 694 1280 1420 2180 2470
2020-12-12 14:45 3.66 992 4980 (1972) 274 (1956) 975 343 381 429 448 694 1280 1420 2180 2470
2020-12-12 13:45 3.65 985 4980 (1972) 274 (1956) 975 343 381 429 448 694 1280 1420 2180 2470
2020-12-12 12:45 3.68 1010 4980 (1972) 274 (1956) 975 343 381 429 448 694 1280 1420 2180 2470
2020-12-12 11:45 3.68 1010 4980 (1972) 274 (1956) 975 343 381 429 448 694 1280 1420 2180 2470
2020-12-12 10:45 3.68 1010 4980 (1972) 274 (1956) 975 343 381 429 448 694 1280 1420 2180 2470
2020-12-12 09:45 3.68 1010 4980 (1972) 274 (1956) 975 343 381 429 448 694 1280 1420 2180 2470
2020-12-12 08:45 3.68 1010 4980 (1972) 274 (1956) 975 343 381 429 448 694 1280 1420 2180 2470
2020-12-12 07:45 3.68 1010 4980 (1972) 274 (1956) 975 343 381 429 448 694 1280 1420 2180 2470
2020-12-12 06:45 3.68 1010 4980 (1972) 274 (1956) 975 343 381 429 448 694 1280 1420 2180 2470
2020-12-12 05:45 3.69 1010 4980 (1972) 274 (1956) 975 343 381 429 448 694 1280 1420 2180 2470
2020-12-12 04:45 3.68 1010 4980 (1972) 274 (1956) 975 343 381 429 448 694 1280 1420 2180 2470
2020-12-12 03:45 3.69 1010 4980 (1972) 274 (1956) 975 343 381 429 448 694 1280 1420 2180 2470
2020-12-12 02:45 3.68 1010 4980 (1972) 274 (1956) 975 343 381 429 448 694 1280 1420 2180 2470
2020-12-12 01:45 3.69 1010 4980 (1972) 274 (1956) 975 343 381 429 448 694 1280 1420 2180 2470
2020-12-12 00:45 3.69 1010 4980 (1972) 274 (1956) 975 343 381 429 448 694 1280 1420 2180 2470
2020-12-11 23:45 3.68 1010 5940 (1972) 279 (1956) 976 343 387 411 450 665 1300 1460 2060 2280
2020-12-11 22:45 3.65 985 5940 (1972) 279 (1956) 976 343 387 411 450 665 1300 1460 2060 2280
2020-12-11 21:45 3.65 985 5940 (1972) 279 (1956) 976 343 387 411 450 665 1300 1460 2060 2280
2020-12-11 20:45 3.64 978 5940 (1972) 279 (1956) 976 343 387 411 450 665 1300 1460 2060 2280
2020-12-11 19:45 3.61 959 5940 (1972) 279 (1956) 976 343 387 411 450 665 1300 1460 2060 2280
2020-12-11 18:45 3.60 952 5940 (1972) 279 (1956) 976 343 387 411 450 665 1300 1460 2060 2280
2020-12-11 17:45 3.57 932 5940 (1972) 279 (1956) 976 343 387 411 450 665 1300 1460 2060 2280
2020-12-11 16:45 3.59 945 5940 (1972) 279 (1956) 976 343 387 411 450 665 1300 1460 2060 2280
2020-12-11 15:45 3.53 906 5940 (1972) 279 (1956) 976 343 387 411 450 665 1300 1460 2060 2280
2020-12-11 14:45 3.56 926 5940 (1972) 279 (1956) 976 343 387 411 450 665 1300 1460 2060 2280
2020-12-11 13:45 3.56 926 5940 (1972) 279 (1956) 976 343 387 411 450 665 1300 1460 2060 2280
2020-12-11 12:45 3.56 926 5940 (1972) 279 (1956) 976 343 387 411 450 665 1300 1460 2060 2280
2020-12-11 11:45 3.56 926 5940 (1972) 279 (1956) 976 343 387 411 450 665 1300 1460 2060 2280
2020-12-11 10:45 3.53 906 5940 (1972) 279 (1956) 976 343 387 411 450 665 1300 1460 2060 2280
2020-12-11 09:45 3.51 893 5940 (1972) 279 (1956) 976 343 387 411 450 665 1300 1460 2060 2280
2020-12-11 08:45 3.55 919 5940 (1972) 279 (1956) 976 343 387 411 450 665 1300 1460 2060 2280
2020-12-11 07:45 3.56 926 5940 (1972) 279 (1956) 976 343 387 411 450 665 1300 1460 2060 2280
2020-12-11 06:45 3.56 926 5940 (1972) 279 (1956) 976 343 387 411 450 665 1300 1460 2060 2280
2020-12-11 05:45 3.56 926 5940 (1972) 279 (1956) 976 343 387 411 450 665 1300 1460 2060 2280
2020-12-11 04:45 3.56 926 5940 (1972) 279 (1956) 976 343 387 411 450 665 1300 1460 2060 2280
2020-12-11 03:45 3.56 926 5940 (1972) 279 (1956) 976 343 387 411 450 665 1300 1460 2060 2280
2020-12-11 02:45 3.56 926 5940 (1972) 279 (1956) 976 343 387 411 450 665 1300 1460 2060 2280
2020-12-11 01:45 3.56 926 5940 (1972) 279 (1956) 976 343 387 411 450 665 1300 1460 2060 2280
2020-12-11 00:45 3.56 926 5940 (1972) 279 (1956) 976 343 387 411 450 665 1300 1460 2060 2280
2020-12-10 23:45 3.56 926 2950 (1983) 279 (1956) 905 340 376 411 440 665 1250 1370 1800 2450
2020-12-10 22:45 3.57 932 2950 (1983) 279 (1956) 905 340 376 411 440 665 1250 1370 1800 2450
2020-12-10 21:45 3.56 926 2950 (1983) 279 (1956) 905 340 376 411 440 665 1250 1370 1800 2450
2020-12-10 20:45 3.57 932 2950 (1983) 279 (1956) 905 340 376 411 440 665 1250 1370 1800 2450
2020-12-10 19:45 3.56 926 2950 (1983) 279 (1956) 905 340 376 411 440 665 1250 1370 1800 2450
2020-12-10 18:45 3.56 926 2950 (1983) 279 (1956) 905 340 376 411 440 665 1250 1370 1800 2450
2020-12-10 17:45 3.57 932 2950 (1983) 279 (1956) 905 340 376 411 440 665 1250 1370 1800 2450
2020-12-10 16:45 3.57 932 2950 (1983) 279 (1956) 905 340 376 411 440 665 1250 1370 1800 2450
2020-12-10 15:45 3.57 932 2950 (1983) 279 (1956) 905 340 376 411 440 665 1250 1370 1800 2450
2020-12-10 14:45 3.57 932 2950 (1983) 279 (1956) 905 340 376 411 440 665 1250 1370 1800 2450
2020-12-10 13:45 3.56 926 2950 (1983) 279 (1956) 905 340 376 411 440 665 1250 1370 1800 2450
2020-12-10 12:45 3.55 919 2950 (1983) 279 (1956) 905 340 376 411 440 665 1250 1370 1800 2450
2020-12-10 11:45 3.57 932 2950 (1983) 279 (1956) 905 340 376 411 440 665 1250 1370 1800 2450
2020-12-10 10:45 3.55 919 2950 (1983) 279 (1956) 905 340 376 411 440 665 1250 1370 1800 2450
2020-12-10 09:45 3.56 926 2950 (1983) 279 (1956) 905 340 376 411 440 665 1250 1370 1800 2450
2020-12-10 08:45 3.57 932 2950 (1983) 279 (1956) 905 340 376 411 440 665 1250 1370 1800 2450
2020-12-10 07:45 3.57 932 2950 (1983) 279 (1956) 905 340 376 411 440 665 1250 1370 1800 2450
2020-12-10 06:45 3.57 932 2950 (1983) 279 (1956) 905 340 376 411 440 665 1250 1370 1800 2450
2020-12-10 05:45 3.57 932 2950 (1983) 279 (1956) 905 340 376 411 440 665 1250 1370 1800 2450
2020-12-10 04:45 3.57 932 2950 (1983) 279 (1956) 905 340 376 411 440 665 1250 1370 1800 2450
2020-12-10 03:45 3.57 932 2950 (1983) 279 (1956) 905 340 376 411 440 665 1250 1370 1800 2450
2020-12-10 02:45 3.57 932 2950 (1983) 279 (1956) 905 340 376 411 440 665 1250 1370 1800 2450
2020-12-10 01:45 3.58 939 2950 (1983) 279 (1956) 905 340 376 411 440 665 1250 1370 1800 2450
2020-12-10 00:45 3.58 939 2950 (1983) 279 (1956) 905 340 376 411 440 665 1250 1370 1800 2450
2020-12-09 23:45 3.58 939 3300 (1983) 283 (1956) 901 341 379 439 446 665 1250 1330 1810 2470
2020-12-09 22:45 3.58 939 3300 (1983) 283 (1956) 901 341 379 439 446 665 1250 1330 1810 2470
2020-12-09 21:45 3.58 939 3300 (1983) 283 (1956) 901 341 379 439 446 665 1250 1330 1810 2470
2020-12-09 20:45 3.58 939 3300 (1983) 283 (1956) 901 341 379 439 446 665 1250 1330 1810 2470
2020-12-09 19:45 3.57 932 3300 (1983) 283 (1956) 901 341 379 439 446 665 1250 1330 1810 2470
2020-12-09 18:45 3.58 939 3300 (1983) 283 (1956) 901 341 379 439 446 665 1250 1330 1810 2470
2020-12-09 17:45 3.58 939 3300 (1983) 283 (1956) 901 341 379 439 446 665 1250 1330 1810 2470
2020-12-09 16:45 3.58 939 3300 (1983) 283 (1956) 901 341 379 439 446 665 1250 1330 1810 2470
2020-12-09 15:45 3.59 945 3300 (1983) 283 (1956) 901 341 379 439 446 665 1250 1330 1810 2470
2020-12-09 14:45 3.58 939 3300 (1983) 283 (1956) 901 341 379 439 446 665 1250 1330 1810 2470
2020-12-09 13:45 3.57 932 3300 (1983) 283 (1956) 901 341 379 439 446 665 1250 1330 1810 2470
2020-12-09 12:45 3.57 932 3300 (1983) 283 (1956) 901 341 379 439 446 665 1250 1330 1810 2470
2020-12-09 11:45 3.58 939 3300 (1983) 283 (1956) 901 341 379 439 446 665 1250 1330 1810 2470
2020-12-09 10:45 3.57 932 3300 (1983) 283 (1956) 901 341 379 439 446 665 1250 1330 1810 2470
2020-12-09 09:45 3.58 939 3300 (1983) 283 (1956) 901 341 379 439 446 665 1250 1330 1810 2470
2020-12-09 08:45 3.58 939 3300 (1983) 283 (1956) 901 341 379 439 446 665 1250 1330 1810 2470
2020-12-09 07:45 3.58 939 3300 (1983) 283 (1956) 901 341 379 439 446 665 1250 1330 1810 2470
2020-12-09 06:45 3.59 945 3300 (1983) 283 (1956) 901 341 379 439 446 665 1250 1330 1810 2470
2020-12-09 05:45 3.59 945 3300 (1983) 283 (1956) 901 341 379 439 446 665 1250 1330 1810 2470
2020-12-09 04:45 3.59 945 3300 (1983) 283 (1956) 901 341 379 439 446 665 1250 1330 1810 2470
2020-12-09 03:45 3.59 945 3300 (1983) 283 (1956) 901 341 379 439 446 665 1250 1330 1810 2470
2020-12-09 02:45 3.59 945 3300 (1983) 283 (1956) 901 341 379 439 446 665 1250 1330 1810 2470
2020-12-09 01:45 3.59 945 3300 (1983) 283 (1956) 901 341 379 439 446 665 1250 1330 1810 2470
2020-12-09 00:45 3.60 952 3300 (1983) 283 (1956) 901 341 379 439 446 665 1250 1330 1810 2470
2020-12-08 23:45 3.59 945 3900 (1983) 287 (1956) 899 345 371 405 444 671 1300 1360 1900 2000
2020-12-08 22:45 3.59 945 3900 (1983) 287 (1956) 899 345 371 405 444 671 1300 1360 1900 2000
2020-12-08 21:45 3.60 952 3900 (1983) 287 (1956) 899 345 371 405 444 671 1300 1360 1900 2000
2020-12-08 20:45 3.60 952 3900 (1983) 287 (1956) 899 345 371 405 444 671 1300 1360 1900 2000
2020-12-08 19:45 3.60 952 3900 (1983) 287 (1956) 899 345 371 405 444 671 1300 1360 1900 2000
2020-12-08 18:45 3.60 952 3900 (1983) 287 (1956) 899 345 371 405 444 671 1300 1360 1900 2000
2020-12-08 17:45 3.60 952 3900 (1983) 287 (1956) 899 345 371 405 444 671 1300 1360 1900 2000
2020-12-08 16:45 3.60 952 3900 (1983) 287 (1956) 899 345 371 405 444 671 1300 1360 1900 2000
2020-12-08 15:45 3.60 952 3900 (1983) 287 (1956) 899 345 371 405 444 671 1300 1360 1900 2000
2020-12-08 14:45 3.60 952 3900 (1983) 287 (1956) 899 345 371 405 444 671 1300 1360 1900 2000
2020-12-08 13:45 3.60 952 3900 (1983) 287 (1956) 899 345 371 405 444 671 1300 1360 1900 2000
2020-12-08 12:45 3.60 952 3900 (1983) 287 (1956) 899 345 371 405 444 671 1300 1360 1900 2000
2020-12-08 11:45 3.59 945 3900 (1983) 287 (1956) 899 345 371 405 444 671 1300 1360 1900 2000
2020-12-08 10:45 3.60 952 3900 (1983) 287 (1956) 899 345 371 405 444 671 1300 1360 1900 2000
2020-12-08 09:45 3.60 952 3900 (1983) 287 (1956) 899 345 371 405 444 671 1300 1360 1900 2000
2020-12-08 08:45 3.60 952 3900 (1983) 287 (1956) 899 345 371 405 444 671 1300 1360 1900 2000
2020-12-08 07:45 3.61 959 3900 (1983) 287 (1956) 899 345 371 405 444 671 1300 1360 1900 2000
2020-12-08 06:45 3.61 959 3900 (1983) 287 (1956) 899 345 371 405 444 671 1300 1360 1900 2000
2020-12-08 05:45 3.61 959 3900 (1983) 287 (1956) 899 345 371 405 444 671 1300 1360 1900 2000
2020-12-08 04:45 3.62 965 3900 (1983) 287 (1956) 899 345 371 405 444 671 1300 1360 1900 2000
2020-12-08 03:45 3.62 965 3900 (1983) 287 (1956) 899 345 371 405 444 671 1300 1360 1900 2000
2020-12-08 02:45 3.62 965 3900 (1983) 287 (1956) 899 345 371 405 444 671 1300 1360 1900 2000
2020-12-08 01:45 3.62 965 3900 (1983) 287 (1956) 899 345 371 405 444 671 1300 1360 1900 2000
2020-12-08 00:45 3.62 965 3900 (1983) 287 (1956) 899 345 371 405 444 671 1300 1360 1900 2000
2020-12-07 23:45 3.61 959 5300 (1983) 283 (1956) 951 349 377 414 451 694 1150 1360 1930 2330
2020-12-07 22:45 3.62 965 5300 (1983) 283 (1956) 951 349 377 414 451 694 1150 1360 1930 2330
2020-12-07 21:45 3.62 965 5300 (1983) 283 (1956) 951 349 377 414 451 694 1150 1360 1930 2330
2020-12-07 20:45 3.62 965 5300 (1983) 283 (1956) 951 349 377 414 451 694 1150 1360 1930 2330
2020-12-07 19:45 3.62 965 5300 (1983) 283 (1956) 951 349 377 414 451 694 1150 1360 1930 2330
2020-12-07 18:45 3.62 965 5300 (1983) 283 (1956) 951 349 377 414 451 694 1150 1360 1930 2330
2020-12-07 17:45 3.62 965 5300 (1983) 283 (1956) 951 349 377 414 451 694 1150 1360 1930 2330
2020-12-07 16:45 3.62 965 5300 (1983) 283 (1956) 951 349 377 414 451 694 1150 1360 1930 2330
2020-12-07 15:45 3.62 965 5300 (1983) 283 (1956) 951 349 377 414 451 694 1150 1360 1930 2330
2020-12-07 14:45 3.62 965 5300 (1983) 283 (1956) 951 349 377 414 451 694 1150 1360 1930 2330
2020-12-07 13:45 3.62 965 5300 (1983) 283 (1956) 951 349 377 414 451 694 1150 1360 1930 2330
2020-12-07 12:45 3.62 965 5300 (1983) 283 (1956) 951 349 377 414 451 694 1150 1360 1930 2330
2020-12-07 11:45 3.61 959 5300 (1983) 283 (1956) 951 349 377 414 451 694 1150 1360 1930 2330
2020-12-07 10:45 3.62 965 5300 (1983) 283 (1956) 951 349 377 414 451 694 1150 1360 1930 2330
2020-12-07 09:45 3.62 965 5300 (1983) 283 (1956) 951 349 377 414 451 694 1150 1360 1930 2330
2020-12-07 08:45 3.63 972 5300 (1983) 283 (1956) 951 349 377 414 451 694 1150 1360 1930 2330
2020-12-07 07:45 3.63 972 5300 (1983) 283 (1956) 951 349 377 414 451 694 1150 1360 1930 2330
2020-12-07 06:45 3.63 972 5300 (1983) 283 (1956) 951 349 377 414 451 694 1150 1360 1930 2330
2020-12-07 05:45 3.63 972 5300 (1983) 283 (1956) 951 349 377 414 451 694 1150 1360 1930 2330
2020-12-07 04:45 3.64 978 5300 (1983) 283 (1956) 951 349 377 414 451 694 1150 1360 1930 2330
2020-12-07 03:45 3.64 978 5300 (1983) 283 (1956) 951 349 377 414 451 694 1150 1360 1930 2330
2020-12-07 02:45 3.64 978 5300 (1983) 283 (1956) 951 349 377 414 451 694 1150 1360 1930 2330
2020-12-07 01:45 3.63 972 5300 (1983) 283 (1956) 951 349 377 414 451 694 1150 1360 1930 2330
2020-12-07 00:45 3.63 972 5300 (1983) 283 (1956) 951 349 377 414 451 694 1150 1360 1930 2330
2020-12-06 23:45 3.64 978 7500 (1983) 258 (1957) 1050 345 358 414 436 689 1160 1350 2060 3130
2020-12-06 22:45 3.64 978 7500 (1983) 258 (1957) 1050 345 358 414 436 689 1160 1350 2060 3130
2020-12-06 21:45 3.64 978 7500 (1983) 258 (1957) 1050 345 358 414 436 689 1160 1350 2060 3130
2020-12-06 20:45 3.64 978 7500 (1983) 258 (1957) 1050 345 358 414 436 689 1160 1350 2060 3130
2020-12-06 19:45 3.64 978 7500 (1983) 258 (1957) 1050 345 358 414 436 689 1160 1350 2060 3130
2020-12-06 18:45 3.64 978 7500 (1983) 258 (1957) 1050 345 358 414 436 689 1160 1350 2060 3130
2020-12-06 17:45 3.64 978 7500 (1983) 258 (1957) 1050 345 358 414 436 689 1160 1350 2060 3130
2020-12-06 16:45 3.64 978 7500 (1983) 258 (1957) 1050 345 358 414 436 689 1160 1350 2060 3130
2020-12-06 15:45 3.64 978 7500 (1983) 258 (1957) 1050 345 358 414 436 689 1160 1350 2060 3130
2020-12-06 14:45 3.63 972 7500 (1983) 258 (1957) 1050 345 358 414 436 689 1160 1350 2060 3130
2020-12-06 13:45 3.65 985 7500 (1983) 258 (1957) 1050 345 358 414 436 689 1160 1350 2060 3130
2020-12-06 12:45 3.65 985 7500 (1983) 258 (1957) 1050 345 358 414 436 689 1160 1350 2060 3130
2020-12-06 11:45 3.64 978 7500 (1983) 258 (1957) 1050 345 358 414 436 689 1160 1350 2060 3130
2020-12-06 10:45 3.64 978 7500 (1983) 258 (1957) 1050 345 358 414 436 689 1160 1350 2060 3130
2020-12-06 09:45 3.65 985 7500 (1983) 258 (1957) 1050 345 358 414 436 689 1160 1350 2060 3130
2020-12-06 08:45 3.65 985 7500 (1983) 258 (1957) 1050 345 358 414 436 689 1160 1350 2060 3130
2020-12-06 07:45 3.65 985 7500 (1983) 258 (1957) 1050 345 358 414 436 689 1160 1350 2060 3130
2020-12-06 06:45 3.65 985 7500 (1983) 258 (1957) 1050 345 358 414 436 689 1160 1350 2060 3130
2020-12-06 05:45 3.65 985 7500 (1983) 258 (1957) 1050 345 358 414 436 689 1160 1350 2060 3130
2020-12-06 04:45 3.65 985 7500 (1983) 258 (1957) 1050 345 358 414 436 689 1160 1350 2060 3130
2020-12-06 03:45 3.66 992 7500 (1983) 258 (1957) 1050 345 358 414 436 689 1160 1350 2060 3130
2020-12-06 02:45 3.66 992 7500 (1983) 258 (1957) 1050 345 358 414 436 689 1160 1350 2060 3130
2020-12-06 01:45 3.66 992 7500 (1983) 258 (1957) 1050 345 358 414 436 689 1160 1350 2060 3130
2020-12-06 00:45 3.66 992 7500 (1983) 258 (1957) 1050 345 358 414 436 689 1160 1350 2060 3130
2020-12-05 23:45 3.66 992 12000 (1983) 258 (1957) 1110 323 351 405 435 665 1190 1340 2060 3420
2020-12-05 22:45 3.67 998 12000 (1983) 258 (1957) 1110 323 351 405 435 665 1190 1340 2060 3420
2020-12-05 21:45 3.67 998 12000 (1983) 258 (1957) 1110 323 351 405 435 665 1190 1340 2060 3420
2020-12-05 20:45 3.66 992 12000 (1983) 258 (1957) 1110 323 351 405 435 665 1190 1340 2060 3420
2020-12-05 19:45 3.67 998 12000 (1983) 258 (1957) 1110 323 351 405 435 665 1190 1340 2060 3420
2020-12-05 18:45 3.66 992 12000 (1983) 258 (1957) 1110 323 351 405 435 665 1190 1340 2060 3420
2020-12-05 17:45 3.67 998 12000 (1983) 258 (1957) 1110 323 351 405 435 665 1190 1340 2060 3420
2020-12-05 16:45 3.67 998 12000 (1983) 258 (1957) 1110 323 351 405 435 665 1190 1340 2060 3420
2020-12-05 15:45 3.67 998 12000 (1983) 258 (1957) 1110 323 351 405 435 665 1190 1340 2060 3420
2020-12-05 14:45 3.67 998 12000 (1983) 258 (1957) 1110 323 351 405 435 665 1190 1340 2060 3420
2020-12-05 13:45 3.64 978 12000 (1983) 258 (1957) 1110 323 351 405 435 665 1190 1340 2060 3420
2020-12-05 12:45 3.66 992 12000 (1983) 258 (1957) 1110 323 351 405 435 665 1190 1340 2060 3420
2020-12-05 11:45 3.66 992 12000 (1983) 258 (1957) 1110 323 351 405 435 665 1190 1340 2060 3420
2020-12-05 10:45 3.66 992 12000 (1983) 258 (1957) 1110 323 351 405 435 665 1190 1340 2060 3420
2020-12-05 09:45 3.67 998 12000 (1983) 258 (1957) 1110 323 351 405 435 665 1190 1340 2060 3420
2020-12-05 08:45 3.67 998 12000 (1983) 258 (1957) 1110 323 351 405 435 665 1190 1340 2060 3420
2020-12-05 07:45 3.68 1010 12000 (1983) 258 (1957) 1110 323 351 405 435 665 1190 1340 2060 3420
2020-12-05 06:45 3.68 1010 12000 (1983) 258 (1957) 1110 323 351 405 435 665 1190 1340 2060 3420
2020-12-05 05:45 3.68 1010 12000 (1983) 258 (1957) 1110 323 351 405 435 665 1190 1340 2060 3420
2020-12-05 04:45 3.68 1010 12000 (1983) 258 (1957) 1110 323 351 405 435 665 1190 1340 2060 3420
2020-12-05 03:45 3.69 1010 12000 (1983) 258 (1957) 1110 323 351 405 435 665 1190 1340 2060 3420
2020-12-05 02:45 3.68 1010 12000 (1983) 258 (1957) 1110 323 351 405 435 665 1190 1340 2060 3420
2020-12-05 01:45 3.68 1010 12000 (1983) 258 (1957) 1110 323 351 405 435 665 1190 1340 2060 3420
2020-12-05 00:45 3.69 1010 12000 (1983) 258 (1957) 1110 323 351 405 435 665 1190 1340 2060 3420
2020-12-04 23:45 3.69 1010 25000 (1983) 258 (1957) 1260 319 354 419 432 672 1180 1380 2180 2900
2020-12-04 22:45 3.69 1010 25000 (1983) 258 (1957) 1260 319 354 419 432 672 1180 1380 2180 2900
2020-12-04 21:45 3.70 1020 25000 (1983) 258 (1957) 1260 319 354 419 432 672 1180 1380 2180 2900
2020-12-04 20:45 3.70 1020 25000 (1983) 258 (1957) 1260 319 354 419 432 672 1180 1380 2180 2900
2020-12-04 19:45 3.70 1020 25000 (1983) 258 (1957) 1260 319 354 419 432 672 1180 1380 2180 2900
2020-12-04 18:45 3.70 1020 25000 (1983) 258 (1957) 1260 319 354 419 432 672 1180 1380 2180 2900
2020-12-04 17:45 3.70 1020 25000 (1983) 258 (1957) 1260 319 354 419 432 672 1180 1380 2180 2900
2020-12-04 16:45 3.70 1020 25000 (1983) 258 (1957) 1260 319 354 419 432 672 1180 1380 2180 2900
2020-12-04 15:45 3.70 1020 25000 (1983) 258 (1957) 1260 319 354 419 432 672 1180 1380 2180 2900
2020-12-04 14:45 3.70 1020 25000 (1983) 258 (1957) 1260 319 354 419 432 672 1180 1380 2180 2900
2020-12-04 13:45 3.67 998 25000 (1983) 258 (1957) 1260 319 354 419 432 672 1180 1380 2180 2900
2020-12-04 12:45 3.69 1010 25000 (1983) 258 (1957) 1260 319 354 419 432 672 1180 1380 2180 2900
2020-12-04 11:45 3.70 1020 25000 (1983) 258 (1957) 1260 319 354 419 432 672 1180 1380 2180 2900
2020-12-04 10:45 3.70 1020 25000 (1983) 258 (1957) 1260 319 354 419 432 672 1180 1380 2180 2900
2020-12-04 09:45 3.71 1030 25000 (1983) 258 (1957) 1260 319 354 419 432 672 1180 1380 2180 2900
2020-12-04 08:45 3.71 1030 25000 (1983) 258 (1957) 1260 319 354 419 432 672 1180 1380 2180 2900
2020-12-04 07:45 3.71 1030 25000 (1983) 258 (1957) 1260 319 354 419 432 672 1180 1380 2180 2900
2020-12-04 06:45 3.71 1030 25000 (1983) 258 (1957) 1260 319 354 419 432 672 1180 1380 2180 2900
2020-12-04 05:45 3.71 1030 25000 (1983) 258 (1957) 1260 319 354 419 432 672 1180 1380 2180 2900
2020-12-04 04:45 3.71 1030 25000 (1983) 258 (1957) 1260 319 354 419 432 672 1180 1380 2180 2900
2020-12-04 03:45 3.71 1030 25000 (1983) 258 (1957) 1260 319 354 419 432 672 1180 1380 2180 2900
2020-12-04 02:45 3.71 1030 25000 (1983) 258 (1957) 1260 319 354 419 432 672 1180 1380 2180 2900
2020-12-04 01:45 3.72 1030 25000 (1983) 258 (1957) 1260 319 354 419 432 672 1180 1380 2180 2900
2020-12-04 00:45 3.72 1030 25000 (1983) 258 (1957) 1260 319 354 419 432 672 1180 1380 2180 2900
2020-12-03 23:45 3.71 1030 53500 (1983) 258 (1957) 1550 319 363 415 437 650 1090 1390 2250 2840
2020-12-03 22:45 3.72 1030 53500 (1983) 258 (1957) 1550 319 363 415 437 650 1090 1390 2250 2840
2020-12-03 21:45 3.72 1030 53500 (1983) 258 (1957) 1550 319 363 415 437 650 1090 1390 2250 2840
2020-12-03 20:45 3.72 1030 53500 (1983) 258 (1957) 1550 319 363 415 437 650 1090 1390 2250 2840
2020-12-03 19:45 3.72 1030 53500 (1983) 258 (1957) 1550 319 363 415 437 650 1090 1390 2250 2840
2020-12-03 18:45 3.72 1030 53500 (1983) 258 (1957) 1550 319 363 415 437 650 1090 1390 2250 2840
2020-12-03 17:45 3.72 1030 53500 (1983) 258 (1957) 1550 319 363 415 437 650 1090 1390 2250 2840
2020-12-03 16:45 3.72 1030 53500 (1983) 258 (1957) 1550 319 363 415 437 650 1090 1390 2250 2840
2020-12-03 15:45 3.72 1030 53500 (1983) 258 (1957) 1550 319 363 415 437 650 1090 1390 2250 2840
2020-12-03 14:45 3.73 1040 53500 (1983) 258 (1957) 1550 319 363 415 437 650 1090 1390 2250 2840
2020-12-03 13:45 3.74 1050 53500 (1983) 258 (1957) 1550 319 363 415 437 650 1090 1390 2250 2840
2020-12-03 12:45 3.73 1040 53500 (1983) 258 (1957) 1550 319 363 415 437 650 1090 1390 2250 2840
2020-12-03 11:45 3.73 1040 53500 (1983) 258 (1957) 1550 319 363 415 437 650 1090 1390 2250 2840
2020-12-03 10:45 3.73 1040 53500 (1983) 258 (1957) 1550 319 363 415 437 650 1090 1390 2250 2840
2020-12-03 09:45 3.73 1040 53500 (1983) 258 (1957) 1550 319 363 415 437 650 1090 1390 2250 2840
2020-12-03 08:45 3.73 1040 53500 (1983) 258 (1957) 1550 319 363 415 437 650 1090 1390 2250 2840
2020-12-03 07:45 3.74 1050 53500 (1983) 258 (1957) 1550 319 363 415 437 650 1090 1390 2250 2840
2020-12-03 06:45 3.74 1050 53500 (1983) 258 (1957) 1550 319 363 415 437 650 1090 1390 2250 2840
2020-12-03 05:45 3.74 1050 53500 (1983) 258 (1957) 1550 319 363 415 437 650 1090 1390 2250 2840
2020-12-03 04:45 3.74 1050 53500 (1983) 258 (1957) 1550 319 363 415 437 650 1090 1390 2250 2840
2020-12-03 03:45 3.74 1050 53500 (1983) 258 (1957) 1550 319 363 415 437 650 1090 1390 2250 2840
2020-12-03 02:45 3.74 1050 53500 (1983) 258 (1957) 1550 319 363 415 437 650 1090 1390 2250 2840
2020-12-03 01:45 3.75 1050 53500 (1983) 258 (1957) 1550 319 363 415 437 650 1090 1390 2250 2840
2020-12-03 00:45 3.75 1050 53500 (1983) 258 (1957) 1550 319 363 415 437 650 1090 1390 2250 2840
2020-12-02 23:45 3.75 1050 9310 (2007) 262 (1957) 979 320 367 415 439 651 1060 1220 2000 2450
2020-12-02 22:45 3.75 1050 9310 (2007) 262 (1957) 979 320 367 415 439 651 1060 1220 2000 2450
2020-12-02 21:45 3.75 1050 9310 (2007) 262 (1957) 979 320 367 415 439 651 1060 1220 2000 2450
2020-12-02 20:45 3.75 1050 9310 (2007) 262 (1957) 979 320 367 415 439 651 1060 1220 2000 2450
2020-12-02 19:45 3.75 1050 9310 (2007) 262 (1957) 979 320 367 415 439 651 1060 1220 2000 2450
2020-12-02 18:45 3.75 1050 9310 (2007) 262 (1957) 979 320 367 415 439 651 1060 1220 2000 2450
2020-12-02 17:45 3.75 1050 9310 (2007) 262 (1957) 979 320 367 415 439 651 1060 1220 2000 2450
2020-12-02 16:45 3.75 1050 9310 (2007) 262 (1957) 979 320 367 415 439 651 1060 1220 2000 2450
2020-12-02 15:45 3.76 1060 9310 (2007) 262 (1957) 979 320 367 415 439 651 1060 1220 2000 2450
2020-12-02 14:45 3.76 1060 9310 (2007) 262 (1957) 979 320 367 415 439 651 1060 1220 2000 2450
2020-12-02 13:45 3.76 1060 9310 (2007) 262 (1957) 979 320 367 415 439 651 1060 1220 2000 2450
2020-12-02 12:45 3.76 1060 9310 (2007) 262 (1957) 979 320 367 415 439 651 1060 1220 2000 2450
2020-12-02 11:45 3.71 1030 9310 (2007) 262 (1957) 979 320 367 415 439 651 1060 1220 2000 2450
2020-12-02 10:45 3.71 1030 9310 (2007) 262 (1957) 979 320 367 415 439 651 1060 1220 2000 2450
2020-12-02 09:45 3.76 1060 9310 (2007) 262 (1957) 979 320 367 415 439 651 1060 1220 2000 2450
2020-12-02 08:45 3.76 1060 9310 (2007) 262 (1957) 979 320 367 415 439 651 1060 1220 2000 2450
2020-12-02 07:45 3.77 1070 9310 (2007) 262 (1957) 979 320 367 415 439 651 1060 1220 2000 2450
2020-12-02 06:45 3.78 1070 9310 (2007) 262 (1957) 979 320 367 415 439 651 1060 1220 2000 2450
2020-12-02 05:45 3.78 1070 9310 (2007) 262 (1957) 979 320 367 415 439 651 1060 1220 2000 2450
2020-12-02 04:45 3.78 1070 9310 (2007) 262 (1957) 979 320 367 415 439 651 1060 1220 2000 2450
2020-12-02 03:45 3.78 1070 9310 (2007) 262 (1957) 979 320 367 415 439 651 1060 1220 2000 2450
2020-12-02 02:45 3.78 1070 9310 (2007) 262 (1957) 979 320 367 415 439 651 1060 1220 2000 2450
2020-12-02 01:45 3.78 1070 9310 (2007) 262 (1957) 979 320 367 415 439 651 1060 1220 2000 2450
2020-12-02 00:45 3.79 1080 9310 (2007) 262 (1957) 979 320 367 415 439 651 1060 1220 2000 2450
2020-12-01 23:45 3.79 1080 5510 (2007) 270 (1957) 935 321 368 400 439 643 1150 1320 1950 2560
2020-12-01 22:45 3.79 1080 5510 (2007) 270 (1957) 935 321 368 400 439 643 1150 1320 1950 2560
2020-12-01 21:45 3.79 1080 5510 (2007) 270 (1957) 935 321 368 400 439 643 1150 1320 1950 2560
2020-12-01 20:45 3.80 1090 5510 (2007) 270 (1957) 935 321 368 400 439 643 1150 1320 1950 2560
2020-12-01 19:45 3.80 1090 5510 (2007) 270 (1957) 935 321 368 400 439 643 1150 1320 1950 2560
2020-12-01 18:45 3.79 1080 5510 (2007) 270 (1957) 935 321 368 400 439 643 1150 1320 1950 2560
2020-12-01 17:45 3.80 1090 5510 (2007) 270 (1957) 935 321 368 400 439 643 1150 1320 1950 2560
2020-12-01 16:45 3.80 1090 5510 (2007) 270 (1957) 935 321 368 400 439 643 1150 1320 1950 2560
2020-12-01 15:45 3.80 1090 5510 (2007) 270 (1957) 935 321 368 400 439 643 1150 1320 1950 2560
2020-12-01 14:45 3.81 1090 5510 (2007) 270 (1957) 935 321 368 400 439 643 1150 1320 1950 2560
2020-12-01 13:45 3.78 1070 5510 (2007) 270 (1957) 935 321 368 400 439 643 1150 1320 1950 2560
2020-12-01 12:45 3.77 1070 5510 (2007) 270 (1957) 935 321 368 400 439 643 1150 1320 1950 2560
2020-12-01 11:45 3.80 1090 5510 (2007) 270 (1957) 935 321 368 400 439 643 1150 1320 1950 2560
2020-12-01 10:45 3.80 1090 5510 (2007) 270 (1957) 935 321 368 400 439 643 1150 1320 1950 2560
2020-12-01 09:45 3.80 1090 5510 (2007) 270 (1957) 935 321 368 400 439 643 1150 1320 1950 2560
2020-12-01 08:45 3.80 1090 5510 (2007) 270 (1957) 935 321 368 400 439 643 1150 1320 1950 2560
2020-12-01 07:45 3.81 1090 5510 (2007) 270 (1957) 935 321 368 400 439 643 1150 1320 1950 2560
2020-12-01 06:45 3.81 1090 5510 (2007) 270 (1957) 935 321 368 400 439 643 1150 1320 1950 2560
2020-12-01 05:45 3.82 1100 5510 (2007) 270 (1957) 935 321 368 400 439 643 1150 1320 1950 2560
2020-12-01 04:45 3.82 1100 5510 (2007) 270 (1957) 935 321 368 400 439 643 1150 1320 1950 2560
2020-12-01 03:45 3.82 1100 5510 (2007) 270 (1957) 935 321 368 400 439 643 1150 1320 1950 2560
2020-12-01 02:45 3.83 1110 5510 (2007) 270 (1957) 935 321 368 400 439 643 1150 1320 1950 2560
2020-12-01 01:45 3.82 1100 5510 (2007) 270 (1957) 935 321 368 400 439 643 1150 1320 1950 2560
2020-12-01 00:45 3.83 1110 5510 (2007) 270 (1957) 935 321 368 400 439 643 1150 1320 1950 2560
2020-11-30 23:45 3.83 1110 4000 (1985) 270 (1957) 921 321 366 410 446 628 1260 1410 1750 2660
2020-11-30 22:45 3.84 1110 4000 (1985) 270 (1957) 921 321 366 410 446 628 1260 1410 1750 2660
2020-11-30 21:45 3.84 1110 4000 (1985) 270 (1957) 921 321 366 410 446 628 1260 1410 1750 2660
2020-11-30 20:45 3.85 1120 4000 (1985) 270 (1957) 921 321 366 410 446 628 1260 1410 1750 2660
2020-11-30 19:45 3.84 1110 4000 (1985) 270 (1957) 921 321 366 410 446 628 1260 1410 1750 2660
2020-11-30 18:45 3.84 1110 4000 (1985) 270 (1957) 921 321 366 410 446 628 1260 1410 1750 2660
2020-11-30 17:45 3.84 1110 4000 (1985) 270 (1957) 921 321 366 410 446 628 1260 1410 1750 2660
2020-11-30 16:45 3.85 1120 4000 (1985) 270 (1957) 921 321 366 410 446 628 1260 1410 1750 2660
2020-11-30 15:45 3.86 1130 4000 (1985) 270 (1957) 921 321 366 410 446 628 1260 1410 1750 2660
2020-11-30 14:45 3.80 1090 4000 (1985) 270 (1957) 921 321 366 410 446 628 1260 1410 1750 2660
2020-11-30 13:45 3.81 1090 4000 (1985) 270 (1957) 921 321 366 410 446 628 1260 1410 1750 2660
2020-11-30 12:45 3.83 1110 4000 (1985) 270 (1957) 921 321 366 410 446 628 1260 1410 1750 2660
2020-11-30 11:45 3.86 1130 4000 (1985) 270 (1957) 921 321 366 410 446 628 1260 1410 1750 2660
2020-11-30 10:45 3.83 1110 4000 (1985) 270 (1957) 921 321 366 410 446 628 1260 1410 1750 2660
2020-11-30 09:45 3.84 1110 4000 (1985) 270 (1957) 921 321 366 410 446 628 1260 1410 1750 2660
2020-11-30 08:45 3.86 1130 4000 (1985) 270 (1957) 921 321 366 410 446 628 1260 1410 1750 2660
2020-11-30 07:45 3.86 1130 4000 (1985) 270 (1957) 921 321 366 410 446 628 1260 1410 1750 2660
2020-11-30 06:45 3.86 1130 4000 (1985) 270 (1957) 921 321 366 410 446 628 1260 1410 1750 2660
2020-11-30 05:45 3.86 1130 4000 (1985) 270 (1957) 921 321 366 410 446 628 1260 1410 1750 2660
2020-11-30 04:45 3.84 1110 4000 (1985) 270 (1957) 921 321 366 410 446 628 1260 1410 1750 2660
2020-11-30 03:45 3.85 1120 4000 (1985) 270 (1957) 921 321 366 410 446 628 1260 1410 1750 2660
2020-11-30 02:45 3.84 1110 4000 (1985) 270 (1957) 921 321 366 410 446 628 1260 1410 1750 2660
2020-11-30 01:45 3.89 1150 4000 (1985) 270 (1957) 921 321 366 410 446 628 1260 1410 1750 2660
2020-11-30 00:45 3.88 1140 4000 (1985) 270 (1957) 921 321 366 410 446 628 1260 1410 1750 2660
2020-11-29 23:45 3.89 1150 6500 (1985) 270 (1957) 1000 322 366 415 444 621 1240 1450 2000 3320
2020-11-29 22:45 3.89 1150 6500 (1985) 270 (1957) 1000 322 366 415 444 621 1240 1450 2000 3320
2020-11-29 21:45 3.90 1160 6500 (1985) 270 (1957) 1000 322 366 415 444 621 1240 1450 2000 3320
2020-11-29 20:45 3.90 1160 6500 (1985) 270 (1957) 1000 322 366 415 444 621 1240 1450 2000 3320
2020-11-29 19:45 3.89 1150 6500 (1985) 270 (1957) 1000 322 366 415 444 621 1240 1450 2000 3320
2020-11-29 18:45 3.87 1130 6500 (1985) 270 (1957) 1000 322 366 415 444 621 1240 1450 2000 3320
2020-11-29 17:45 3.90 1160 6500 (1985) 270 (1957) 1000 322 366 415 444 621 1240 1450 2000 3320
2020-11-29 16:45 3.90 1160 6500 (1985) 270 (1957) 1000 322 366 415 444 621 1240 1450 2000 3320
2020-11-29 15:45 3.90 1160 6500 (1985) 270 (1957) 1000 322 366 415 444 621 1240 1450 2000 3320
2020-11-29 14:45 3.91 1160 6500 (1985) 270 (1957) 1000 322 366 415 444 621 1240 1450 2000 3320
2020-11-29 13:45 3.91 1160 6500 (1985) 270 (1957) 1000 322 366 415 444 621 1240 1450 2000 3320
2020-11-29 12:45 3.91 1160 6500 (1985) 270 (1957) 1000 322 366 415 444 621 1240 1450 2000 3320
2020-11-29 11:45 3.91 1160 6500 (1985) 270 (1957) 1000 322 366 415 444 621 1240 1450 2000 3320
2020-11-29 10:45 3.91 1160 6500 (1985) 270 (1957) 1000 322 366 415 444 621 1240 1450 2000 3320
2020-11-29 09:45 3.91 1160 6500 (1985) 270 (1957) 1000 322 366 415 444 621 1240 1450 2000 3320
2020-11-29 08:45 3.92 1170 6500 (1985) 270 (1957) 1000 322 366 415 444 621 1240 1450 2000 3320
2020-11-29 07:45 3.92 1170 6500 (1985) 270 (1957) 1000 322 366 415 444 621 1240 1450 2000 3320
2020-11-29 06:45 3.93 1180 6500 (1985) 270 (1957) 1000 322 366 415 444 621 1240 1450 2000 3320
2020-11-29 05:45 3.93 1180 6500 (1985) 270 (1957) 1000 322 366 415 444 621 1240 1450 2000 3320
2020-11-29 04:45 3.93 1180 6500 (1985) 270 (1957) 1000 322 366 415 444 621 1240 1450 2000 3320
2020-11-29 03:45 3.94 1180 6500 (1985) 270 (1957) 1000 322 366 415 444 621 1240 1450 2000 3320
2020-11-29 02:45 3.94 1180 6500 (1985) 270 (1957) 1000 322 366 415 444 621 1240 1450 2000 3320
2020-11-29 01:45 3.95 1190 6500 (1985) 270 (1957) 1000 322 366 415 444 621 1240 1450 2000 3320
2020-11-29 00:45 3.94 1180 6500 (1985) 270 (1957) 1000 322 366 415 444 621 1240 1450 2000 3320
2020-11-28 23:45 3.94 1180 12600 (1985) 279 (1957) 1150 323 373 405 440 624 1280 1480 2300 3530
2020-11-28 22:45 3.95 1190 12600 (1985) 279 (1957) 1150 323 373 405 440 624 1280 1480 2300 3530
2020-11-28 21:45 3.95 1190 12600 (1985) 279 (1957) 1150 323 373 405 440 624 1280 1480 2300 3530
2020-11-28 20:45 3.96 1200 12600 (1985) 279 (1957) 1150 323 373 405 440 624 1280 1480 2300 3530
2020-11-28 19:45 3.96 1200 12600 (1985) 279 (1957) 1150 323 373 405 440 624 1280 1480 2300 3530
2020-11-28 18:45 3.96 1200 12600 (1985) 279 (1957) 1150 323 373 405 440 624 1280 1480 2300 3530
2020-11-28 17:45 3.96 1200 12600 (1985) 279 (1957) 1150 323 373 405 440 624 1280 1480 2300 3530
2020-11-28 16:45 3.97 1200 12600 (1985) 279 (1957) 1150 323 373 405 440 624 1280 1480 2300 3530
2020-11-28 15:45 3.97 1200 12600 (1985) 279 (1957) 1150 323 373 405 440 624 1280 1480 2300 3530
2020-11-28 14:45 3.97 1200 12600 (1985) 279 (1957) 1150 323 373 405 440 624 1280 1480 2300 3530
2020-11-28 13:45 3.98 1210 12600 (1985) 279 (1957) 1150 323 373 405 440 624 1280 1480 2300 3530
2020-11-28 12:45 3.97 1200 12600 (1985) 279 (1957) 1150 323 373 405 440 624 1280 1480 2300 3530
2020-11-28 11:45 3.98 1210 12600 (1985) 279 (1957) 1150 323 373 405 440 624 1280 1480 2300 3530
2020-11-28 10:45 3.99 1220 12600 (1985) 279 (1957) 1150 323 373 405 440 624 1280 1480 2300 3530
2020-11-28 09:45 3.98 1210 12600 (1985) 279 (1957) 1150 323 373 405 440 624 1280 1480 2300 3530
2020-11-28 08:45 3.99 1220 12600 (1985) 279 (1957) 1150 323 373 405 440 624 1280 1480 2300 3530
2020-11-28 07:45 4.00 1230 12600 (1985) 279 (1957) 1150 323 373 405 440 624 1280 1480 2300 3530
2020-11-28 06:45 4.00 1230 12600 (1985) 279 (1957) 1150 323 373 405 440 624 1280 1480 2300 3530
2020-11-28 05:45 4.00 1230 12600 (1985) 279 (1957) 1150 323 373 405 440 624 1280 1480 2300 3530
2020-11-28 04:45 4.01 1230 12600 (1985) 279 (1957) 1150 323 373 405 440 624 1280 1480 2300 3530
2020-11-28 03:45 4.01 1230 12600 (1985) 279 (1957) 1150 323 373 405 440 624 1280 1480 2300 3530
2020-11-28 02:45 4.01 1230 12600 (1985) 279 (1957) 1150 323 373 405 440 624 1280 1480 2300 3530
2020-11-28 01:45 4.01 1230 12600 (1985) 279 (1957) 1150 323 373 405 440 624 1280 1480 2300 3530
2020-11-28 00:45 4.03 1250 12600 (1985) 279 (1957) 1150 323 373 405 440 624 1280 1480 2300 3530
2020-11-27 23:45 4.03 1250 10200 (1985) 287 (1955) 1140 315 363 395 433 628 1160 1360 2090 3940
2020-11-27 22:45 4.03 1250 10200 (1985) 287 (1955) 1140 315 363 395 433 628 1160 1360 2090 3940
2020-11-27 21:45 4.03 1250 10200 (1985) 287 (1955) 1140 315 363 395 433 628 1160 1360 2090 3940
2020-11-27 20:45 4.04 1250 10200 (1985) 287 (1955) 1140 315 363 395 433 628 1160 1360 2090 3940
2020-11-27 19:45 4.04 1250 10200 (1985) 287 (1955) 1140 315 363 395 433 628 1160 1360 2090 3940
2020-11-27 18:45 4.05 1260 10200 (1985) 287 (1955) 1140 315 363 395 433 628 1160 1360 2090 3940
2020-11-27 17:45 4.05 1260 10200 (1985) 287 (1955) 1140 315 363 395 433 628 1160 1360 2090 3940
2020-11-27 16:45 4.05 1260 10200 (1985) 287 (1955) 1140 315 363 395 433 628 1160 1360 2090 3940
2020-11-27 15:45 4.05 1260 10200 (1985) 287 (1955) 1140 315 363 395 433 628 1160 1360 2090 3940
2020-11-27 14:45 4.04 1250 10200 (1985) 287 (1955) 1140 315 363 395 433 628 1160 1360 2090 3940
2020-11-27 13:45 4.06 1270 10200 (1985) 287 (1955) 1140 315 363 395 433 628 1160 1360 2090 3940
2020-11-27 12:45 4.06 1270 10200 (1985) 287 (1955) 1140 315 363 395 433 628 1160 1360 2090 3940
2020-11-27 11:45 4.06 1270 10200 (1985) 287 (1955) 1140 315 363 395 433 628 1160 1360 2090 3940
2020-11-27 10:45 4.06 1270 10200 (1985) 287 (1955) 1140 315 363 395 433 628 1160 1360 2090 3940
2020-11-27 09:45 4.06 1270 10200 (1985) 287 (1955) 1140 315 363 395 433 628 1160 1360 2090 3940
2020-11-27 08:45 4.06 1270 10200 (1985) 287 (1955) 1140 315 363 395 433 628 1160 1360 2090 3940
2020-11-27 07:45 4.06 1270 10200 (1985) 287 (1955) 1140 315 363 395 433 628 1160 1360 2090 3940
2020-11-27 06:45 4.08 1280 10200 (1985) 287 (1955) 1140 315 363 395 433 628 1160 1360 2090 3940
2020-11-27 05:45 4.07 1280 10200 (1985) 287 (1955) 1140 315 363 395 433 628 1160 1360 2090 3940
2020-11-27 04:45 4.08 1280 10200 (1985) 287 (1955) 1140 315 363 395 433 628 1160 1360 2090 3940
2020-11-27 03:45 4.08 1280 10200 (1985) 287 (1955) 1140 315 363 395 433 628 1160 1360 2090 3940
2020-11-27 02:45 4.08 1280 10200 (1985) 287 (1955) 1140 315 363 395 433 628 1160 1360 2090 3940
2020-11-27 01:45 4.09 1290 10200 (1985) 287 (1955) 1140 315 363 395 433 628 1160 1360 2090 3940
2020-11-27 00:45 4.09 1290 10200 (1985) 287 (1955) 1140 315 363 395 433 628 1160 1360 2090 3940
2020-11-26 23:45 4.09 1290 15000 (1974) 287 (1955) 1080 313 357 410 429 594 1150 1340 1740 2570
2020-11-26 22:45 4.09 1290 15000 (1974) 287 (1955) 1080 313 357 410 429 594 1150 1340 1740 2570
2020-11-26 21:45 4.09 1290 15000 (1974) 287 (1955) 1080 313 357 410 429 594 1150 1340 1740 2570
2020-11-26 20:45 4.09 1290 15000 (1974) 287 (1955) 1080 313 357 410 429 594 1150 1340 1740 2570
2020-11-26 19:45 4.10 1300 15000 (1974) 287 (1955) 1080 313 357 410 429 594 1150 1340 1740 2570
2020-11-26 18:45 4.10 1300 15000 (1974) 287 (1955) 1080 313 357 410 429 594 1150 1340 1740 2570
2020-11-26 17:45 4.10 1300 15000 (1974) 287 (1955) 1080 313 357 410 429 594 1150 1340 1740 2570
2020-11-26 16:45 4.10 1300 15000 (1974) 287 (1955) 1080 313 357 410 429 594 1150 1340 1740 2570
2020-11-26 15:45 4.09 1290 15000 (1974) 287 (1955) 1080 313 357 410 429 594 1150 1340 1740 2570
2020-11-26 14:45 4.09 1290 15000 (1974) 287 (1955) 1080 313 357 410 429 594 1150 1340 1740 2570
2020-11-26 13:45 4.08 1280 15000 (1974) 287 (1955) 1080 313 357 410 429 594 1150 1340 1740 2570
2020-11-26 12:45 4.05 1260 15000 (1974) 287 (1955) 1080 313 357 410 429 594 1150 1340 1740 2570
2020-11-26 11:45 4.07 1280 15000 (1974) 287 (1955) 1080 313 357 410 429 594 1150 1340 1740 2570
2020-11-26 10:45 4.05 1260 15000 (1974) 287 (1955) 1080 313 357 410 429 594 1150 1340 1740 2570
2020-11-26 09:45 4.05 1260 15000 (1974) 287 (1955) 1080 313 357 410 429 594 1150 1340 1740 2570
2020-11-26 08:45 4.04 1250 15000 (1974) 287 (1955) 1080 313 357 410 429 594 1150 1340 1740 2570
2020-11-26 07:45 4.03 1250 15000 (1974) 287 (1955) 1080 313 357 410 429 594 1150 1340 1740 2570
2020-11-26 06:45 4.02 1240 15000 (1974) 287 (1955) 1080 313 357 410 429 594 1150 1340 1740 2570
2020-11-26 05:45 4.01 1230 15000 (1974) 287 (1955) 1080 313 357 410 429 594 1150 1340 1740 2570
2020-11-26 04:45 3.99 1220 15000 (1974) 287 (1955) 1080 313 357 410 429 594 1150 1340 1740 2570
2020-11-26 03:45 3.97 1200 15000 (1974) 287 (1955) 1080 313 357 410 429 594 1150 1340 1740 2570
2020-11-26 02:45 3.95 1190 15000 (1974) 287 (1955) 1080 313 357 410 429 594 1150 1340 1740 2570
2020-11-26 01:45 3.94 1180 15000 (1974) 287 (1955) 1080 313 357 410 429 594 1150 1340 1740 2570
2020-11-26 00:45 3.92 1170 15000 (1974) 287 (1955) 1080 313 357 410 429 594 1150 1340 1740 2570
2020-11-25 23:45 3.90 1160 12000 (1974) 287 (1955) 1020 315 364 395 419 574 1100 1260 1600 2220
2020-11-25 22:45 3.89 1150 12000 (1974) 287 (1955) 1020 315 364 395 419 574 1100 1260 1600 2220
2020-11-25 21:45 3.88 1140 12000 (1974) 287 (1955) 1020 315 364 395 419 574 1100 1260 1600 2220
2020-11-25 20:45 3.86 1130 12000 (1974) 287 (1955) 1020 315 364 395 419 574 1100 1260 1600 2220
2020-11-25 19:45 3.85 1120 12000 (1974) 287 (1955) 1020 315 364 395 419 574 1100 1260 1600 2220
2020-11-25 18:45 3.84 1110 12000 (1974) 287 (1955) 1020 315 364 395 419 574 1100 1260 1600 2220
2020-11-25 17:45 3.82 1100 12000 (1974) 287 (1955) 1020 315 364 395 419 574 1100 1260 1600 2220
2020-11-25 16:45 3.76 1060 12000 (1974) 287 (1955) 1020 315 364 395 419 574 1100 1260 1600 2220
2020-11-25 15:45 3.80 1090 12000 (1974) 287 (1955) 1020 315 364 395 419 574 1100 1260 1600 2220
2020-11-25 14:45 3.78 1070 12000 (1974) 287 (1955) 1020 315 364 395 419 574 1100 1260 1600 2220
2020-11-25 13:45 3.78 1070 12000 (1974) 287 (1955) 1020 315 364 395 419 574 1100 1260 1600 2220
2020-11-25 12:45 3.77 1070 12000 (1974) 287 (1955) 1020 315 364 395 419 574 1100 1260 1600 2220
2020-11-25 11:45 3.76 1060 12000 (1974) 287 (1955) 1020 315 364 395 419 574 1100 1260 1600 2220
2020-11-25 10:45 3.75 1050 12000 (1974) 287 (1955) 1020 315 364 395 419 574 1100 1260 1600 2220
2020-11-25 09:45 3.75 1050 12000 (1974) 287 (1955) 1020 315 364 395 419 574 1100 1260 1600 2220
2020-11-25 08:45 3.74 1050 12000 (1974) 287 (1955) 1020 315 364 395 419 574 1100 1260 1600 2220
2020-11-25 07:45 3.72 1030 12000 (1974) 287 (1955) 1020 315 364 395 419 574 1100 1260 1600 2220
2020-11-25 06:45 3.71 1030 12000 (1974) 287 (1955) 1020 315 364 395 419 574 1100 1260 1600 2220
2020-11-25 05:45 3.70 1020 12000 (1974) 287 (1955) 1020 315 364 395 419 574 1100 1260 1600 2220
2020-11-25 04:45 3.70 1020 12000 (1974) 287 (1955) 1020 315 364 395 419 574 1100 1260 1600 2220
2020-11-25 03:45 3.68 1010 12000 (1974) 287 (1955) 1020 315 364 395 419 574 1100 1260 1600 2220
2020-11-25 02:45 3.65 985 12000 (1974) 287 (1955) 1020 315 364 395 419 574 1100 1260 1600 2220
2020-11-25 01:45 3.66 992 12000 (1974) 287 (1955) 1020 315 364 395 419 574 1100 1260 1600 2220
2020-11-25 00:45 3.65 985 12000 (1974) 287 (1955) 1020 315 364 395 419 574 1100 1260 1600 2220
2020-11-24 23:45 3.65 985 7280 (1952) 287 (1955) 985 323 357 395 421 580 1130 1350 1710 2550
2020-11-24 22:45 3.64 978 7280 (1952) 287 (1955) 985 323 357 395 421 580 1130 1350 1710 2550
2020-11-24 21:45 3.61 959 7280 (1952) 287 (1955) 985 323 357 395 421 580 1130 1350 1710 2550
2020-11-24 20:45 3.62 965 7280 (1952) 287 (1955) 985 323 357 395 421 580 1130 1350 1710 2550
2020-11-24 19:45 3.62 965 7280 (1952) 287 (1955) 985 323 357 395 421 580 1130 1350 1710 2550
2020-11-24 18:45 3.62 965 7280 (1952) 287 (1955) 985 323 357 395 421 580 1130 1350 1710 2550
2020-11-24 17:45 3.62 965 7280 (1952) 287 (1955) 985 323 357 395 421 580 1130 1350 1710 2550
2020-11-24 16:45 3.59 945 7280 (1952) 287 (1955) 985 323 357 395 421 580 1130 1350 1710 2550
2020-11-24 15:45 3.63 972 7280 (1952) 287 (1955) 985 323 357 395 421 580 1130 1350 1710 2550
2020-11-24 14:45 3.60 952 7280 (1952) 287 (1955) 985 323 357 395 421 580 1130 1350 1710 2550
2020-11-24 13:45 3.60 952 7280 (1952) 287 (1955) 985 323 357 395 421 580 1130 1350 1710 2550
2020-11-24 12:45 3.57 932 7280 (1952) 287 (1955) 985 323 357 395 421 580 1130 1350 1710 2550
2020-11-24 11:45 3.62 965 7280 (1952) 287 (1955) 985 323 357 395 421 580 1130 1350 1710 2550
2020-11-24 10:45 3.59 945 7280 (1952) 287 (1955) 985 323 357 395 421 580 1130 1350 1710 2550
2020-11-24 09:45 3.62 965 7280 (1952) 287 (1955) 985 323 357 395 421 580 1130 1350 1710 2550
2020-11-24 08:45 3.62 965 7280 (1952) 287 (1955) 985 323 357 395 421 580 1130 1350 1710 2550
2020-11-24 07:45 3.62 965 7280 (1952) 287 (1955) 985 323 357 395 421 580 1130 1350 1710 2550
2020-11-24 06:45 3.62 965 7280 (1952) 287 (1955) 985 323 357 395 421 580 1130 1350 1710 2550
2020-11-24 05:45 3.62 965 7280 (1952) 287 (1955) 985 323 357 395 421 580 1130 1350 1710 2550
2020-11-24 04:45 3.62 965 7280 (1952) 287 (1955) 985 323 357 395 421 580 1130 1350 1710 2550
2020-11-24 03:45 3.62 965 7280 (1952) 287 (1955) 985 323 357 395 421 580 1130 1350 1710 2550
2020-11-24 02:45 3.63 972 7280 (1952) 287 (1955) 985 323 357 395 421 580 1130 1350 1710 2550
2020-11-24 01:45 3.63 972 7280 (1952) 287 (1955) 985 323 357 395 421 580 1130 1350 1710 2550
2020-11-24 00:45 3.63 972 7280 (1952) 287 (1955) 985 323 357 395 421 580 1130 1350 1710 2550
2020-11-23 23:45 3.63 972 3600 (1943) 264 (2002) 902 328 354 405 431 582 1150 1510 2070 2470
2020-11-23 22:45 3.63 972 3600 (1943) 264 (2002) 902 328 354 405 431 582 1150 1510 2070 2470
2020-11-23 21:45 3.62 965 3600 (1943) 264 (2002) 902 328 354 405 431 582 1150 1510 2070 2470
2020-11-23 20:45 3.63 972 3600 (1943) 264 (2002) 902 328 354 405 431 582 1150 1510 2070 2470
2020-11-23 19:45 3.63 972 3600 (1943) 264 (2002) 902 328 354 405 431 582 1150 1510 2070 2470
2020-11-23 18:45 3.62 965 3600 (1943) 264 (2002) 902 328 354 405 431 582 1150 1510 2070 2470
2020-11-23 17:45 3.63 972 3600 (1943) 264 (2002) 902 328 354 405 431 582 1150 1510 2070 2470
2020-11-23 16:45 3.63 972 3600 (1943) 264 (2002) 902 328 354 405 431 582 1150 1510 2070 2470
2020-11-23 15:45 3.63 972 3600 (1943) 264 (2002) 902 328 354 405 431 582 1150 1510 2070 2470
2020-11-23 14:45 3.64 978 3600 (1943) 264 (2002) 902 328 354 405 431 582 1150 1510 2070 2470
2020-11-23 13:45 3.59 945 3600 (1943) 264 (2002) 902 328 354 405 431 582 1150 1510 2070 2470
2020-11-23 12:45 3.63 972 3600 (1943) 264 (2002) 902 328 354 405 431 582 1150 1510 2070 2470
2020-11-23 11:45 3.62 965 3600 (1943) 264 (2002) 902 328 354 405 431 582 1150 1510 2070 2470
2020-11-23 10:45 3.62 965 3600 (1943) 264 (2002) 902 328 354 405 431 582 1150 1510 2070 2470
2020-11-23 09:45 3.62 965 3600 (1943) 264 (2002) 902 328 354 405 431 582 1150 1510 2070 2470
2020-11-23 08:45 3.63 972 3600 (1943) 264 (2002) 902 328 354 405 431 582 1150 1510 2070 2470
2020-11-23 07:45 3.63 972 3600 (1943) 264 (2002) 902 328 354 405 431 582 1150 1510 2070 2470
2020-11-23 06:45 3.64 978 3600 (1943) 264 (2002) 902 328 354 405 431 582 1150 1510 2070 2470
2020-11-23 05:45 3.64 978 3600 (1943) 264 (2002) 902 328 354 405 431 582 1150 1510 2070 2470
2020-11-23 04:45 3.64 978 3600 (1943) 264 (2002) 902 328 354 405 431 582 1150 1510 2070 2470
2020-11-23 03:45 3.64 978 3600 (1943) 264 (2002) 902 328 354 405 431 582 1150 1510 2070 2470
2020-11-23 02:45 3.65 985 3600 (1943) 264 (2002) 902 328 354 405 431 582 1150 1510 2070 2470
2020-11-23 01:45 3.65 985 3600 (1943) 264 (2002) 902 328 354 405 431 582 1150 1510 2070 2470
2020-11-23 00:45 3.66 992 3600 (1943) 264 (2002) 902 328 354 405 431 582 1150 1510 2070 2470
2020-11-22 23:45 3.66 992 4800 (1943) 262 (2002) 906 324 350 405 436 580 1050 1360 1930 2580
2020-11-22 22:45 3.66 992 4800 (1943) 262 (2002) 906 324 350 405 436 580 1050 1360 1930 2580
2020-11-22 21:45 3.67 998 4800 (1943) 262 (2002) 906 324 350 405 436 580 1050 1360 1930 2580
2020-11-22 20:45 3.66 992 4800 (1943) 262 (2002) 906 324 350 405 436 580 1050 1360 1930 2580
2020-11-22 19:45 3.67 998 4800 (1943) 262 (2002) 906 324 350 405 436 580 1050 1360 1930 2580
2020-11-22 18:45 3.67 998 4800 (1943) 262 (2002) 906 324 350 405 436 580 1050 1360 1930 2580
2020-11-22 17:45 3.67 998 4800 (1943) 262 (2002) 906 324 350 405 436 580 1050 1360 1930 2580
2020-11-22 16:45 3.67 998 4800 (1943) 262 (2002) 906 324 350 405 436 580 1050 1360 1930 2580
2020-11-22 15:45 3.67 998 4800 (1943) 262 (2002) 906 324 350 405 436 580 1050 1360 1930 2580
2020-11-22 14:45 3.68 1010 4800 (1943) 262 (2002) 906 324 350 405 436 580 1050 1360 1930 2580
2020-11-22 13:45 3.68 1010 4800 (1943) 262 (2002) 906 324 350 405 436 580 1050 1360 1930 2580
2020-11-22 12:45 3.68 1010 4800 (1943) 262 (2002) 906 324 350 405 436 580 1050 1360 1930 2580
2020-11-22 11:45 3.68 1010 4800 (1943) 262 (2002) 906 324 350 405 436 580 1050 1360 1930 2580
2020-11-22 10:45 3.67 998 4800 (1943) 262 (2002) 906 324 350 405 436 580 1050 1360 1930 2580
2020-11-22 09:45 3.67 998 4800 (1943) 262 (2002) 906 324 350 405 436 580 1050 1360 1930 2580
2020-11-22 08:45 3.67 998 4800 (1943) 262 (2002) 906 324 350 405 436 580 1050 1360 1930 2580
2020-11-22 07:45 3.67 998 4800 (1943) 262 (2002) 906 324 350 405 436 580 1050 1360 1930 2580
2020-11-22 06:45 3.67 998 4800 (1943) 262 (2002) 906 324 350 405 436 580 1050 1360 1930 2580
2020-11-22 05:45 3.67 998 4800 (1943) 262 (2002) 906 324 350 405 436 580 1050 1360 1930 2580
2020-11-22 04:45 3.68 1010 4800 (1943) 262 (2002) 906 324 350 405 436 580 1050 1360 1930 2580
2020-11-22 03:45 3.67 998 4800 (1943) 262 (2002) 906 324 350 405 436 580 1050 1360 1930 2580
2020-11-22 02:45 3.64 978 4800 (1943) 262 (2002) 906 324 350 405 436 580 1050 1360 1930 2580
2020-11-22 01:45 3.63 972 4800 (1943) 262 (2002) 906 324 350 405 436 580 1050 1360 1930 2580
2020-11-22 00:45 3.61 959 4800 (1943) 262 (2002) 906 324 350 405 436 580 1050 1360 1930 2580
2020-11-21 23:45 3.62 965 4120 (1992) 262 (2002) 876 327 347 400 436 575 967 1070 2020 2660
2020-11-21 22:45 3.61 959 4120 (1992) 262 (2002) 876 327 347 400 436 575 967 1070 2020 2660
2020-11-21 21:45 3.61 959 4120 (1992) 262 (2002) 876 327 347 400 436 575 967 1070 2020 2660
2020-11-21 20:45 3.62 965 4120 (1992) 262 (2002) 876 327 347 400 436 575 967 1070 2020 2660
2020-11-21 19:45 3.62 965 4120 (1992) 262 (2002) 876 327 347 400 436 575 967 1070 2020 2660
2020-11-21 18:45 3.62 965 4120 (1992) 262 (2002) 876 327 347 400 436 575 967 1070 2020 2660
2020-11-21 17:45 3.62 965 4120 (1992) 262 (2002) 876 327 347 400 436 575 967 1070 2020 2660
2020-11-21 16:45 3.62 965 4120 (1992) 262 (2002) 876 327 347 400 436 575 967 1070 2020 2660
2020-11-21 15:45 3.62 965 4120 (1992) 262 (2002) 876 327 347 400 436 575 967 1070 2020 2660
2020-11-21 14:45 3.62 965 4120 (1992) 262 (2002) 876 327 347 400 436 575 967 1070 2020 2660
2020-11-21 13:45 3.62 965 4120 (1992) 262 (2002) 876 327 347 400 436 575 967 1070 2020 2660
2020-11-21 12:45 3.62 965 4120 (1992) 262 (2002) 876 327 347 400 436 575 967 1070 2020 2660
2020-11-21 11:45 3.60 952 4120 (1992) 262 (2002) 876 327 347 400 436 575 967 1070 2020 2660
2020-11-21 10:45 3.60 952 4120 (1992) 262 (2002) 876 327 347 400 436 575 967 1070 2020 2660
2020-11-21 09:45 3.62 965 4120 (1992) 262 (2002) 876 327 347 400 436 575 967 1070 2020 2660
2020-11-21 08:45 3.62 965 4120 (1992) 262 (2002) 876 327 347 400 436 575 967 1070 2020 2660
2020-11-21 07:45 3.63 972 4120 (1992) 262 (2002) 876 327 347 400 436 575 967 1070 2020 2660
2020-11-21 06:45 3.63 972 4120 (1992) 262 (2002) 876 327 347 400 436 575 967 1070 2020 2660
2020-11-21 05:45 3.63 972 4120 (1992) 262 (2002) 876 327 347 400 436 575 967 1070 2020 2660
2020-11-21 04:45 3.63 972 4120 (1992) 262 (2002) 876 327 347 400 436 575 967 1070 2020 2660
2020-11-21 03:45 3.63 972 4120 (1992) 262 (2002) 876 327 347 400 436 575 967 1070 2020 2660
2020-11-21 02:45 3.63 972 4120 (1992) 262 (2002) 876 327 347 400 436 575 967 1070 2020 2660
2020-11-21 01:45 3.63 972 4120 (1992) 262 (2002) 876 327 347 400 436 575 967 1070 2020 2660
2020-11-21 00:45 3.63 972 4120 (1992) 262 (2002) 876 327 347 400 436 575 967 1070 2020 2660
2020-11-20 23:45 3.63 972 13600 (1992) 270 (2002) 1090 311 340 400 435 597 974 1120 2350 3590
2020-11-20 22:45 3.64 978 13600 (1992) 270 (2002) 1090 311 340 400 435 597 974 1120 2350 3590
2020-11-20 21:45 3.63 972 13600 (1992) 270 (2002) 1090 311 340 400 435 597 974 1120 2350 3590
2020-11-20 20:45 3.64 978 13600 (1992) 270 (2002) 1090 311 340 400 435 597 974 1120 2350 3590
2020-11-20 19:45 3.64 978 13600 (1992) 270 (2002) 1090 311 340 400 435 597 974 1120 2350 3590
2020-11-20 18:45 3.64 978 13600 (1992) 270 (2002) 1090 311 340 400 435 597 974 1120 2350 3590
2020-11-20 17:45 3.64 978 13600 (1992) 270 (2002) 1090 311 340 400 435 597 974 1120 2350 3590
2020-11-20 16:45 3.64 978 13600 (1992) 270 (2002) 1090 311 340 400 435 597 974 1120 2350 3590
2020-11-20 15:45 3.64 978 13600 (1992) 270 (2002) 1090 311 340 400 435 597 974 1120 2350 3590
2020-11-20 14:45 3.63 972 13600 (1992) 270 (2002) 1090 311 340 400 435 597 974 1120 2350 3590
2020-11-20 13:45 3.61 959 13600 (1992) 270 (2002) 1090 311 340 400 435 597 974 1120 2350 3590
2020-11-20 12:45 3.59 945 13600 (1992) 270 (2002) 1090 311 340 400 435 597 974 1120 2350 3590
2020-11-20 11:45 3.61 959 13600 (1992) 270 (2002) 1090 311 340 400 435 597 974 1120 2350 3590
2020-11-20 10:45 3.64 978 13600 (1992) 270 (2002) 1090 311 340 400 435 597 974 1120 2350 3590
2020-11-20 09:45 3.61 959 13600 (1992) 270 (2002) 1090 311 340 400 435 597 974 1120 2350 3590
2020-11-20 08:45 3.65 985 13600 (1992) 270 (2002) 1090 311 340 400 435 597 974 1120 2350 3590
2020-11-20 07:45 3.64 978 13600 (1992) 270 (2002) 1090 311 340 400 435 597 974 1120 2350 3590
2020-11-20 06:45 3.65 985 13600 (1992) 270 (2002) 1090 311 340 400 435 597 974 1120 2350 3590
2020-11-20 05:45 3.65 985 13600 (1992) 270 (2002) 1090 311 340 400 435 597 974 1120 2350 3590
2020-11-20 04:45 3.65 985 13600 (1992) 270 (2002) 1090 311 340 400 435 597 974 1120 2350 3590
2020-11-20 03:45 3.65 985 13600 (1992) 270 (2002) 1090 311 340 400 435 597 974 1120 2350 3590
2020-11-20 02:45 3.65 985 13600 (1992) 270 (2002) 1090 311 340 400 435 597 974 1120 2350 3590
2020-11-20 01:45 3.65 985 13600 (1992) 270 (2002) 1090 311 340 400 435 597 974 1120 2350 3590
2020-11-20 00:45 3.65 985 13600 (1992) 270 (2002) 1090 311 340 400 435 597 974 1120 2350 3590
2020-11-19 23:45 3.65 985 7790 (2004) 266 (1957) 1070 314 339 395 435 600 958 1060 2680 4180
2020-11-19 22:45 3.65 985 7790 (2004) 266 (1957) 1070 314 339 395 435 600 958 1060 2680 4180
2020-11-19 21:45 3.65 985 7790 (2004) 266 (1957) 1070 314 339 395 435 600 958 1060 2680 4180
2020-11-19 20:45 3.65 985 7790 (2004) 266 (1957) 1070 314 339 395 435 600 958 1060 2680 4180
2020-11-19 19:45 3.65 985 7790 (2004) 266 (1957) 1070 314 339 395 435 600 958 1060 2680 4180
2020-11-19 18:45 3.65 985 7790 (2004) 266 (1957) 1070 314 339 395 435 600 958 1060 2680 4180
2020-11-19 17:45 3.65 985 7790 (2004) 266 (1957) 1070 314 339 395 435 600 958 1060 2680 4180
2020-11-19 16:45 3.66 992 7790 (2004) 266 (1957) 1070 314 339 395 435 600 958 1060 2680 4180
2020-11-19 15:45 3.63 972 7790 (2004) 266 (1957) 1070 314 339 395 435 600 958 1060 2680 4180
2020-11-19 14:45 3.65 985 7790 (2004) 266 (1957) 1070 314 339 395 435 600 958 1060 2680 4180
2020-11-19 13:45 3.61 959 7790 (2004) 266 (1957) 1070 314 339 395 435 600 958 1060 2680 4180
2020-11-19 12:45 3.64 978 7790 (2004) 266 (1957) 1070 314 339 395 435 600 958 1060 2680 4180
2020-11-19 11:45 3.62 965 7790 (2004) 266 (1957) 1070 314 339 395 435 600 958 1060 2680 4180
2020-11-19 10:45 3.63 972 7790 (2004) 266 (1957) 1070 314 339 395 435 600 958 1060 2680 4180
2020-11-19 09:45 3.62 965 7790 (2004) 266 (1957) 1070 314 339 395 435 600 958 1060 2680 4180
2020-11-19 08:45 3.61 959 7790 (2004) 266 (1957) 1070 314 339 395 435 600 958 1060 2680 4180
2020-11-19 07:45 3.66 992 7790 (2004) 266 (1957) 1070 314 339 395 435 600 958 1060 2680 4180
2020-11-19 06:45 3.67 998 7790 (2004) 266 (1957) 1070 314 339 395 435 600 958 1060 2680 4180
2020-11-19 05:45 3.66 992 7790 (2004) 266 (1957) 1070 314 339 395 435 600 958 1060 2680 4180
2020-11-19 04:45 3.66 992 7790 (2004) 266 (1957) 1070 314 339 395 435 600 958 1060 2680 4180
2020-11-19 03:45 3.66 992 7790 (2004) 266 (1957) 1070 314 339 395 435 600 958 1060 2680 4180
2020-11-19 02:45 3.66 992 7790 (2004) 266 (1957) 1070 314 339 395 435 600 958 1060 2680 4180
2020-11-19 01:45 3.66 992 7790 (2004) 266 (1957) 1070 314 339 395 435 600 958 1060 2680 4180
2020-11-19 00:45 3.67 998 7790 (2004) 266 (1957) 1070 314 339 395 435 600 958 1060 2680 4180
2020-11-18 23:45 3.67 998 22400 (1959) 264 (2002) 1250 312 363 390 416 597 955 1080 2150 4790
2020-11-18 22:45 3.67 998 22400 (1959) 264 (2002) 1250 312 363 390 416 597 955 1080 2150 4790
2020-11-18 21:45 3.67 998 22400 (1959) 264 (2002) 1250 312 363 390 416 597 955 1080 2150 4790
2020-11-18 20:45 3.67 998 22400 (1959) 264 (2002) 1250 312 363 390 416 597 955 1080 2150 4790
2020-11-18 19:45 3.67 998 22400 (1959) 264 (2002) 1250 312 363 390 416 597 955 1080 2150 4790
2020-11-18 18:45 3.67 998 22400 (1959) 264 (2002) 1250 312 363 390 416 597 955 1080 2150 4790
2020-11-18 17:45 3.67 998 22400 (1959) 264 (2002) 1250 312 363 390 416 597 955 1080 2150 4790
2020-11-18 16:45 3.67 998 22400 (1959) 264 (2002) 1250 312 363 390 416 597 955 1080 2150 4790
2020-11-18 15:45 3.68 1010 22400 (1959) 264 (2002) 1250 312 363 390 416 597 955 1080 2150 4790
2020-11-18 14:45 3.64 978 22400 (1959) 264 (2002) 1250 312 363 390 416 597 955 1080 2150 4790
2020-11-18 13:45 3.65 985 22400 (1959) 264 (2002) 1250 312 363 390 416 597 955 1080 2150 4790
2020-11-18 12:45 3.63 972 22400 (1959) 264 (2002) 1250 312 363 390 416 597 955 1080 2150 4790
2020-11-18 11:45 3.66 992 22400 (1959) 264 (2002) 1250 312 363 390 416 597 955 1080 2150 4790
2020-11-18 10:45 3.67 998 22400 (1959) 264 (2002) 1250 312 363 390 416 597 955 1080 2150 4790
2020-11-18 09:45 3.68 1010 22400 (1959) 264 (2002) 1250 312 363 390 416 597 955 1080 2150 4790
2020-11-18 08:45 3.68 1010 22400 (1959) 264 (2002) 1250 312 363 390 416 597 955 1080 2150 4790
2020-11-18 07:45 3.68 1010 22400 (1959) 264 (2002) 1250 312 363 390 416 597 955 1080 2150 4790
2020-11-18 06:45 3.69 1010 22400 (1959) 264 (2002) 1250 312 363 390 416 597 955 1080 2150 4790
2020-11-18 05:45 3.68 1010 22400 (1959) 264 (2002) 1250 312 363 390 416 597 955 1080 2150 4790
2020-11-18 04:45 3.69 1010 22400 (1959) 264 (2002) 1250 312 363 390 416 597 955 1080 2150 4790
2020-11-18 03:45 3.69 1010 22400 (1959) 264 (2002) 1250 312 363 390 416 597 955 1080 2150 4790
2020-11-18 02:45 3.69 1010 22400 (1959) 264 (2002) 1250 312 363 390 416 597 955 1080 2150 4790
2020-11-18 01:45 3.69 1010 22400 (1959) 264 (2002) 1250 312 363 390 416 597 955 1080 2150 4790
2020-11-18 00:45 3.69 1010 22400 (1959) 264 (2002) 1250 312 363 390 416 597 955 1080 2150 4790
2020-11-17 23:45 3.69 1010 21400 (1959) 267 (2002) 1040 309 342 388 422 582 829 961 1410 2550
2020-11-17 22:45 3.70 1020 21400 (1959) 267 (2002) 1040 309 342 388 422 582 829 961 1410 2550
2020-11-17 21:45 3.69 1010 21400 (1959) 267 (2002) 1040 309 342 388 422 582 829 961 1410 2550
2020-11-17 20:45 3.69 1010 21400 (1959) 267 (2002) 1040 309 342 388 422 582 829 961 1410 2550
2020-11-17 19:45 3.69 1010 21400 (1959) 267 (2002) 1040 309 342 388 422 582 829 961 1410 2550
2020-11-17 18:45 3.69 1010 21400 (1959) 267 (2002) 1040 309 342 388 422 582 829 961 1410 2550
2020-11-17 17:45 3.69 1010 21400 (1959) 267 (2002) 1040 309 342 388 422 582 829 961 1410 2550
2020-11-17 16:45 3.70 1020 21400 (1959) 267 (2002) 1040 309 342 388 422 582 829 961 1410 2550
2020-11-17 15:45 3.70 1020 21400 (1959) 267 (2002) 1040 309 342 388 422 582 829 961 1410 2550
2020-11-17 14:45 3.70 1020 21400 (1959) 267 (2002) 1040 309 342 388 422 582 829 961 1410 2550
2020-11-17 13:45 3.70 1020 21400 (1959) 267 (2002) 1040 309 342 388 422 582 829 961 1410 2550
2020-11-17 12:45 3.70 1020 21400 (1959) 267 (2002) 1040 309 342 388 422 582 829 961 1410 2550
2020-11-17 11:45 3.69 1010 21400 (1959) 267 (2002) 1040 309 342 388 422 582 829 961 1410 2550
2020-11-17 10:45 3.70 1020 21400 (1959) 267 (2002) 1040 309 342 388 422 582 829 961 1410 2550
2020-11-17 09:45 3.69 1010 21400 (1959) 267 (2002) 1040 309 342 388 422 582 829 961 1410 2550
2020-11-17 08:45 3.70 1020 21400 (1959) 267 (2002) 1040 309 342 388 422 582 829 961 1410 2550
2020-11-17 07:45 3.70 1020 21400 (1959) 267 (2002) 1040 309 342 388 422 582 829 961 1410 2550
2020-11-17 06:45 3.70 1020 21400 (1959) 267 (2002) 1040 309 342 388 422 582 829 961 1410 2550
2020-11-17 05:45 3.70 1020 21400 (1959) 267 (2002) 1040 309 342 388 422 582 829 961 1410 2550
2020-11-17 04:45 3.70 1020 21400 (1959) 267 (2002) 1040 309 342 388 422 582 829 961 1410 2550
2020-11-17 03:45 3.71 1030 21400 (1959) 267 (2002) 1040 309 342 388 422 582 829 961 1410 2550
2020-11-17 02:45 3.71 1030 21400 (1959) 267 (2002) 1040 309 342 388 422 582 829 961 1410 2550
2020-11-17 01:45 3.71 1030 21400 (1959) 267 (2002) 1040 309 342 388 422 582 829 961 1410 2550
2020-11-17 00:45 3.71 1030 21400 (1959) 267 (2002) 1040 309 342 388 422 582 829 961 1410 2550
2020-11-16 23:45 3.71 1030 12700 (1994) 276 (2002) 915 317 344 395 424 580 823 1000 1600 2170
2020-11-16 22:45 3.71 1030 12700 (1994) 276 (2002) 915 317 344 395 424 580 823 1000 1600 2170
2020-11-16 21:45 3.71 1030 12700 (1994) 276 (2002) 915 317 344 395 424 580 823 1000 1600 2170
2020-11-16 20:45 3.71 1030 12700 (1994) 276 (2002) 915 317 344 395 424 580 823 1000 1600 2170
2020-11-16 19:45 3.71 1030 12700 (1994) 276 (2002) 915 317 344 395 424 580 823 1000 1600 2170
2020-11-16 18:45 3.72 1030 12700 (1994) 276 (2002) 915 317 344 395 424 580 823 1000 1600 2170
2020-11-16 17:45 3.71 1030 12700 (1994) 276 (2002) 915 317 344 395 424 580 823 1000 1600 2170
2020-11-16 16:45 3.71 1030 12700 (1994) 276 (2002) 915 317 344 395 424 580 823 1000 1600 2170
2020-11-16 15:45 3.72 1030 12700 (1994) 276 (2002) 915 317 344 395 424 580 823 1000 1600 2170
2020-11-16 14:45 3.71 1030 12700 (1994) 276 (2002) 915 317 344 395 424 580 823 1000 1600 2170
2020-11-16 13:45 3.71 1030 12700 (1994) 276 (2002) 915 317 344 395 424 580 823 1000 1600 2170
2020-11-16 12:45 3.71 1030 12700 (1994) 276 (2002) 915 317 344 395 424 580 823 1000 1600 2170
2020-11-16 11:45 3.71 1030 12700 (1994) 276 (2002) 915 317 344 395 424 580 823 1000 1600 2170
2020-11-16 10:45 3.71 1030 12700 (1994) 276 (2002) 915 317 344 395 424 580 823 1000 1600 2170
2020-11-16 09:45 3.71 1030 12700 (1994) 276 (2002) 915 317 344 395 424 580 823 1000 1600 2170
2020-11-16 08:45 3.72 1030 12700 (1994) 276 (2002) 915 317 344 395 424 580 823 1000 1600 2170
2020-11-16 07:45 3.72 1030 12700 (1994) 276 (2002) 915 317 344 395 424 580 823 1000 1600 2170
2020-11-16 06:45 3.72 1030 12700 (1994) 276 (2002) 915 317 344 395 424 580 823 1000 1600 2170
2020-11-16 05:45 3.73 1040 12700 (1994) 276 (2002) 915 317 344 395 424 580 823 1000 1600 2170
2020-11-16 04:45 3.73 1040 12700 (1994) 276 (2002) 915 317 344 395 424 580 823 1000 1600 2170
2020-11-16 03:45 3.74 1050 12700 (1994) 276 (2002) 915 317 344 395 424 580 823 1000 1600 2170
2020-11-16 02:45 3.74 1050 12700 (1994) 276 (2002) 915 317 344 395 424 580 823 1000 1600 2170
2020-11-16 01:45 3.74 1050 12700 (1994) 276 (2002) 915 317 344 395 424 580 823 1000 1600 2170
2020-11-16 00:45 3.75 1050 12700 (1994) 276 (2002) 915 317 344 395 424 580 823 1000 1600 2170
2020-11-15 23:45 3.75 1050 14800 (1994) 274 (1957) 912 306 342 396 426 548 828 878 1590 2610
2020-11-15 22:45 3.76 1060 14800 (1994) 274 (1957) 912 306 342 396 426 548 828 878 1590 2610
2020-11-15 21:45 3.77 1070 14800 (1994) 274 (1957) 912 306 342 396 426 548 828 878 1590 2610
2020-11-15 20:45 3.77 1070 14800 (1994) 274 (1957) 912 306 342 396 426 548 828 878 1590 2610
2020-11-15 19:45 3.77 1070 14800 (1994) 274 (1957) 912 306 342 396 426 548 828 878 1590 2610
2020-11-15 18:45 3.78 1070 14800 (1994) 274 (1957) 912 306 342 396 426 548 828 878 1590 2610
2020-11-15 17:45 3.77 1070 14800 (1994) 274 (1957) 912 306 342 396 426 548 828 878 1590 2610
2020-11-15 16:45 3.78 1070 14800 (1994) 274 (1957) 912 306 342 396 426 548 828 878 1590 2610
2020-11-15 15:45 3.78 1070 14800 (1994) 274 (1957) 912 306 342 396 426 548 828 878 1590 2610
2020-11-15 14:45 3.78 1070 14800 (1994) 274 (1957) 912 306 342 396 426 548 828 878 1590 2610
2020-11-15 13:45 3.75 1050 14800 (1994) 274 (1957) 912 306 342 396 426 548 828 878 1590 2610
2020-11-15 12:45 3.77 1070 14800 (1994) 274 (1957) 912 306 342 396 426 548 828 878 1590 2610
2020-11-15 11:45 3.73 1040 14800 (1994) 274 (1957) 912 306 342 396 426 548 828 878 1590 2610
2020-11-15 10:45 3.76 1060 14800 (1994) 274 (1957) 912 306 342 396 426 548 828 878 1590 2610
2020-11-15 09:45 3.75 1050 14800 (1994) 274 (1957) 912 306 342 396 426 548 828 878 1590 2610
2020-11-15 08:45 3.79 1080 14800 (1994) 274 (1957) 912 306 342 396 426 548 828 878 1590 2610
2020-11-15 07:45 3.79 1080 14800 (1994) 274 (1957) 912 306 342 396 426 548 828 878 1590 2610
2020-11-15 06:45 3.76 1060 14800 (1994) 274 (1957) 912 306 342 396 426 548 828 878 1590 2610
2020-11-15 05:45 3.76 1060 14800 (1994) 274 (1957) 912 306 342 396 426 548 828 878 1590 2610
2020-11-15 04:45 3.74 1050 14800 (1994) 274 (1957) 912 306 342 396 426 548 828 878 1590 2610
2020-11-15 03:45 3.78 1070 14800 (1994) 274 (1957) 912 306 342 396 426 548 828 878 1590 2610
2020-11-15 02:45 3.78 1070 14800 (1994) 274 (1957) 912 306 342 396 426 548 828 878 1590 2610
2020-11-15 01:45 3.77 1070 14800 (1994) 274 (1957) 912 306 342 396 426 548 828 878 1590 2610
2020-11-15 00:45 3.75 1050 14800 (1994) 274 (1957) 912 306 342 396 426 548 828 878 1590 2610
2020-11-14 23:45 3.69 1010 3200 (1973) 266 (1957) 729 309 347 396 417 536 815 842 1240 1870
2020-11-14 22:45 3.70 1020 3200 (1973) 266 (1957) 729 309 347 396 417 536 815 842 1240 1870
2020-11-14 21:45 3.70 1020 3200 (1973) 266 (1957) 729 309 347 396 417 536 815 842 1240 1870
2020-11-14 20:45 3.70 1020 3200 (1973) 266 (1957) 729 309 347 396 417 536 815 842 1240 1870
2020-11-14 19:45 3.70 1020 3200 (1973) 266 (1957) 729 309 347 396 417 536 815 842 1240 1870
2020-11-14 18:45 3.70 1020 3200 (1973) 266 (1957) 729 309 347 396 417 536 815 842 1240 1870
2020-11-14 17:45 3.73 1040 3200 (1973) 266 (1957) 729 309 347 396 417 536 815 842 1240 1870
2020-11-14 16:45 3.73 1040 3200 (1973) 266 (1957) 729 309 347 396 417 536 815 842 1240 1870
2020-11-14 15:45 3.73 1040 3200 (1973) 266 (1957) 729 309 347 396 417 536 815 842 1240 1870
2020-11-14 14:45 3.73 1040 3200 (1973) 266 (1957) 729 309 347 396 417 536 815 842 1240 1870
2020-11-14 13:45 3.73 1040 3200 (1973) 266 (1957) 729 309 347 396 417 536 815 842 1240 1870
2020-11-14 12:45 3.71 1030 3200 (1973) 266 (1957) 729 309 347 396 417 536 815 842 1240 1870
2020-11-14 11:45 3.70 1020 3200 (1973) 266 (1957) 729 309 347 396 417 536 815 842 1240 1870
2020-11-14 10:45 3.69 1010 3200 (1973) 266 (1957) 729 309 347 396 417 536 815 842 1240 1870
2020-11-14 09:45 3.72 1030 3200 (1973) 266 (1957) 729 309 347 396 417 536 815 842 1240 1870
2020-11-14 08:45 3.73 1040 3200 (1973) 266 (1957) 729 309 347 396 417 536 815 842 1240 1870
2020-11-14 07:45 3.73 1040 3200 (1973) 266 (1957) 729 309 347 396 417 536 815 842 1240 1870
2020-11-14 06:45 3.73 1040 3200 (1973) 266 (1957) 729 309 347 396 417 536 815 842 1240 1870
2020-11-14 05:45 3.74 1050 3200 (1973) 266 (1957) 729 309 347 396 417 536 815 842 1240 1870
2020-11-14 04:45 3.73 1040 3200 (1973) 266 (1957) 729 309 347 396 417 536 815 842 1240 1870
2020-11-14 03:45 3.74 1050 3200 (1973) 266 (1957) 729 309 347 396 417 536 815 842 1240 1870
2020-11-14 02:45 3.74 1050 3200 (1973) 266 (1957) 729 309 347 396 417 536 815 842 1240 1870
2020-11-14 01:45 3.74 1050 3200 (1973) 266 (1957) 729 309 347 396 417 536 815 842 1240 1870
2020-11-14 00:45 3.74 1050 3200 (1973) 266 (1957) 729 309 347 396 417 536 815 842 1240 1870
2020-11-13 23:45 3.74 1050 3690 (1958) 266 (1957) 711 312 348 400 425 552 818 847 1260 1690
2020-11-13 22:45 3.74 1050 3690 (1958) 266 (1957) 711 312 348 400 425 552 818 847 1260 1690
2020-11-13 21:45 3.74 1050 3690 (1958) 266 (1957) 711 312 348 400 425 552 818 847 1260 1690
2020-11-13 20:45 3.74 1050 3690 (1958) 266 (1957) 711 312 348 400 425 552 818 847 1260 1690
2020-11-13 19:45 3.74 1050 3690 (1958) 266 (1957) 711 312 348 400 425 552 818 847 1260 1690
2020-11-13 18:45 3.75 1050 3690 (1958) 266 (1957) 711 312 348 400 425 552 818 847 1260 1690
2020-11-13 17:45 3.75 1050 3690 (1958) 266 (1957) 711 312 348 400 425 552 818 847 1260 1690
2020-11-13 16:45 3.76 1060 3690 (1958) 266 (1957) 711 312 348 400 425 552 818 847 1260 1690
2020-11-13 15:45 3.76 1060 3690 (1958) 266 (1957) 711 312 348 400 425 552 818 847 1260 1690
2020-11-13 14:45 3.76 1060 3690 (1958) 266 (1957) 711 312 348 400 425 552 818 847 1260 1690
2020-11-13 13:45 3.76 1060 3690 (1958) 266 (1957) 711 312 348 400 425 552 818 847 1260 1690
2020-11-13 12:45 3.76 1060 3690 (1958) 266 (1957) 711 312 348 400 425 552 818 847 1260 1690
2020-11-13 11:45 3.75 1050 3690 (1958) 266 (1957) 711 312 348 400 425 552 818 847 1260 1690
2020-11-13 10:45 3.76 1060 3690 (1958) 266 (1957) 711 312 348 400 425 552 818 847 1260 1690
2020-11-13 09:45 3.76 1060 3690 (1958) 266 (1957) 711 312 348 400 425 552 818 847 1260 1690
2020-11-13 08:45 3.77 1070 3690 (1958) 266 (1957) 711 312 348 400 425 552 818 847 1260 1690
2020-11-13 07:45 3.77 1070 3690 (1958) 266 (1957) 711 312 348 400 425 552 818 847 1260 1690
2020-11-13 06:45 3.77 1070 3690 (1958) 266 (1957) 711 312 348 400 425 552 818 847 1260 1690
2020-11-13 05:45 3.77 1070 3690 (1958) 266 (1957) 711 312 348 400 425 552 818 847 1260 1690
2020-11-13 04:45 3.77 1070 3690 (1958) 266 (1957) 711 312 348 400 425 552 818 847 1260 1690
2020-11-13 03:45 3.77 1070 3690 (1958) 266 (1957) 711 312 348 400 425 552 818 847 1260 1690
2020-11-13 02:45 3.77 1070 3690 (1958) 266 (1957) 711 312 348 400 425 552 818 847 1260 1690
2020-11-13 01:45 3.77 1070 3690 (1958) 266 (1957) 711 312 348 400 425 552 818 847 1260 1690
2020-11-13 00:45 3.78 1070 3690 (1958) 266 (1957) 711 312 348 400 425 552 818 847 1260 1690
2020-11-12 23:45 3.78 1070 2180 (1995) 266 (1957) 688 311 348 410 435 550 815 830 1360 1550
2020-11-12 22:45 3.78 1070 2180 (1995) 266 (1957) 688 311 348 410 435 550 815 830 1360 1550
2020-11-12 21:45 3.78 1070 2180 (1995) 266 (1957) 688 311 348 410 435 550 815 830 1360 1550
2020-11-12 20:45 3.78 1070 2180 (1995) 266 (1957) 688 311 348 410 435 550 815 830 1360 1550
2020-11-12 19:45 3.79 1080 2180 (1995) 266 (1957) 688 311 348 410 435 550 815 830 1360 1550
2020-11-12 18:45 3.78 1070 2180 (1995) 266 (1957) 688 311 348 410 435 550 815 830 1360 1550
2020-11-12 17:45 3.78 1070 2180 (1995) 266 (1957) 688 311 348 410 435 550 815 830 1360 1550
2020-11-12 16:45 3.79 1080 2180 (1995) 266 (1957) 688 311 348 410 435 550 815 830 1360 1550
2020-11-12 15:45 3.79 1080 2180 (1995) 266 (1957) 688 311 348 410 435 550 815 830 1360 1550
2020-11-12 14:45 3.79 1080 2180 (1995) 266 (1957) 688 311 348 410 435 550 815 830 1360 1550
2020-11-12 13:45 3.76 1060 2180 (1995) 266 (1957) 688 311 348 410 435 550 815 830 1360 1550
2020-11-12 12:45 3.79 1080 2180 (1995) 266 (1957) 688 311 348 410 435 550 815 830 1360 1550
2020-11-12 11:45 3.78 1070 2180 (1995) 266 (1957) 688 311 348 410 435 550 815 830 1360 1550
2020-11-12 10:45 3.79 1080 2180 (1995) 266 (1957) 688 311 348 410 435 550 815 830 1360 1550
2020-11-12 09:45 3.80 1090 2180 (1995) 266 (1957) 688 311 348 410 435 550 815 830 1360 1550
2020-11-12 08:45 3.79 1080 2180 (1995) 266 (1957) 688 311 348 410 435 550 815 830 1360 1550
2020-11-12 07:45 3.79 1080 2180 (1995) 266 (1957) 688 311 348 410 435 550 815 830 1360 1550
2020-11-12 06:45 3.80 1090 2180 (1995) 266 (1957) 688 311 348 410 435 550 815 830 1360 1550
2020-11-12 05:45 3.80 1090 2180 (1995) 266 (1957) 688 311 348 410 435 550 815 830 1360 1550
2020-11-12 04:45 3.80 1090 2180 (1995) 266 (1957) 688 311 348 410 435 550 815 830 1360 1550
2020-11-12 03:45 3.80 1090 2180 (1995) 266 (1957) 688 311 348 410 435 550 815 830 1360 1550
2020-11-12 02:45 3.81 1090 2180 (1995) 266 (1957) 688 311 348 410 435 550 815 830 1360 1550
2020-11-12 01:45 3.81 1090 2180 (1995) 266 (1957) 688 311 348 410 435 550 815 830 1360 1550
2020-11-12 00:45 3.82 1100 2180 (1995) 266 (1957) 688 311 348 410 435 550 815 830 1360 1550
2020-11-11 23:45 3.82 1100 2490 (1995) 266 (1957) 713 315 348 402 434 575 815 828 1390 1960
2020-11-11 22:45 3.82 1100 2490 (1995) 266 (1957) 713 315 348 402 434 575 815 828 1390 1960
2020-11-11 21:45 3.82 1100 2490 (1995) 266 (1957) 713 315 348 402 434 575 815 828 1390 1960
2020-11-11 20:45 3.82 1100 2490 (1995) 266 (1957) 713 315 348 402 434 575 815 828 1390 1960
2020-11-11 19:45 3.82 1100 2490 (1995) 266 (1957) 713 315 348 402 434 575 815 828 1390 1960
2020-11-11 18:45 3.82 1100 2490 (1995) 266 (1957) 713 315 348 402 434 575 815 828 1390 1960
2020-11-11 17:45 3.83 1110 2490 (1995) 266 (1957) 713 315 348 402 434 575 815 828 1390 1960
2020-11-11 16:45 3.83 1110 2490 (1995) 266 (1957) 713 315 348 402 434 575 815 828 1390 1960
2020-11-11 15:45 3.84 1110 2490 (1995) 266 (1957) 713 315 348 402 434 575 815 828 1390 1960
2020-11-11 14:45 3.83 1110 2490 (1995) 266 (1957) 713 315 348 402 434 575 815 828 1390 1960
2020-11-11 13:45 3.83 1110 2490 (1995) 266 (1957) 713 315 348 402 434 575 815 828 1390 1960
2020-11-11 12:45 3.83 1110 2490 (1995) 266 (1957) 713 315 348 402 434 575 815 828 1390 1960
2020-11-11 11:45 3.83 1110 2490 (1995) 266 (1957) 713 315 348 402 434 575 815 828 1390 1960
2020-11-11 10:45 3.83 1110 2490 (1995) 266 (1957) 713 315 348 402 434 575 815 828 1390 1960
2020-11-11 09:45 3.84 1110 2490 (1995) 266 (1957) 713 315 348 402 434 575 815 828 1390 1960
2020-11-11 08:45 3.85 1120 2490 (1995) 266 (1957) 713 315 348 402 434 575 815 828 1390 1960
2020-11-11 07:45 3.85 1120 2490 (1995) 266 (1957) 713 315 348 402 434 575 815 828 1390 1960
2020-11-11 06:45 3.85 1120 2490 (1995) 266 (1957) 713 315 348 402 434 575 815 828 1390 1960
2020-11-11 05:45 3.85 1120 2490 (1995) 266 (1957) 713 315 348 402 434 575 815 828 1390 1960
2020-11-11 04:45 3.85 1120 2490 (1995) 266 (1957) 713 315 348 402 434 575 815 828 1390 1960
2020-11-11 03:45 3.86 1130 2490 (1995) 266 (1957) 713 315 348 402 434 575 815 828 1390 1960
2020-11-11 02:45 3.86 1130 2490 (1995) 266 (1957) 713 315 348 402 434 575 815 828 1390 1960
2020-11-11 01:45 3.86 1130 2490 (1995) 266 (1957) 713 315 348 402 434 575 815 828 1390 1960
2020-11-11 00:45 3.87 1130 2490 (1995) 266 (1957) 713 315 348 402 434 575 815 828 1390 1960
2020-11-10 23:45 3.86 1130 2660 (1995) 266 (1957) 719 318 343 395 431 533 827 850 1450 2040
2020-11-10 22:45 3.87 1130 2660 (1995) 266 (1957) 719 318 343 395 431 533 827 850 1450 2040
2020-11-10 21:45 3.87 1130 2660 (1995) 266 (1957) 719 318 343 395 431 533 827 850 1450 2040
2020-11-10 20:45 3.87 1130 2660 (1995) 266 (1957) 719 318 343 395 431 533 827 850 1450 2040
2020-11-10 19:45 3.87 1130 2660 (1995) 266 (1957) 719 318 343 395 431 533 827 850 1450 2040
2020-11-10 18:45 3.83 1110 2660 (1995) 266 (1957) 719 318 343 395 431 533 827 850 1450 2040
2020-11-10 17:45 3.87 1130 2660 (1995) 266 (1957) 719 318 343 395 431 533 827 850 1450 2040
2020-11-10 16:45 3.87 1130 2660 (1995) 266 (1957) 719 318 343 395 431 533 827 850 1450 2040
2020-11-10 15:45 3.88 1140 2660 (1995) 266 (1957) 719 318 343 395 431 533 827 850 1450 2040
2020-11-10 14:45 3.88 1140 2660 (1995) 266 (1957) 719 318 343 395 431 533 827 850 1450 2040
2020-11-10 13:45 3.89 1150 2660 (1995) 266 (1957) 719 318 343 395 431 533 827 850 1450 2040
2020-11-10 12:45 3.88 1140 2660 (1995) 266 (1957) 719 318 343 395 431 533 827 850 1450 2040
2020-11-10 11:45 3.87 1130 2660 (1995) 266 (1957) 719 318 343 395 431 533 827 850 1450 2040
2020-11-10 10:45 3.88 1140 2660 (1995) 266 (1957) 719 318 343 395 431 533 827 850 1450 2040
2020-11-10 09:45 3.89 1150 2660 (1995) 266 (1957) 719 318 343 395 431 533 827 850 1450 2040
2020-11-10 08:45 3.89 1150 2660 (1995) 266 (1957) 719 318 343 395 431 533 827 850 1450 2040
2020-11-10 07:45 3.89 1150 2660 (1995) 266 (1957) 719 318 343 395 431 533 827 850 1450 2040
2020-11-10 06:45 3.88 1140 2660 (1995) 266 (1957) 719 318 343 395 431 533 827 850 1450 2040
2020-11-10 05:45 3.89 1150 2660 (1995) 266 (1957) 719 318 343 395 431 533 827 850 1450 2040
2020-11-10 04:45 3.89 1150 2660 (1995) 266 (1957) 719 318 343 395 431 533 827 850 1450 2040
2020-11-10 03:45 3.90 1160 2660 (1995) 266 (1957) 719 318 343 395 431 533 827 850 1450 2040
2020-11-10 02:45 3.90 1160 2660 (1995) 266 (1957) 719 318 343 395 431 533 827 850 1450 2040
2020-11-10 01:45 3.90 1160 2660 (1995) 266 (1957) 719 318 343 395 431 533 827 850 1450 2040
2020-11-10 00:45 3.90 1160 2660 (1995) 266 (1957) 719 318 343 395 431 533 827 850 1450 2040
2020-11-09 23:45 3.90 1160 2550 (1995) 266 (1957) 720 319 351 396 431 543 828 895 1440 1710
2020-11-09 22:45 3.90 1160 2550 (1995) 266 (1957) 720 319 351 396 431 543 828 895 1440 1710
2020-11-09 21:45 3.90 1160 2550 (1995) 266 (1957) 720 319 351 396 431 543 828 895 1440 1710
2020-11-09 20:45 3.90 1160 2550 (1995) 266 (1957) 720 319 351 396 431 543 828 895 1440 1710
2020-11-09 19:45 3.91 1160 2550 (1995) 266 (1957) 720 319 351 396 431 543 828 895 1440 1710
2020-11-09 18:45 3.91 1160 2550 (1995) 266 (1957) 720 319 351 396 431 543 828 895 1440 1710
2020-11-09 17:45 3.87 1130 2550 (1995) 266 (1957) 720 319 351 396 431 543 828 895 1440 1710
2020-11-09 16:45 3.90 1160 2550 (1995) 266 (1957) 720 319 351 396 431 543 828 895 1440 1710
2020-11-09 15:45 3.90 1160 2550 (1995) 266 (1957) 720 319 351 396 431 543 828 895 1440 1710
2020-11-09 14:45 3.91 1160 2550 (1995) 266 (1957) 720 319 351 396 431 543 828 895 1440 1710
2020-11-09 13:45 3.92 1170 2550 (1995) 266 (1957) 720 319 351 396 431 543 828 895 1440 1710
2020-11-09 12:45 3.90 1160 2550 (1995) 266 (1957) 720 319 351 396 431 543 828 895 1440 1710
2020-11-09 11:45 3.91 1160 2550 (1995) 266 (1957) 720 319 351 396 431 543 828 895 1440 1710
2020-11-09 10:45 3.92 1170 2550 (1995) 266 (1957) 720 319 351 396 431 543 828 895 1440 1710
2020-11-09 09:45 3.93 1180 2550 (1995) 266 (1957) 720 319 351 396 431 543 828 895 1440 1710
2020-11-09 08:45 3.93 1180 2550 (1995) 266 (1957) 720 319 351 396 431 543 828 895 1440 1710
2020-11-09 07:45 3.92 1170 2550 (1995) 266 (1957) 720 319 351 396 431 543 828 895 1440 1710
2020-11-09 06:45 3.93 1180 2550 (1995) 266 (1957) 720 319 351 396 431 543 828 895 1440 1710
2020-11-09 05:45 3.93 1180 2550 (1995) 266 (1957) 720 319 351 396 431 543 828 895 1440 1710
2020-11-09 04:45 3.94 1180 2550 (1995) 266 (1957) 720 319 351 396 431 543 828 895 1440 1710
2020-11-09 03:45 3.94 1180 2550 (1995) 266 (1957) 720 319 351 396 431 543 828 895 1440 1710
2020-11-09 02:45 3.94 1180 2550 (1995) 266 (1957) 720 319 351 396 431 543 828 895 1440 1710
2020-11-09 01:45 3.94 1180 2550 (1995) 266 (1957) 720 319 351 396 431 543 828 895 1440 1710
2020-11-09 00:45 3.94 1180 2550 (1995) 266 (1957) 720 319 351 396 431 543 828 895 1440 1710
2020-11-08 23:45 3.95 1190 3190 (1973) 266 (1957) 755 321 352 400 436 542 818 898 1390 2300
2020-11-08 22:45 3.95 1190 3190 (1973) 266 (1957) 755 321 352 400 436 542 818 898 1390 2300
2020-11-08 21:45 3.95 1190 3190 (1973) 266 (1957) 755 321 352 400 436 542 818 898 1390 2300
2020-11-08 20:45 3.95 1190 3190 (1973) 266 (1957) 755 321 352 400 436 542 818 898 1390 2300
2020-11-08 19:45 3.95 1190 3190 (1973) 266 (1957) 755 321 352 400 436 542 818 898 1390 2300
2020-11-08 18:45 3.95 1190 3190 (1973) 266 (1957) 755 321 352 400 436 542 818 898 1390 2300
2020-11-08 17:45 3.96 1200 3190 (1973) 266 (1957) 755 321 352 400 436 542 818 898 1390 2300
2020-11-08 16:45 3.95 1190 3190 (1973) 266 (1957) 755 321 352 400 436 542 818 898 1390 2300
2020-11-08 15:45 3.96 1200 3190 (1973) 266 (1957) 755 321 352 400 436 542 818 898 1390 2300
2020-11-08 14:45 3.96 1200 3190 (1973) 266 (1957) 755 321 352 400 436 542 818 898 1390 2300
2020-11-08 13:45 3.96 1200 3190 (1973) 266 (1957) 755 321 352 400 436 542 818 898 1390 2300
2020-11-08 12:45 3.97 1200 3190 (1973) 266 (1957) 755 321 352 400 436 542 818 898 1390 2300
2020-11-08 11:45 3.95 1190 3190 (1973) 266 (1957) 755 321 352 400 436 542 818 898 1390 2300
2020-11-08 10:45 3.96 1200 3190 (1973) 266 (1957) 755 321 352 400 436 542 818 898 1390 2300
2020-11-08 09:45 3.97 1200 3190 (1973) 266 (1957) 755 321 352 400 436 542 818 898 1390 2300
2020-11-08 08:45 3.97 1200 3190 (1973) 266 (1957) 755 321 352 400 436 542 818 898 1390 2300
2020-11-08 07:45 3.98 1210 3190 (1973) 266 (1957) 755 321 352 400 436 542 818 898 1390 2300
2020-11-08 06:45 3.98 1210 3190 (1973) 266 (1957) 755 321 352 400 436 542 818 898 1390 2300
2020-11-08 05:45 3.98 1210 3190 (1973) 266 (1957) 755 321 352 400 436 542 818 898 1390 2300
2020-11-08 04:45 3.98 1210 3190 (1973) 266 (1957) 755 321 352 400 436 542 818 898 1390 2300
2020-11-08 03:45 3.98 1210 3190 (1973) 266 (1957) 755 321 352 400 436 542 818 898 1390 2300
2020-11-08 02:45 3.98 1210 3190 (1973) 266 (1957) 755 321 352 400 436 542 818 898 1390 2300
2020-11-08 01:45 3.99 1220 3190 (1973) 266 (1957) 755 321 352 400 436 542 818 898 1390 2300
2020-11-08 00:45 3.99 1220 3190 (1973) 266 (1957) 755 321 352 400 436 542 818 898 1390 2300
2020-11-07 23:45 3.99 1220 6510 (1995) 279 (1957) 845 322 344 398 427 566 847 892 1350 2400
2020-11-07 22:45 4.00 1230 6510 (1995) 279 (1957) 845 322 344 398 427 566 847 892 1350 2400
2020-11-07 21:45 4.00 1230 6510 (1995) 279 (1957) 845 322 344 398 427 566 847 892 1350 2400
2020-11-07 20:45 4.00 1230 6510 (1995) 279 (1957) 845 322 344 398 427 566 847 892 1350 2400
2020-11-07 19:45 4.00 1230 6510 (1995) 279 (1957) 845 322 344 398 427 566 847 892 1350 2400
2020-11-07 18:45 4.00 1230 6510 (1995) 279 (1957) 845 322 344 398 427 566 847 892 1350 2400
2020-11-07 17:45 4.01 1230 6510 (1995) 279 (1957) 845 322 344 398 427 566 847 892 1350 2400
2020-11-07 16:45 4.01 1230 6510 (1995) 279 (1957) 845 322 344 398 427 566 847 892 1350 2400
2020-11-07 15:45 4.00 1230 6510 (1995) 279 (1957) 845 322 344 398 427 566 847 892 1350 2400
2020-11-07 14:45 4.02 1240 6510 (1995) 279 (1957) 845 322 344 398 427 566 847 892 1350 2400
2020-11-07 13:45 3.99 1220 6510 (1995) 279 (1957) 845 322 344 398 427 566 847 892 1350 2400
2020-11-07 12:45 4.02 1240 6510 (1995) 279 (1957) 845 322 344 398 427 566 847 892 1350 2400
2020-11-07 11:45 4.02 1240 6510 (1995) 279 (1957) 845 322 344 398 427 566 847 892 1350 2400
2020-11-07 10:45 4.02 1240 6510 (1995) 279 (1957) 845 322 344 398 427 566 847 892 1350 2400
2020-11-07 09:45 4.03 1250 6510 (1995) 279 (1957) 845 322 344 398 427 566 847 892 1350 2400
2020-11-07 08:45 4.03 1250 6510 (1995) 279 (1957) 845 322 344 398 427 566 847 892 1350 2400
2020-11-07 07:45 4.04 1250 6510 (1995) 279 (1957) 845 322 344 398 427 566 847 892 1350 2400
2020-11-07 06:45 4.04 1250 6510 (1995) 279 (1957) 845 322 344 398 427 566 847 892 1350 2400
2020-11-07 05:45 4.04 1250 6510 (1995) 279 (1957) 845 322 344 398 427 566 847 892 1350 2400
2020-11-07 04:45 4.04 1250 6510 (1995) 279 (1957) 845 322 344 398 427 566 847 892 1350 2400
2020-11-07 03:45 4.05 1260 6510 (1995) 279 (1957) 845 322 344 398 427 566 847 892 1350 2400
2020-11-07 02:45 4.05 1260 6510 (1995) 279 (1957) 845 322 344 398 427 566 847 892 1350 2400
2020-11-07 01:45 4.05 1260 6510 (1995) 279 (1957) 845 322 344 398 427 566 847 892 1350 2400
2020-11-07 00:45 4.06 1270 6510 (1995) 279 (1957) 845 322 344 398 427 566 847 892 1350 2400
2020-11-06 23:45 4.06 1270 13600 (1995) 283 (1957) 862 324 348 405 428 555 860 925 1340 2100
2020-11-06 22:45 4.07 1280 13600 (1995) 283 (1957) 862 324 348 405 428 555 860 925 1340 2100
2020-11-06 21:45 4.06 1270 13600 (1995) 283 (1957) 862 324 348 405 428 555 860 925 1340 2100
2020-11-06 20:45 4.07 1280 13600 (1995) 283 (1957) 862 324 348 405 428 555 860 925 1340 2100
2020-11-06 19:45 4.07 1280 13600 (1995) 283 (1957) 862 324 348 405 428 555 860 925 1340 2100
2020-11-06 18:45 4.08 1280 13600 (1995) 283 (1957) 862 324 348 405 428 555 860 925 1340 2100
2020-11-06 17:45 4.08 1280 13600 (1995) 283 (1957) 862 324 348 405 428 555 860 925 1340 2100
2020-11-06 16:45 4.08 1280 13600 (1995) 283 (1957) 862 324 348 405 428 555 860 925 1340 2100
2020-11-06 15:45 4.09 1290 13600 (1995) 283 (1957) 862 324 348 405 428 555 860 925 1340 2100
2020-11-06 14:45 4.08 1280 13600 (1995) 283 (1957) 862 324 348 405 428 555 860 925 1340 2100
2020-11-06 13:45 4.09 1290 13600 (1995) 283 (1957) 862 324 348 405 428 555 860 925 1340 2100
2020-11-06 12:45 4.05 1260 13600 (1995) 283 (1957) 862 324 348 405 428 555 860 925 1340 2100
2020-11-06 11:45 4.04 1250 13600 (1995) 283 (1957) 862 324 348 405 428 555 860 925 1340 2100
2020-11-06 10:45 4.10 1300 13600 (1995) 283 (1957) 862 324 348 405 428 555 860 925 1340 2100
2020-11-06 09:45 4.11 1300 13600 (1995) 283 (1957) 862 324 348 405 428 555 860 925 1340 2100
2020-11-06 08:45 4.11 1300 13600 (1995) 283 (1957) 862 324 348 405 428 555 860 925 1340 2100
2020-11-06 07:45 4.10 1300 13600 (1995) 283 (1957) 862 324 348 405 428 555 860 925 1340 2100
2020-11-06 06:45 4.12 1310 13600 (1995) 283 (1957) 862 324 348 405 428 555 860 925 1340 2100
2020-11-06 05:45 4.12 1310 13600 (1995) 283 (1957) 862 324 348 405 428 555 860 925 1340 2100
2020-11-06 04:45 4.13 1320 13600 (1995) 283 (1957) 862 324 348 405 428 555 860 925 1340 2100
2020-11-06 03:45 4.13 1320 13600 (1995) 283 (1957) 862 324 348 405 428 555 860 925 1340 2100
2020-11-06 02:45 4.14 1330 13600 (1995) 283 (1957) 862 324 348 405 428 555 860 925 1340 2100
2020-11-06 01:45 4.14 1330 13600 (1995) 283 (1957) 862 324 348 405 428 555 860 925 1340 2100
2020-11-06 00:45 4.14 1330 13600 (1995) 283 (1957) 862 324 348 405 428 555 860 925 1340 2100
2020-11-05 23:45 4.14 1330 8770 (1995) 270 (1957) 811 334 348 402 426 578 837 921 1190 2120
2020-11-05 22:45 4.15 1330 8770 (1995) 270 (1957) 811 334 348 402 426 578 837 921 1190 2120
2020-11-05 21:45 4.15 1330 8770 (1995) 270 (1957) 811 334 348 402 426 578 837 921 1190 2120
2020-11-05 20:45 4.16 1340 8770 (1995) 270 (1957) 811 334 348 402 426 578 837 921 1190 2120
2020-11-05 19:45 4.16 1340 8770 (1995) 270 (1957) 811 334 348 402 426 578 837 921 1190 2120
2020-11-05 18:45 4.16 1340 8770 (1995) 270 (1957) 811 334 348 402 426 578 837 921 1190 2120
2020-11-05 17:45 4.17 1350 8770 (1995) 270 (1957) 811 334 348 402 426 578 837 921 1190 2120
2020-11-05 16:45 4.17 1350 8770 (1995) 270 (1957) 811 334 348 402 426 578 837 921 1190 2120
2020-11-05 15:45 4.18 1360 8770 (1995) 270 (1957) 811 334 348 402 426 578 837 921 1190 2120
2020-11-05 14:45 4.18 1360 8770 (1995) 270 (1957) 811 334 348 402 426 578 837 921 1190 2120
2020-11-05 13:45 4.17 1350 8770 (1995) 270 (1957) 811 334 348 402 426 578 837 921 1190 2120
2020-11-05 12:45 4.16 1340 8770 (1995) 270 (1957) 811 334 348 402 426 578 837 921 1190 2120
2020-11-05 11:45 4.18 1360 8770 (1995) 270 (1957) 811 334 348 402 426 578 837 921 1190 2120
2020-11-05 10:45 4.19 1360 8770 (1995) 270 (1957) 811 334 348 402 426 578 837 921 1190 2120
2020-11-05 09:45 4.20 1370 8770 (1995) 270 (1957) 811 334 348 402 426 578 837 921 1190 2120
2020-11-05 08:45 4.21 1380 8770 (1995) 270 (1957) 811 334 348 402 426 578 837 921 1190 2120
2020-11-05 07:45 4.21 1380 8770 (1995) 270 (1957) 811 334 348 402 426 578 837 921 1190 2120
2020-11-05 06:45 4.21 1380 8770 (1995) 270 (1957) 811 334 348 402 426 578 837 921 1190 2120
2020-11-05 05:45 4.22 1380 8770 (1995) 270 (1957) 811 334 348 402 426 578 837 921 1190 2120
2020-11-05 04:45 4.22 1380 8770 (1995) 270 (1957) 811 334 348 402 426 578 837 921 1190 2120
2020-11-05 03:45 4.23 1390 8770 (1995) 270 (1957) 811 334 348 402 426 578 837 921 1190 2120
2020-11-05 02:45 4.23 1390 8770 (1995) 270 (1957) 811 334 348 402 426 578 837 921 1190 2120
2020-11-05 01:45 4.23 1390 8770 (1995) 270 (1957) 811 334 348 402 426 578 837 921 1190 2120
2020-11-05 00:45 4.24 1400 8770 (1995) 270 (1957) 811 334 348 402 426 578 837 921 1190 2120
2020-11-04 23:45 4.25 1410 3370 (1975) 274 (1957) 769 324 350 400 426 559 838 980 1340 2450
2020-11-04 22:45 4.25 1410 3370 (1975) 274 (1957) 769 324 350 400 426 559 838 980 1340 2450
2020-11-04 21:45 4.25 1410 3370 (1975) 274 (1957) 769 324 350 400 426 559 838 980 1340 2450
2020-11-04 20:45 4.26 1410 3370 (1975) 274 (1957) 769 324 350 400 426 559 838 980 1340 2450
2020-11-04 19:45 4.27 1420 3370 (1975) 274 (1957) 769 324 350 400 426 559 838 980 1340 2450
2020-11-04 18:45 4.27 1420 3370 (1975) 274 (1957) 769 324 350 400 426 559 838 980 1340 2450
2020-11-04 17:45 4.28 1430 3370 (1975) 274 (1957) 769 324 350 400 426 559 838 980 1340 2450
2020-11-04 16:45 4.28 1430 3370 (1975) 274 (1957) 769 324 350 400 426 559 838 980 1340 2450
2020-11-04 15:45 4.28 1430 3370 (1975) 274 (1957) 769 324 350 400 426 559 838 980 1340 2450
2020-11-04 14:45 4.25 1410 3370 (1975) 274 (1957) 769 324 350 400 426 559 838 980 1340 2450
2020-11-04 13:45 4.25 1410 3370 (1975) 274 (1957) 769 324 350 400 426 559 838 980 1340 2450
2020-11-04 12:45 4.27 1420 3370 (1975) 274 (1957) 769 324 350 400 426 559 838 980 1340 2450
2020-11-04 11:45 4.29 1440 3370 (1975) 274 (1957) 769 324 350 400 426 559 838 980 1340 2450
2020-11-04 10:45 4.30 1440 3370 (1975) 274 (1957) 769 324 350 400 426 559 838 980 1340 2450
2020-11-04 09:45 4.31 1450 3370 (1975) 274 (1957) 769 324 350 400 426 559 838 980 1340 2450
2020-11-04 08:45 4.32 1460 3370 (1975) 274 (1957) 769 324 350 400 426 559 838 980 1340 2450
2020-11-04 07:45 4.32 1460 3370 (1975) 274 (1957) 769 324 350 400 426 559 838 980 1340 2450
2020-11-04 06:45 4.33 1470 3370 (1975) 274 (1957) 769 324 350 400 426 559 838 980 1340 2450
2020-11-04 05:45 4.34 1470 3370 (1975) 274 (1957) 769 324 350 400 426 559 838 980 1340 2450
2020-11-04 04:45 4.34 1470 3370 (1975) 274 (1957) 769 324 350 400 426 559 838 980 1340 2450
2020-11-04 03:45 4.35 1480 3370 (1975) 274 (1957) 769 324 350 400 426 559 838 980 1340 2450
2020-11-04 02:45 4.35 1480 3370 (1975) 274 (1957) 769 324 350 400 426 559 838 980 1340 2450
2020-11-04 01:45 4.36 1490 3370 (1975) 274 (1957) 769 324 350 400 426 559 838 980 1340 2450
2020-11-04 00:45 4.36 1490 3370 (1975) 274 (1957) 769 324 350 400 426 559 838 980 1340 2450
2020-11-03 23:45 4.37 1500 4920 (1973) 283 (1957) 792 323 351 414 425 550 790 847 1290 2580
2020-11-03 22:45 4.37 1500 4920 (1973) 283 (1957) 792 323 351 414 425 550 790 847 1290 2580
2020-11-03 21:45 4.37 1500 4920 (1973) 283 (1957) 792 323 351 414 425 550 790 847 1290 2580
2020-11-03 20:45 4.38 1500 4920 (1973) 283 (1957) 792 323 351 414 425 550 790 847 1290 2580
2020-11-03 19:45 4.38 1500 4920 (1973) 283 (1957) 792 323 351 414 425 550 790 847 1290 2580
2020-11-03 18:45 4.40 1520 4920 (1973) 283 (1957) 792 323 351 414 425 550 790 847 1290 2580
2020-11-03 17:45 4.40 1520 4920 (1973) 283 (1957) 792 323 351 414 425 550 790 847 1290 2580
2020-11-03 16:45 4.40 1520 4920 (1973) 283 (1957) 792 323 351 414 425 550 790 847 1290 2580
2020-11-03 15:45 4.42 1530 4920 (1973) 283 (1957) 792 323 351 414 425 550 790 847 1290 2580
2020-11-03 14:45 4.42 1530 4920 (1973) 283 (1957) 792 323 351 414 425 550 790 847 1290 2580
2020-11-03 13:45 4.41 1530 4920 (1973) 283 (1957) 792 323 351 414 425 550 790 847 1290 2580
2020-11-03 12:45 4.41 1530 4920 (1973) 283 (1957) 792 323 351 414 425 550 790 847 1290 2580
2020-11-03 11:45 4.43 1540 4920 (1973) 283 (1957) 792 323 351 414 425 550 790 847 1290 2580
2020-11-03 10:45 4.42 1530 4920 (1973) 283 (1957) 792 323 351 414 425 550 790 847 1290 2580
2020-11-03 09:45 4.45 1560 4920 (1973) 283 (1957) 792 323 351 414 425 550 790 847 1290 2580
2020-11-03 08:45 4.46 1560 4920 (1973) 283 (1957) 792 323 351 414 425 550 790 847 1290 2580
2020-11-03 07:45 4.46 1560 4920 (1973) 283 (1957) 792 323 351 414 425 550 790 847 1290 2580
2020-11-03 06:45 4.47 1570 4920 (1973) 283 (1957) 792 323 351 414 425 550 790 847 1290 2580
2020-11-03 05:45 4.48 1580 4920 (1973) 283 (1957) 792 323 351 414 425 550 790 847 1290 2580
2020-11-03 04:45 4.49 1590 4920 (1973) 283 (1957) 792 323 351 414 425 550 790 847 1290 2580
2020-11-03 03:45 4.50 1590 4920 (1973) 283 (1957) 792 323 351 414 425 550 790 847 1290 2580
2020-11-03 02:45 4.50 1590 4920 (1973) 283 (1957) 792 323 351 414 425 550 790 847 1290 2580
2020-11-03 01:45 4.51 1600 4920 (1973) 283 (1957) 792 323 351 414 425 550 790 847 1290 2580
2020-11-03 00:45 4.52 1610 4920 (1973) 283 (1957) 792 323 351 414 425 550 790 847 1290 2580
2020-11-02 23:45 4.53 1620 7080 (1973) 270 (1957) 805 325 346 408 425 527 773 842 1130 2730
2020-11-02 22:45 4.53 1620 7080 (1973) 270 (1957) 805 325 346 408 425 527 773 842 1130 2730
2020-11-02 21:45 4.54 1620 7080 (1973) 270 (1957) 805 325 346 408 425 527 773 842 1130 2730
2020-11-02 20:45 4.55 1630 7080 (1973) 270 (1957) 805 325 346 408 425 527 773 842 1130 2730
2020-11-02 19:45 4.56 1640 7080 (1973) 270 (1957) 805 325 346 408 425 527 773 842 1130 2730
2020-11-02 18:45 4.56 1640 7080 (1973) 270 (1957) 805 325 346 408 425 527 773 842 1130 2730
2020-11-02 17:45 4.58 1660 7080 (1973) 270 (1957) 805 325 346 408 425 527 773 842 1130 2730
2020-11-02 16:45 4.59 1660 7080 (1973) 270 (1957) 805 325 346 408 425 527 773 842 1130 2730
2020-11-02 15:45 4.60 1670 7080 (1973) 270 (1957) 805 325 346 408 425 527 773 842 1130 2730
2020-11-02 14:45 4.60 1670 7080 (1973) 270 (1957) 805 325 346 408 425 527 773 842 1130 2730
2020-11-02 13:45 4.60 1670 7080 (1973) 270 (1957) 805 325 346 408 425 527 773 842 1130 2730
2020-11-02 12:45 4.63 1690 7080 (1973) 270 (1957) 805 325 346 408 425 527 773 842 1130 2730
2020-11-02 11:45 4.63 1690 7080 (1973) 270 (1957) 805 325 346 408 425 527 773 842 1130 2730
2020-11-02 10:45 4.63 1690 7080 (1973) 270 (1957) 805 325 346 408 425 527 773 842 1130 2730
2020-11-02 09:45 4.66 1720 7080 (1973) 270 (1957) 805 325 346 408 425 527 773 842 1130 2730
2020-11-02 08:45 4.67 1730 7080 (1973) 270 (1957) 805 325 346 408 425 527 773 842 1130 2730
2020-11-02 07:45 4.68 1730 7080 (1973) 270 (1957) 805 325 346 408 425 527 773 842 1130 2730
2020-11-02 06:45 4.70 1750 7080 (1973) 270 (1957) 805 325 346 408 425 527 773 842 1130 2730
2020-11-02 05:45 4.71 1760 7080 (1973) 270 (1957) 805 325 346 408 425 527 773 842 1130 2730
2020-11-02 04:45 4.72 1760 7080 (1973) 270 (1957) 805 325 346 408 425 527 773 842 1130 2730
2020-11-02 03:45 4.74 1780 7080 (1973) 270 (1957) 805 325 346 408 425 527 773 842 1130 2730
2020-11-02 02:45 4.74 1780 7080 (1973) 270 (1957) 805 325 346 408 425 527 773 842 1130 2730
2020-11-02 01:45 4.76 1800 7080 (1973) 270 (1957) 805 325 346 408 425 527 773 842 1130 2730
2020-11-02 00:45 4.77 1800 7080 (1973) 270 (1957) 805 325 346 408 425 527 773 842 1130 2730
2020-11-01 23:45 4.78 1810 8880 (2010) 279 (1957) 886 316 345 407 417 527 769 870 1210 2300
2020-11-01 22:45 4.80 1830 8880 (2010) 279 (1957) 886 316 345 407 417 527 769 870 1210 2300
2020-11-01 21:45 4.82 1840 8880 (2010) 279 (1957) 886 316 345 407 417 527 769 870 1210 2300
2020-11-01 20:45 4.83 1850 8880 (2010) 279 (1957) 886 316 345 407 417 527 769 870 1210 2300
2020-11-01 19:45 4.84 1860 8880 (2010) 279 (1957) 886 316 345 407 417 527 769 870 1210 2300
2020-11-01 18:45 4.86 1870 8880 (2010) 279 (1957) 886 316 345 407 417 527 769 870 1210 2300
2020-11-01 17:45 4.88 1890 8880 (2010) 279 (1957) 886 316 345 407 417 527 769 870 1210 2300
2020-11-01 16:45 4.90 1910 8880 (2010) 279 (1957) 886 316 345 407 417 527 769 870 1210 2300
2020-11-01 15:45 4.92 1920 8880 (2010) 279 (1957) 886 316 345 407 417 527 769 870 1210 2300
2020-11-01 14:45 4.93 1930 8880 (2010) 279 (1957) 886 316 345 407 417 527 769 870 1210 2300
2020-11-01 13:45 4.94 1940 8880 (2010) 279 (1957) 886 316 345 407 417 527 769 870 1210 2300
2020-11-01 07:45 5.05 2030 8880 (2010) 279 (1957) 886 316 345 407 417 527 769 870 1210 2300
2020-11-01 06:45 5.08 2050 8880 (2010) 279 (1957) 886 316 345 407 417 527 769 870 1210 2300
2020-11-01 05:45 5.10 2070 8880 (2010) 279 (1957) 886 316 345 407 417 527 769 870 1210 2300
2020-11-01 04:45 5.12 2090 8880 (2010) 279 (1957) 886 316 345 407 417 527 769 870 1210 2300
2020-11-01 03:45 5.13 2090 8880 (2010) 279 (1957) 886 316 345 407 417 527 769 870 1210 2300
2020-11-01 00:45 5.23 2180 8880 (2010) 279 (1957) 886 316 345 407 417 527 769 870 1210 2300
2020-10-31 23:45 5.25 2190 25300 (2010) 291 (1956) 997 314 346 405 430 511 725 784 1180 1920
2020-10-31 22:45 5.27 2210 25300 (2010) 291 (1956) 997 314 346 405 430 511 725 784 1180 1920
2020-10-31 21:45 5.30 2230 25300 (2010) 291 (1956) 997 314 346 405 430 511 725 784 1180 1920
2020-10-31 20:45 5.33 2260 25300 (2010) 291 (1956) 997 314 346 405 430 511 725 784 1180 1920
2020-10-31 19:45 5.35 2280 25300 (2010) 291 (1956) 997 314 346 405 430 511 725 784 1180 1920
2020-10-31 18:45 5.39 2310 25300 (2010) 291 (1956) 997 314 346 405 430 511 725 784 1180 1920
2020-10-31 17:45 5.42 2340 25300 (2010) 291 (1956) 997 314 346 405 430 511 725 784 1180 1920
2020-10-31 16:45 5.44 2350 25300 (2010) 291 (1956) 997 314 346 405 430 511 725 784 1180 1920
2020-10-31 15:45 5.49 2400 25300 (2010) 291 (1956) 997 314 346 405 430 511 725 784 1180 1920
2020-10-31 14:45 5.51 2410 25300 (2010) 291 (1956) 997 314 346 405 430 511 725 784 1180 1920
2020-10-31 13:45 5.54 2440 25300 (2010) 291 (1956) 997 314 346 405 430 511 725 784 1180 1920
2020-10-31 12:45 5.57 2460 25300 (2010) 291 (1956) 997 314 346 405 430 511 725 784 1180 1920
2020-10-31 11:45 5.63 2520 25300 (2010) 291 (1956) 997 314 346 405 430 511 725 784 1180 1920
2020-10-31 10:45 5.65 2530 25300 (2010) 291 (1956) 997 314 346 405 430 511 725 784 1180 1920
2020-10-31 09:45 5.70 2580 25300 (2010) 291 (1956) 997 314 346 405 430 511 725 784 1180 1920
2020-10-31 08:45 5.74 2610 25300 (2010) 291 (1956) 997 314 346 405 430 511 725 784 1180 1920
2020-10-31 07:45 5.77 2640 25300 (2010) 291 (1956) 997 314 346 405 430 511 725 784 1180 1920
2020-10-31 06:45 5.81 2670 25300 (2010) 291 (1956) 997 314 346 405 430 511 725 784 1180 1920
2020-10-31 05:45 5.87 2730 25300 (2010) 291 (1956) 997 314 346 405 430 511 725 784 1180 1920
2020-10-31 04:45 5.92 2770 25300 (2010) 291 (1956) 997 314 346 405 430 511 725 784 1180 1920
2020-10-31 03:45 5.96 2810 25300 (2010) 291 (1956) 997 314 346 405 430 511 725 784 1180 1920
2020-10-31 02:45 6.01 2850 25300 (2010) 291 (1956) 997 314 346 405 430 511 725 784 1180 1920
2020-10-31 01:45 6.06 2900 25300 (2010) 291 (1956) 997 314 346 405 430 511 725 784 1180 1920
2020-10-31 00:45 6.10 2930 25300 (2010) 291 (1956) 997 314 346 405 430 511 725 784 1180 1920
2020-10-30 23:45 6.16 2990 14100 (2010) 270 (1957) 773 318 340 400 412 511 714 773 952 1630
2020-10-30 22:45 6.21 3030 14100 (2010) 270 (1957) 773 318 340 400 412 511 714 773 952 1630
2020-10-30 21:45 6.28 3100 14100 (2010) 270 (1957) 773 318 340 400 412 511 714 773 952 1630
2020-10-30 20:45 6.34 3150 14100 (2010) 270 (1957) 773 318 340 400 412 511 714 773 952 1630
2020-10-30 19:45 6.41 3220 14100 (2010) 270 (1957) 773 318 340 400 412 511 714 773 952 1630
2020-10-30 18:45 6.48 3280 14100 (2010) 270 (1957) 773 318 340 400 412 511 714 773 952 1630
2020-10-30 17:45 6.55 3350 14100 (2010) 270 (1957) 773 318 340 400 412 511 714 773 952 1630
2020-10-30 16:45 6.64 3430 14100 (2010) 270 (1957) 773 318 340 400 412 511 714 773 952 1630
2020-10-30 15:45 6.70 3490 14100 (2010) 270 (1957) 773 318 340 400 412 511 714 773 952 1630
2020-10-30 14:45 6.81 3590 14100 (2010) 270 (1957) 773 318 340 400 412 511 714 773 952 1630
2020-10-30 13:45 6.90 3680 14100 (2010) 270 (1957) 773 318 340 400 412 511 714 773 952 1630
2020-10-30 12:45 6.98 3760 14100 (2010) 270 (1957) 773 318 340 400 412 511 714 773 952 1630
2020-10-30 11:45 7.08 3850 14100 (2010) 270 (1957) 773 318 340 400 412 511 714 773 952 1630
2020-10-30 10:45 7.20 3970 14100 (2010) 270 (1957) 773 318 340 400 412 511 714 773 952 1630
2020-10-30 09:45 7.30 4070 14100 (2010) 270 (1957) 773 318 340 400 412 511 714 773 952 1630
2020-10-30 08:45 7.43 4200 14100 (2010) 270 (1957) 773 318 340 400 412 511 714 773 952 1630
2020-10-30 07:45 7.57 4340 14100 (2010) 270 (1957) 773 318 340 400 412 511 714 773 952 1630
2020-10-30 06:45 7.70 4470 14100 (2010) 270 (1957) 773 318 340 400 412 511 714 773 952 1630
2020-10-30 05:45 7.86 4630 14100 (2010) 270 (1957) 773 318 340 400 412 511 714 773 952 1630
2020-10-30 04:45 8.05 4810 14100 (2010) 270 (1957) 773 318 340 400 412 511 714 773 952 1630
2020-10-30 03:45 8.27 5020 14100 (2010) 270 (1957) 773 318 340 400 412 511 714 773 952 1630
2020-10-30 02:45 8.55 5300 14100 (2010) 270 (1957) 773 318 340 400 412 511 714 773 952 1630
2020-10-30 01:45 8.86 5610 14100 (2010) 270 (1957) 773 318 340 400 412 511 714 773 952 1630
2020-10-30 00:45 9.20 5960 14100 (2010) 270 (1957) 773 318 340 400 412 511 714 773 952 1630
2020-10-29 23:45 9.56 6340 3240 (2010) 262 (1957) 622 327 341 400 411 500 707 765 867 1350
2020-10-29 22:45 9.94 6750 3240 (2010) 262 (1957) 622 327 341 400 411 500 707 765 867 1350
2020-10-29 21:45 10.31 7150 3240 (2010) 262 (1957) 622 327 341 400 411 500 707 765 867 1350
2020-10-29 20:45 10.60 7480 3240 (2010) 262 (1957) 622 327 341 400 411 500 707 765 867 1350
2020-10-29 19:45 10.83 7740 3240 (2010) 262 (1957) 622 327 341 400 411 500 707 765 867 1350
2020-10-29 18:45 10.95 7870 3240 (2010) 262 (1957) 622 327 341 400 411 500 707 765 867 1350
2020-10-29 17:45 11.03 7960 3240 (2010) 262 (1957) 622 327 341 400 411 500 707 765 867 1350
2020-10-29 16:45 11.03 7960 3240 (2010) 262 (1957) 622 327 341 400 411 500 707 765 867 1350
2020-10-29 15:45 10.99 7920 3240 (2010) 262 (1957) 622 327 341 400 411 500 707 765 867 1350
2020-10-29 14:45 10.95 7870 3240 (2010) 262 (1957) 622 327 341 400 411 500 707 765 867 1350
2020-10-29 13:45 10.88 7790 3240 (2010) 262 (1957) 622 327 341 400 411 500 707 765 867 1350
2020-10-29 12:45 10.82 7720 3240 (2010) 262 (1957) 622 327 341 400 411 500 707 765 867 1350
2020-10-29 11:45 10.76 7660 3240 (2010) 262 (1957) 622 327 341 400 411 500 707 765 867 1350
2020-10-29 10:45 10.72 7610 3240 (2010) 262 (1957) 622 327 341 400 411 500 707 765 867 1350
2020-10-29 09:45 10.59 7460 3240 (2010) 262 (1957) 622 327 341 400 411 500 707 765 867 1350
2020-10-29 08:45 10.41 7260 3240 (2010) 262 (1957) 622 327 341 400 411 500 707 765 867 1350
2020-10-29 07:45 10.14 6960 3240 (2010) 262 (1957) 622 327 341 400 411 500 707 765 867 1350
2020-10-29 06:45 9.69 6480 3240 (2010) 262 (1957) 622 327 341 400 411 500 707 765 867 1350
2020-10-29 05:45 9.08 5840 3240 (2010) 262 (1957) 622 327 341 400 411 500 707 765 867 1350
2020-10-29 04:45 8.16 4920 3240 (2010) 262 (1957) 622 327 341 400 411 500 707 765 867 1350
2020-10-29 03:45 6.93 3710 3240 (2010) 262 (1957) 622 327 341 400 411 500 707 765 867 1350
2020-10-29 02:45 5.60 2490 3240 (2010) 262 (1957) 622 327 341 400 411 500 707 765 867 1350
2020-10-29 01:45 4.70 1750 3240 (2010) 262 (1957) 622 327 341 400 411 500 707 765 867 1350
2020-10-29 00:45 4.28 1430 3240 (2010) 262 (1957) 622 327 341 400 411 500 707 765 867 1350
2020-10-28 23:45 4.10 1300 3140 (2007) 266 (1957) 637 328 344 399 414 503 715 771 896 1540
2020-10-28 22:45 3.96 1200 3140 (2007) 266 (1957) 637 328 344 399 414 503 715 771 896 1540
2020-10-28 21:45 3.84 1110 3140 (2007) 266 (1957) 637 328 344 399 414 503 715 771 896 1540
2020-10-28 20:45 3.85 1120 3140 (2007) 266 (1957) 637 328 344 399 414 503 715 771 896 1540
2020-10-28 19:45 3.83 1110 3140 (2007) 266 (1957) 637 328 344 399 414 503 715 771 896 1540
2020-10-28 18:45 3.82 1100 3140 (2007) 266 (1957) 637 328 344 399 414 503 715 771 896 1540
2020-10-28 17:45 3.81 1090 3140 (2007) 266 (1957) 637 328 344 399 414 503 715 771 896 1540
2020-10-28 16:45 3.80 1090 3140 (2007) 266 (1957) 637 328 344 399 414 503 715 771 896 1540
2020-10-28 15:45 3.80 1090 3140 (2007) 266 (1957) 637 328 344 399 414 503 715 771 896 1540
2020-10-28 14:45 3.78 1070 3140 (2007) 266 (1957) 637 328 344 399 414 503 715 771 896 1540
2020-10-28 13:45 3.77 1070 3140 (2007) 266 (1957) 637 328 344 399 414 503 715 771 896 1540
2020-10-28 12:45 3.77 1070 3140 (2007) 266 (1957) 637 328 344 399 414 503 715 771 896 1540
2020-10-28 11:45 3.77 1070 3140 (2007) 266 (1957) 637 328 344 399 414 503 715 771 896 1540
2020-10-28 10:45 3.78 1070 3140 (2007) 266 (1957) 637 328 344 399 414 503 715 771 896 1540
2020-10-28 09:45 3.78 1070 3140 (2007) 266 (1957) 637 328 344 399 414 503 715 771 896 1540
2020-10-28 08:45 3.79 1080 3140 (2007) 266 (1957) 637 328 344 399 414 503 715 771 896 1540
2020-10-28 07:45 3.80 1090 3140 (2007) 266 (1957) 637 328 344 399 414 503 715 771 896 1540
2020-10-28 06:45 3.81 1090 3140 (2007) 266 (1957) 637 328 344 399 414 503 715 771 896 1540
2020-10-28 05:45 3.82 1100 3140 (2007) 266 (1957) 637 328 344 399 414 503 715 771 896 1540
2020-10-28 04:45 3.83 1110 3140 (2007) 266 (1957) 637 328 344 399 414 503 715 771 896 1540
2020-10-28 03:45 3.85 1120 3140 (2007) 266 (1957) 637 328 344 399 414 503 715 771 896 1540
2020-10-28 02:45 3.86 1130 3140 (2007) 266 (1957) 637 328 344 399 414 503 715 771 896 1540
2020-10-28 01:45 3.86 1130 3140 (2007) 266 (1957) 637 328 344 399 414 503 715 771 896 1540
2020-10-28 00:45 3.86 1130 3140 (2007) 266 (1957) 637 328 344 399 414 503 715 771 896 1540
2020-10-27 23:45 3.86 1130 3130 (2007) 274 (1957) 643 326 361 400 414 491 721 763 1010 1480
2020-10-27 22:45 3.83 1110 3130 (2007) 274 (1957) 643 326 361 400 414 491 721 763 1010 1480
2020-10-27 21:45 3.79 1080 3130 (2007) 274 (1957) 643 326 361 400 414 491 721 763 1010 1480
2020-10-27 20:45 3.75 1050 3130 (2007) 274 (1957) 643 326 361 400 414 491 721 763 1010 1480
2020-10-27 19:45 3.71 1030 3130 (2007) 274 (1957) 643 326 361 400 414 491 721 763 1010 1480
2020-10-27 18:45 3.69 1010 3130 (2007) 274 (1957) 643 326 361 400 414 491 721 763 1010 1480
2020-10-27 17:45 3.67 998 3130 (2007) 274 (1957) 643 326 361 400 414 491 721 763 1010 1480
2020-10-27 16:45 3.65 985 3130 (2007) 274 (1957) 643 326 361 400 414 491 721 763 1010 1480
2020-10-27 15:45 3.64 978 3130 (2007) 274 (1957) 643 326 361 400 414 491 721 763 1010 1480
2020-10-27 14:45 3.62 965 3130 (2007) 274 (1957) 643 326 361 400 414 491 721 763 1010 1480
2020-10-27 13:45 3.60 952 3130 (2007) 274 (1957) 643 326 361 400 414 491 721 763 1010 1480
2020-10-27 12:45 3.59 945 3130 (2007) 274 (1957) 643 326 361 400 414 491 721 763 1010 1480
2020-10-27 11:45 3.57 932 3130 (2007) 274 (1957) 643 326 361 400 414 491 721 763 1010 1480
2020-10-27 10:45 3.55 919 3130 (2007) 274 (1957) 643 326 361 400 414 491 721 763 1010 1480
2020-10-27 09:45 3.52 900 3130 (2007) 274 (1957) 643 326 361 400 414 491 721 763 1010 1480
2020-10-27 08:45 3.49 880 3130 (2007) 274 (1957) 643 326 361 400 414 491 721 763 1010 1480
2020-10-27 07:45 3.44 848 3130 (2007) 274 (1957) 643 326 361 400 414 491 721 763 1010 1480
2020-10-27 06:45 3.42 835 3130 (2007) 274 (1957) 643 326 361 400 414 491 721 763 1010 1480
2020-10-27 05:45 3.40 822 3130 (2007) 274 (1957) 643 326 361 400 414 491 721 763 1010 1480
2020-10-27 04:45 3.37 804 3130 (2007) 274 (1957) 643 326 361 400 414 491 721 763 1010 1480
2020-10-27 03:45 3.36 797 3130 (2007) 274 (1957) 643 326 361 400 414 491 721 763 1010 1480
2020-10-27 02:45 3.36 797 3130 (2007) 274 (1957) 643 326 361 400 414 491 721 763 1010 1480
2020-10-27 01:45 3.33 778 3130 (2007) 274 (1957) 643 326 361 400 414 491 721 763 1010 1480
2020-10-27 00:45 3.35 791 3130 (2007) 274 (1957) 643 326 361 400 414 491 721 763 1010 1480
2020-10-26 23:45 3.35 791 2840 (1985) 274 (1956) 622 330 363 405 417 497 692 760 885 1260
2020-10-26 22:45 3.34 785 2840 (1985) 274 (1956) 622 330 363 405 417 497 692 760 885 1260
2020-10-26 21:45 3.34 785 2840 (1985) 274 (1956) 622 330 363 405 417 497 692 760 885 1260
2020-10-26 20:45 3.34 785 2840 (1985) 274 (1956) 622 330 363 405 417 497 692 760 885 1260
2020-10-26 19:45 3.34 785 2840 (1985) 274 (1956) 622 330 363 405 417 497 692 760 885 1260
2020-10-26 18:45 3.33 778 2840 (1985) 274 (1956) 622 330 363 405 417 497 692 760 885 1260
2020-10-26 17:45 3.33 778 2840 (1985) 274 (1956) 622 330 363 405 417 497 692 760 885 1260
2020-10-26 16:45 3.33 778 2840 (1985) 274 (1956) 622 330 363 405 417 497 692 760 885 1260
2020-10-26 15:45 3.32 772 2840 (1985) 274 (1956) 622 330 363 405 417 497 692 760 885 1260
2020-10-26 14:45 3.32 772 2840 (1985) 274 (1956) 622 330 363 405 417 497 692 760 885 1260
2020-10-26 13:45 3.32 772 2840 (1985) 274 (1956) 622 330 363 405 417 497 692 760 885 1260
2020-10-26 12:45 3.32 772 2840 (1985) 274 (1956) 622 330 363 405 417 497 692 760 885 1260
2020-10-26 11:45 3.33 778 2840 (1985) 274 (1956) 622 330 363 405 417 497 692 760 885 1260
2020-10-26 10:45 3.33 778 2840 (1985) 274 (1956) 622 330 363 405 417 497 692 760 885 1260
2020-10-26 09:45 3.33 778 2840 (1985) 274 (1956) 622 330 363 405 417 497 692 760 885 1260
2020-10-26 08:45 3.33 778 2840 (1985) 274 (1956) 622 330 363 405 417 497 692 760 885 1260
2020-10-26 07:45 3.33 778 2840 (1985) 274 (1956) 622 330 363 405 417 497 692 760 885 1260
2020-10-26 06:45 3.32 772 2840 (1985) 274 (1956) 622 330 363 405 417 497 692 760 885 1260
2020-10-26 05:45 3.32 772 2840 (1985) 274 (1956) 622 330 363 405 417 497 692 760 885 1260
2020-10-26 04:45 3.32 772 2840 (1985) 274 (1956) 622 330 363 405 417 497 692 760 885 1260
2020-10-26 03:45 3.33 778 2840 (1985) 274 (1956) 622 330 363 405 417 497 692 760 885 1260
2020-10-26 02:45 3.33 778 2840 (1985) 274 (1956) 622 330 363 405 417 497 692 760 885 1260
2020-10-26 01:45 3.33 778 2840 (1985) 274 (1956) 622 330 363 405 417 497 692 760 885 1260
2020-10-26 00:45 3.33 778 2840 (1985) 274 (1956) 622 330 363 405 417 497 692 760 885 1260
2020-10-25 23:45 3.33 778 3280 (2010) 266 (1957) 628 329 349 399 420 498 735 761 856 1360
2020-10-25 22:45 3.33 778 3280 (2010) 266 (1957) 628 329 349 399 420 498 735 761 856 1360
2020-10-25 21:45 3.33 778 3280 (2010) 266 (1957) 628 329 349 399 420 498 735 761 856 1360
2020-10-25 20:45 3.33 778 3280 (2010) 266 (1957) 628 329 349 399 420 498 735 761 856 1360
2020-10-25 19:45 3.33 778 3280 (2010) 266 (1957) 628 329 349 399 420 498 735 761 856 1360
2020-10-25 18:45 3.32 772 3280 (2010) 266 (1957) 628 329 349 399 420 498 735 761 856 1360
2020-10-25 17:45 3.33 778 3280 (2010) 266 (1957) 628 329 349 399 420 498 735 761 856 1360
2020-10-25 16:45 3.34 785 3280 (2010) 266 (1957) 628 329 349 399 420 498 735 761 856 1360
2020-10-25 15:45 3.33 778 3280 (2010) 266 (1957) 628 329 349 399 420 498 735 761 856 1360
2020-10-25 14:45 3.33 778 3280 (2010) 266 (1957) 628 329 349 399 420 498 735 761 856 1360
2020-10-25 13:45 3.33 778 3280 (2010) 266 (1957) 628 329 349 399 420 498 735 761 856 1360
2020-10-25 12:45 3.33 778 3280 (2010) 266 (1957) 628 329 349 399 420 498 735 761 856 1360
2020-10-25 11:45 3.34 785 3280 (2010) 266 (1957) 628 329 349 399 420 498 735 761 856 1360
2020-10-25 10:45 3.33 778 3280 (2010) 266 (1957) 628 329 349 399 420 498 735 761 856 1360
2020-10-25 09:45 3.33 778 3280 (2010) 266 (1957) 628 329 349 399 420 498 735 761 856 1360
2020-10-25 08:45 3.33 778 3280 (2010) 266 (1957) 628 329 349 399 420 498 735 761 856 1360
2020-10-25 07:45 3.33 778 3280 (2010) 266 (1957) 628 329 349 399 420 498 735 761 856 1360
2020-10-25 06:45 3.33 778 3280 (2010) 266 (1957) 628 329 349 399 420 498 735 761 856 1360
2020-10-25 05:45 3.33 778 3280 (2010) 266 (1957) 628 329 349 399 420 498 735 761 856 1360
2020-10-25 04:45 3.34 785 3280 (2010) 266 (1957) 628 329 349 399 420 498 735 761 856 1360
2020-10-25 03:45 3.33 778 3280 (2010) 266 (1957) 628 329 349 399 420 498 735 761 856 1360
2020-10-25 02:45 3.34 785 3280 (2010) 266 (1957) 628 329 349 399 420 498 735 761 856 1360
2020-10-25 01:45 3.34 785 3280 (2010) 266 (1957) 628 329 349 399 420 498 735 761 856 1360
2020-10-25 00:45 3.33 778 3280 (2010) 266 (1957) 628 329 349 399 420 498 735 761 856 1360
2020-10-24 23:45 3.34 785 7140 (2010) 266 (1957) 670 327 350 390 421 502 719 766 845 1100
2020-10-24 22:45 3.34 785 7140 (2010) 266 (1957) 670 327 350 390 421 502 719 766 845 1100
2020-10-24 21:45 3.33 778 7140 (2010) 266 (1957) 670 327 350 390 421 502 719 766 845 1100
2020-10-24 20:45 3.34 785 7140 (2010) 266 (1957) 670 327 350 390 421 502 719 766 845 1100
2020-10-24 19:45 3.33 778 7140 (2010) 266 (1957) 670 327 350 390 421 502 719 766 845 1100
2020-10-24 18:45 3.34 785 7140 (2010) 266 (1957) 670 327 350 390 421 502 719 766 845 1100
2020-10-24 17:45 3.33 778 7140 (2010) 266 (1957) 670 327 350 390 421 502 719 766 845 1100
2020-10-24 16:45 3.34 785 7140 (2010) 266 (1957) 670 327 350 390 421 502 719 766 845 1100
2020-10-24 15:45 3.34 785 7140 (2010) 266 (1957) 670 327 350 390 421 502 719 766 845 1100
2020-10-24 14:45 3.34 785 7140 (2010) 266 (1957) 670 327 350 390 421 502 719 766 845 1100
2020-10-24 13:45 3.35 791 7140 (2010) 266 (1957) 670 327 350 390 421 502 719 766 845 1100
2020-10-24 12:45 3.34 785 7140 (2010) 266 (1957) 670 327 350 390 421 502 719 766 845 1100
2020-10-24 11:45 3.35 791 7140 (2010) 266 (1957) 670 327 350 390 421 502 719 766 845 1100
2020-10-24 10:45 3.34 785 7140 (2010) 266 (1957) 670 327 350 390 421 502 719 766 845 1100
2020-10-24 09:45 3.35 791 7140 (2010) 266 (1957) 670 327 350 390 421 502 719 766 845 1100
2020-10-24 08:45 3.35 791 7140 (2010) 266 (1957) 670 327 350 390 421 502 719 766 845 1100
2020-10-24 07:45 3.35 791 7140 (2010) 266 (1957) 670 327 350 390 421 502 719 766 845 1100
2020-10-24 06:45 3.35 791 7140 (2010) 266 (1957) 670 327 350 390 421 502 719 766 845 1100
2020-10-24 05:45 3.36 797 7140 (2010) 266 (1957) 670 327 350 390 421 502 719 766 845 1100
2020-10-24 04:45 3.36 797 7140 (2010) 266 (1957) 670 327 350 390 421 502 719 766 845 1100
2020-10-24 03:45 3.36 797 7140 (2010) 266 (1957) 670 327 350 390 421 502 719 766 845 1100
2020-10-24 02:45 3.36 797 7140 (2010) 266 (1957) 670 327 350 390 421 502 719 766 845 1100
2020-10-24 01:45 3.36 797 7140 (2010) 266 (1957) 670 327 350 390 421 502 719 766 845 1100
2020-10-24 00:45 3.36 797 7140 (2010) 266 (1957) 670 327 350 390 421 502 719 766 845 1100
2020-10-23 23:45 3.36 797 5740 (2010) 266 (1957) 651 329 356 390 426 504 715 784 904 1110
2020-10-23 22:45 3.36 797 5740 (2010) 266 (1957) 651 329 356 390 426 504 715 784 904 1110
2020-10-23 21:45 3.36 797 5740 (2010) 266 (1957) 651 329 356 390 426 504 715 784 904 1110
2020-10-23 20:45 3.36 797 5740 (2010) 266 (1957) 651 329 356 390 426 504 715 784 904 1110
2020-10-23 19:45 3.31 766 5740 (2010) 266 (1957) 651 329 356 390 426 504 715 784 904 1110
2020-10-23 18:45 3.37 804 5740 (2010) 266 (1957) 651 329 356 390 426 504 715 784 904 1110
2020-10-23 17:45 3.38 810 5740 (2010) 266 (1957) 651 329 356 390 426 504 715 784 904 1110
2020-10-23 16:45 3.38 810 5740 (2010) 266 (1957) 651 329 356 390 426 504 715 784 904 1110
2020-10-23 15:45 3.36 797 5740 (2010) 266 (1957) 651 329 356 390 426 504 715 784 904 1110
2020-10-23 14:45 3.37 804 5740 (2010) 266 (1957) 651 329 356 390 426 504 715 784 904 1110
2020-10-23 13:45 3.36 797 5740 (2010) 266 (1957) 651 329 356 390 426 504 715 784 904 1110
2020-10-23 12:45 3.37 804 5740 (2010) 266 (1957) 651 329 356 390 426 504 715 784 904 1110
2020-10-23 11:45 3.36 797 5740 (2010) 266 (1957) 651 329 356 390 426 504 715 784 904 1110
2020-10-23 10:45 3.37 804 5740 (2010) 266 (1957) 651 329 356 390 426 504 715 784 904 1110
2020-10-23 09:45 3.34 785 5740 (2010) 266 (1957) 651 329 356 390 426 504 715 784 904 1110
2020-10-23 08:45 3.37 804 5740 (2010) 266 (1957) 651 329 356 390 426 504 715 784 904 1110
2020-10-23 07:45 3.38 810 5740 (2010) 266 (1957) 651 329 356 390 426 504 715 784 904 1110
2020-10-23 06:45 3.38 810 5740 (2010) 266 (1957) 651 329 356 390 426 504 715 784 904 1110
2020-10-23 05:45 3.38 810 5740 (2010) 266 (1957) 651 329 356 390 426 504 715 784 904 1110
2020-10-23 04:45 3.38 810 5740 (2010) 266 (1957) 651 329 356 390 426 504 715 784 904 1110
2020-10-23 03:45 3.38 810 5740 (2010) 266 (1957) 651 329 356 390 426 504 715 784 904 1110
2020-10-23 02:45 3.38 810 5740 (2010) 266 (1957) 651 329 356 390 426 504 715 784 904 1110
2020-10-23 01:45 3.38 810 5740 (2010) 266 (1957) 651 329 356 390 426 504 715 784 904 1110
2020-10-23 00:45 3.38 810 5740 (2010) 266 (1957) 651 329 356 390 426 504 715 784 904 1110
2020-10-22 23:45 3.38 810 4670 (1985) 270 (1957) 621 323 359 395 422 502 685 763 908 1130
2020-10-22 22:45 3.38 810 4670 (1985) 270 (1957) 621 323 359 395 422 502 685 763 908 1130
2020-10-22 21:45 3.38 810 4670 (1985) 270 (1957) 621 323 359 395 422 502 685 763 908 1130
2020-10-22 20:45 3.38 810 4670 (1985) 270 (1957) 621 323 359 395 422 502 685 763 908 1130
2020-10-22 19:45 3.38 810 4670 (1985) 270 (1957) 621 323 359 395 422 502 685 763 908 1130
2020-10-22 18:45 3.38 810 4670 (1985) 270 (1957) 621 323 359 395 422 502 685 763 908 1130
2020-10-22 17:45 3.39 816 4670 (1985) 270 (1957) 621 323 359 395 422 502 685 763 908 1130
2020-10-22 16:45 3.38 810 4670 (1985) 270 (1957) 621 323 359 395 422 502 685 763 908 1130
2020-10-22 15:45 3.39 816 4670 (1985) 270 (1957) 621 323 359 395 422 502 685 763 908 1130
2020-10-22 14:45 3.36 797 4670 (1985) 270 (1957) 621 323 359 395 422 502 685 763 908 1130
2020-10-22 13:45 3.37 804 4670 (1985) 270 (1957) 621 323 359 395 422 502 685 763 908 1130
2020-10-22 12:45 3.36 797 4670 (1985) 270 (1957) 621 323 359 395 422 502 685 763 908 1130
2020-10-22 11:45 3.35 791 4670 (1985) 270 (1957) 621 323 359 395 422 502 685 763 908 1130
2020-10-22 10:45 3.38 810 4670 (1985) 270 (1957) 621 323 359 395 422 502 685 763 908 1130
2020-10-22 09:45 3.41 829 4670 (1985) 270 (1957) 621 323 359 395 422 502 685 763 908 1130
2020-10-22 08:45 3.40 822 4670 (1985) 270 (1957) 621 323 359 395 422 502 685 763 908 1130
2020-10-22 07:45 3.40 822 4670 (1985) 270 (1957) 621 323 359 395 422 502 685 763 908 1130
2020-10-22 06:45 3.40 822 4670 (1985) 270 (1957) 621 323 359 395 422 502 685 763 908 1130
2020-10-22 05:45 3.40 822 4670 (1985) 270 (1957) 621 323 359 395 422 502 685 763 908 1130
2020-10-22 04:45 3.41 829 4670 (1985) 270 (1957) 621 323 359 395 422 502 685 763 908 1130
2020-10-22 03:45 3.41 829 4670 (1985) 270 (1957) 621 323 359 395 422 502 685 763 908 1130
2020-10-22 02:45 3.41 829 4670 (1985) 270 (1957) 621 323 359 395 422 502 685 763 908 1130
2020-10-22 01:45 3.41 829 4670 (1985) 270 (1957) 621 323 359 395 422 502 685 763 908 1130
2020-10-22 00:45 3.42 835 4670 (1985) 270 (1957) 621 323 359 395 422 502 685 763 908 1130
2020-10-21 23:45 3.41 829 4960 (1985) 270 (1957) 625 297 350 407 426 508 683 767 908 1140
2020-10-21 22:45 3.42 835 4960 (1985) 270 (1957) 625 297 350 407 426 508 683 767 908 1140
2020-10-21 21:45 3.42 835 4960 (1985) 270 (1957) 625 297 350 407 426 508 683 767 908 1140
2020-10-21 20:45 3.42 835 4960 (1985) 270 (1957) 625 297 350 407 426 508 683 767 908 1140
2020-10-21 19:45 3.42 835 4960 (1985) 270 (1957) 625 297 350 407 426 508 683 767 908 1140
2020-10-21 18:45 3.43 842 4960 (1985) 270 (1957) 625 297 350 407 426 508 683 767 908 1140
2020-10-21 17:45 3.43 842 4960 (1985) 270 (1957) 625 297 350 407 426 508 683 767 908 1140
2020-10-21 16:45 3.43 842 4960 (1985) 270 (1957) 625 297 350 407 426 508 683 767 908 1140
2020-10-21 15:45 3.39 816 4960 (1985) 270 (1957) 625 297 350 407 426 508 683 767 908 1140
2020-10-21 14:45 3.43 842 4960 (1985) 270 (1957) 625 297 350 407 426 508 683 767 908 1140
2020-10-21 13:45 3.42 835 4960 (1985) 270 (1957) 625 297 350 407 426 508 683 767 908 1140
2020-10-21 12:45 3.43 842 4960 (1985) 270 (1957) 625 297 350 407 426 508 683 767 908 1140
2020-10-21 11:45 3.43 842 4960 (1985) 270 (1957) 625 297 350 407 426 508 683 767 908 1140
2020-10-21 10:45 3.44 848 4960 (1985) 270 (1957) 625 297 350 407 426 508 683 767 908 1140
2020-10-21 09:45 3.45 854 4960 (1985) 270 (1957) 625 297 350 407 426 508 683 767 908 1140
2020-10-21 08:45 3.45 854 4960 (1985) 270 (1957) 625 297 350 407 426 508 683 767 908 1140
2020-10-21 07:45 3.46 861 4960 (1985) 270 (1957) 625 297 350 407 426 508 683 767 908 1140
2020-10-21 06:45 3.46 861 4960 (1985) 270 (1957) 625 297 350 407 426 508 683 767 908 1140
2020-10-21 05:45 3.46 861 4960 (1985) 270 (1957) 625 297 350 407 426 508 683 767 908 1140
2020-10-21 04:45 3.46 861 4960 (1985) 270 (1957) 625 297 350 407 426 508 683 767 908 1140
2020-10-21 03:45 3.47 867 4960 (1985) 270 (1957) 625 297 350 407 426 508 683 767 908 1140
2020-10-21 02:45 3.47 867 4960 (1985) 270 (1957) 625 297 350 407 426 508 683 767 908 1140
2020-10-21 01:45 3.48 874 4960 (1985) 270 (1957) 625 297 350 407 426 508 683 767 908 1140
2020-10-21 00:45 3.47 867 4960 (1985) 270 (1957) 625 297 350 407 426 508 683 767 908 1140
2020-10-20 23:45 3.47 867 3020 (1985) 262 (1957) 611 297 350 397 427 520 689 788 940 1240
2020-10-20 22:45 3.47 867 3020 (1985) 262 (1957) 611 297 350 397 427 520 689 788 940 1240
2020-10-20 21:45 3.47 867 3020 (1985) 262 (1957) 611 297 350 397 427 520 689 788 940 1240
2020-10-20 20:45 3.47 867 3020 (1985) 262 (1957) 611 297 350 397 427 520 689 788 940 1240
2020-10-20 19:45 3.47 867 3020 (1985) 262 (1957) 611 297 350 397 427 520 689 788 940 1240
2020-10-20 18:45 3.48 874 3020 (1985) 262 (1957) 611 297 350 397 427 520 689 788 940 1240
2020-10-20 17:45 3.48 874 3020 (1985) 262 (1957) 611 297 350 397 427 520 689 788 940 1240
2020-10-20 16:45 3.48 874 3020 (1985) 262 (1957) 611 297 350 397 427 520 689 788 940 1240
2020-10-20 15:45 3.49 880 3020 (1985) 262 (1957) 611 297 350 397 427 520 689 788 940 1240
2020-10-20 14:45 3.47 867 3020 (1985) 262 (1957) 611 297 350 397 427 520 689 788 940 1240
2020-10-20 13:45 3.50 887 3020 (1985) 262 (1957) 611 297 350 397 427 520 689 788 940 1240
2020-10-20 12:45 3.50 887 3020 (1985) 262 (1957) 611 297 350 397 427 520 689 788 940 1240
2020-10-20 11:45 3.51 893 3020 (1985) 262 (1957) 611 297 350 397 427 520 689 788 940 1240
2020-10-20 10:45 3.52 900 3020 (1985) 262 (1957) 611 297 350 397 427 520 689 788 940 1240
2020-10-20 09:45 3.51 893 3020 (1985) 262 (1957) 611 297 350 397 427 520 689 788 940 1240
2020-10-20 08:45 3.51 893 3020 (1985) 262 (1957) 611 297 350 397 427 520 689 788 940 1240
2020-10-20 07:45 3.51 893 3020 (1985) 262 (1957) 611 297 350 397 427 520 689 788 940 1240
2020-10-20 06:45 3.50 887 3020 (1985) 262 (1957) 611 297 350 397 427 520 689 788 940 1240
2020-10-20 05:45 3.49 880 3020 (1985) 262 (1957) 611 297 350 397 427 520 689 788 940 1240
2020-10-20 04:45 3.48 874 3020 (1985) 262 (1957) 611 297 350 397 427 520 689 788 940 1240
2020-10-20 03:45 3.47 867 3020 (1985) 262 (1957) 611 297 350 397 427 520 689 788 940 1240
2020-10-20 02:45 3.45 854 3020 (1985) 262 (1957) 611 297 350 397 427 520 689 788 940 1240
2020-10-20 01:45 3.43 842 3020 (1985) 262 (1957) 611 297 350 397 427 520 689 788 940 1240
2020-10-20 00:45 3.42 835 3020 (1985) 262 (1957) 611 297 350 397 427 520 689 788 940 1240
2020-10-19 23:45 3.40 822 1430 (1985) 258 (1957) 596 302 350 399 431 531 705 775 911 1220
2020-10-19 22:45 3.39 816 1430 (1985) 258 (1957) 596 302 350 399 431 531 705 775 911 1220
2020-10-19 21:45 3.39 816 1430 (1985) 258 (1957) 596 302 350 399 431 531 705 775 911 1220
2020-10-19 20:45 3.39 816 1430 (1985) 258 (1957) 596 302 350 399 431 531 705 775 911 1220
2020-10-19 19:45 3.39 816 1430 (1985) 258 (1957) 596 302 350 399 431 531 705 775 911 1220
2020-10-19 18:45 3.40 822 1430 (1985) 258 (1957) 596 302 350 399 431 531 705 775 911 1220
2020-10-19 17:45 3.40 822 1430 (1985) 258 (1957) 596 302 350 399 431 531 705 775 911 1220
2020-10-19 16:45 3.41 829 1430 (1985) 258 (1957) 596 302 350 399 431 531 705 775 911 1220
2020-10-19 15:45 3.41 829 1430 (1985) 258 (1957) 596 302 350 399 431 531 705 775 911 1220
2020-10-19 14:45 3.40 822 1430 (1985) 258 (1957) 596 302 350 399 431 531 705 775 911 1220
2020-10-19 13:45 3.39 816 1430 (1985) 258 (1957) 596 302 350 399 431 531 705 775 911 1220
2020-10-19 12:45 3.38 810 1430 (1985) 258 (1957) 596 302 350 399 431 531 705 775 911 1220
2020-10-19 11:45 3.37 804 1430 (1985) 258 (1957) 596 302 350 399 431 531 705 775 911 1220
2020-10-19 10:45 3.37 804 1430 (1985) 258 (1957) 596 302 350 399 431 531 705 775 911 1220
2020-10-19 09:45 3.33 778 1430 (1985) 258 (1957) 596 302 350 399 431 531 705 775 911 1220
2020-10-19 08:45 3.34 785 1430 (1985) 258 (1957) 596 302 350 399 431 531 705 775 911 1220
2020-10-19 07:45 3.34 785 1430 (1985) 258 (1957) 596 302</